     2.11           OBSERVATION DATA    G (GPS)             RINEX VERSION / TYPE
teqc 2010Oct21 OPUS Account 20111028 15:22:29UTC            PGM / RUN BY / DATE
U 1382                                                      MARKER NAME
2086                                                        MARKER NUMBER
CSMIDDLETON NGS                                             OBSERVER / AGENCY
0220269730 TRIMBLE 5700 NP 1.22 / SP 1.22                   REC # / TYPE / VERS
60041226 TRM41249.00 NONE                                   ANT # / TYPE
  -749616.2322 -5573524.4459  2999022.5648                  APPROX POSITION XYZ
        2.0010        0.0000        0.0000                  ANTENNA: DELTA H/E/N
     1     1                                                WAVELENGTH FACT L1/2
     5    L1    L2    C1    P1    P2                        # / TYPES OF OBSERV
    15                                                      LEAP SECONDS
  2011     8    23     0     0   30.0000000     GPS         TIME OF FIRST OBS
                                                            END OF HEADER
 11  8 23  0  0 30.0000000  0  9G10G12G17G09G05G04G25G02G30
 -44795167.18457 -34882956.44955  20961693.8914                   20961693.8594
 -30534194.99657 -23771253.01155  21709620.8444                   21709619.9414
 -81184541.51257 -63236933.97654  23098405.2814                   23098405.2734
 -36014936.74656 -28019490.35754  23486941.0944                   23486944.0474
 -22764198.59857 -17716771.80555  22298510.4064                   22298511.0354
 -64870556.30157 -50524526.73655  21549929.1414                   21549928.8364
  -1896849.63356  -1458261.17853  24517035.7734                   24517039.0904
 -52866167.24657 -41154278.34456  20699028.3444                   20699025.4734
   -675273.38715                  24358413.516
 11  8 23  0  1  0.0000000  0  9G10G12G17G09G05G04G25G02G30
 -44874822.68047 -34945025.65445  20946535.9534                   20946535.8594
 -30672041.16047 -23878665.58645  21683389.6484                   21683388.4734
 -81205685.39847 -63253409.81044  23094381.5004                   23094382.2974
 -36011138.39546 -28016530.69044  23487664.1564                   23487666.9694
 -22929068.16847 -17845241.51745  22267136.4144                   22267137.1024
 -64867050.91047 -50521795.29545  21550596.3914                   21550596.1604
  -2069764.89846  -1593000.33043  24484131.9304                   24484134.0274
 -52941757.12147 -41213179.51446  20684644.0084                   20684641.0554
   -850213.17245   -646877.17652  24325123.5554                   24325123.3444
 11  8 23  0  1 30.0000000  0  9G10G12G17G09G05G04G25G02G30
 -44953779.59047 -35006550.48145  20931511.1334                   20931510.9304
 -30809423.45747 -23985716.71746  21657246.9224                   21657245.5274
 -81226608.17247 -63269713.29844  23090400.3834                   23090400.7304
 -36007045.92246 -28013341.86544  23488443.2814                   23488445.5474
 -23093600.98847 -17973448.81645  22235826.9774                   22235827.5434
 -64863305.21947 -50518876.57745  21551309.0634                   21551309.1604
  -2242473.76646  -1727578.55543  24451266.1644                   24451269.1764
 -53016968.37947 -41271785.66246  20670331.6334                   20670329.0594
  -1024884.25846   -782984.43143  24291884.7114                   24291883.8524
 11  8 23  0  2  0.0000000  0  9G10G12G17G09G05G04G25G02G30
 -45032037.98847 -35067531.01346  20916619.0474                   20916618.8714
 -30946340.32047 -24092405.16845  21631192.6024                   21631191.0514
 -81247309.53547 -63285844.31244  23086460.6954                   23086461.2034
 -36002664.00046 -28009927.50144  23489276.9924                   23489279.5354
 -23257794.81247 -18101391.95345  22204582.0474                   22204582.6804
 -64859322.07047 -50515772.85045  21552067.1484                   21552067.2304
  -2414974.55546  -1861994.65943  24418440.1564                   24418443.0434
 -53091802.88347 -41330098.23146  20656091.0004                   20656088.3674
  -1199284.60946   -918880.79742  24258696.6094                   24258696.2194
 11  8 23  0  2 30.0000000  0  9G10G12G17G09G05G04G25G02G30
 -45109591.32447 -35127962.16245  20901861.3284                   20901860.8484
 -31082782.79347 -24198723.96245  21605228.3054                   21605227.2114
 -81267782.61747 -63301797.39344  23082565.2344                   23082565.3204
 -35997989.69946 -28006285.29043  23490166.5474                   23490169.2034
 -23421640.85247 -18229064.10645  22173402.9774                   22173403.8204
 -64855097.52347 -50512481.01845  21552870.9144                   21552871.0904
  -2587258.60546  -1996241.93943  24385655.5474                   24385657.8014
 -53166255.57048 -41388113.30346  20641922.9064                   20641920.5634
  -1373405.39845  -1054559.27742  24225562.9844                   24225562.3324
 11  8 23  0  3  0.0000000  0  9G10G12G17G09G05G04G25G02G30
 -45186437.41447 -35187842.22046  20887237.9614                   20887237.8094
 -31218747.23847 -24304670.26645  21579354.8444                   21579354.3364
 -81288025.66847 -63317571.25644  23078713.4774                   23078712.9024
 -35993024.83246 -28002416.65843  23491111.9144                   23491113.7854
 -23585134.53147 -18356461.68245  22142290.7664                   22142292.0864
 -64850632.39547 -50509001.71545  21553720.4064                   21553720.6484
  -2759322.05546  -2130317.24643  24352912.9844                   24352915.7384
 -53240326.26247 -41445830.70846  20627828.0164                   20627825.3954
  -1547242.48446  -1190016.66042  24192482.6804                   24192482.1524
 11  8 23  0  3 30.0000000  0  9G10G12G17G09G05G04G25G02G30
 -45262579.10947 -35247173.38846  20872748.4304                   20872748.1954
 -31354234.64147 -24410244.85245  21553572.6174                   21553571.5554
 -81308041.13747 -63333167.78044  23074904.5634                   23074904.6644
 -35987775.99246 -27998326.77744  23492110.4774                   23492113.1454
 -23748276.57047 -18483585.24045  22111245.6724                   22111246.8554
 -64845931.62947 -50505338.80745  21554615.3674                   21554615.2974
  -2931165.55146  -2264221.25343  24320212.8364                   24320214.7774
 -53314019.11347 -41503253.70046  20613804.7194                   20613802.0784
  -1720796.14846  -1325253.22742  24159456.6174                   24159456.1334
 11  8 23  0  4  0.0000000  0  9G10G12G17G09G05G04G25G02G30
 -45338013.46547 -35305953.37546  20858393.8984                   20858393.4024
 -31489239.96147 -24515443.80346  21527881.5474                   21527880.6524
 -81327826.10947 -63348584.70444  23071139.0164                   23071139.6684
 -35982244.44546 -27994016.59844  23493163.1254                   23493165.8954
 -23911061.39847 -18610430.47145  22080269.1724                   22080269.9774
 -64840995.34447 -50501492.34845  21555554.7114                   21555555.0274
  -3102784.17646  -2397950.06543  24287554.5634                   24287556.6024
 -53387333.07848 -41560381.44246  20599853.3444                   20599850.9414
  -1894061.42246  -1460265.07042  24126484.4844                   24126484.7934
 11  8 23  0  4 30.0000000  0  9G10G12G17G09G05G04G25G02G30
 -45412739.72748 -35364181.62046  20844173.5004                   20844173.1884
 -31623760.97347 -24620265.35146  21502283.3914                   21502282.3634
 -81347380.13747 -63363821.66244  23067418.5634                   23067418.6374
 -35976433.45746 -27989488.65443  23494268.9454                   23494272.0474
 -24073486.04747 -18736995.03745  22049360.7114                   22049361.6214
 -64835825.38347 -50497463.82245  21556538.4144                   21556538.6884
  -3274175.32046  -2531501.53243  24254939.2734                   24254941.9534
 -53460268.90247 -41617214.54446  20585974.1804                   20585971.3714
  -2067035.39546  -1595049.95643  24093568.8754                   24093568.9224
 11  8 23  0  5  0.0000000  0  9G10G12G17G09G05G04G25G02G30
 -45486757.97347 -35421858.16746  20830088.4694                   20830088.6294
 -31757795.25447 -24724707.66046  21476777.5084                   21476776.8954
 -81366702.50847 -63378878.09844  23063741.7504                   23063741.9964
 -35970346.54346 -27984745.76643  23495427.4774                   23495430.5314
 -24235547.68447 -18863276.74445  22018521.1174                   22018521.9494
 -64830424.09447 -50493255.02745  21557566.3444                   21557566.4804
  -3445336.49646  -2664873.87143  24222368.5474                   24222371.1764
 -53532827.90647 -41673754.00646  20572166.4614                   20572163.8984
  -2239715.28146  -1729605.62142  24060709.1644                   24060708.5234
 11  8 23  0  5 30.0000000  0  9G10G12G17G09G05G04G25G02G30
 -45560063.60947 -35478979.41846  20816138.8524                   20816139.0744
 -31891336.66847 -24828765.88346  21451365.2894                   21451364.4454
 -81385788.68447 -63393750.49644  23060109.8914                   23060109.5824
 -35963983.46546 -27979787.63843  23496638.1094                   23496641.3834
 -24397239.83647 -18989270.52245  21987751.8524                   21987753.1724
 -64824789.60947 -50488864.54545  21558638.5234                   21558638.4964
  -3616261.50046  -2798062.10043  24189843.0784                   24189845.7274
 -53605007.39847 -41729997.75546  20558431.1334                   20558428.4964
  -2412094.54346  -1863927.03142  24027905.9924                   24027906.6844
 11  8 23  0  6  0.0000000  0  9G10G12G17G09G05G04G25G02G30
 -45632657.60547 -35535546.13946  20802324.9454                   20802324.4104
 -32024384.13347 -24932439.23446  21426047.1024                   21426046.6844
 -81404639.84447 -63408439.76544  23056522.5394                   23056522.7774
 -35957349.02046 -27974618.00843  23497900.0864                   23497904.0664
 -24558560.62947 -19114974.94245  21957053.4614                   21957054.4304
 -64818925.38747 -50484295.04845  21559754.7424                   21559754.1134
  -3786948.93446  -2931065.29543  24157362.1724                   24157364.8754
 -53676809.93447 -41785947.76946  20544767.7814                   20544765.0634
  -2584171.86346  -1998013.21542  23995161.5234                   23995160.7424
 11  8 23  0  6 30.0000000  0  9G10G12G17G09G05G04G25G02G30
 -45704538.19547 -35591556.96946  20788646.3834                   20788646.3524
 -32156934.00847 -25035724.83746  21400823.6094                   21400823.2034
 -81423253.93047 -63422944.31644  23052980.4064                   23052980.7814
 -35950444.94146 -27969238.33443  23499214.8284                   23499218.0784
 -24719506.12947 -19240386.91745  21926426.4304                   21926427.5514
 -64812832.10547 -50479547.04345  21560914.1094                   21560913.9384
  -3957394.93746  -3063880.33743  24124927.3054                   24124930.0944
 -53748235.43047 -41841603.97246  20531175.9304                   20531173.6954
  -2755942.84746  -2131860.74443  23962474.1644                   23962473.8244
 11  8 23  0  7  0.0000000  0  9G10G12G17G09G05G04G25G02G30
 -45775708.52047 -35647014.34046  20775103.2894                   20775102.8284
 -32288987.03947 -25138623.29646  21375694.8364                   21375694.1294
 -81441633.46547 -63437266.07144  23049483.5474                   23049483.5664
 -35943278.05546 -27963653.81643  23500578.6564                   23500581.6174
 -24880076.70747 -19365506.75745  21895871.0164                   21895872.2734
 -64806514.95347 -50474624.59745  21562116.2034                   21562116.1024
  -4127600.22346  -3196507.78543  24092538.4774                   24092541.1484
 -53819288.03547 -41896969.63846  20517654.8444                   20517652.4734
  -2927408.24646  -2265469.93843  23929845.4774                   23929845.0394
 11  8 23  0  7 30.0000000  0  9G10G12G17G09G05G04G25G02G30
 -45846170.21947 -35701919.54345  20761694.4924                   20761694.3094
 -32420542.65247 -25241134.15046  21350660.4774                   21350660.0474
 -81459779.77747 -63451406.11644  23046029.7344                   23046029.9144
 -35935853.69946 -27957868.71443  23501991.5004                   23501994.4804
 -25040271.13347 -19490333.47445  21865386.8914                   21865387.9734
 -64799977.89147 -50469530.78945  21563360.1804                   21563360.2114
  -4297563.98847  -3328947.04343  24060195.2274                   24060197.9734
 -53889970.72747 -41952047.04846  20504204.6884                   20504201.6914
  -3098566.82046  -2398840.32543  23897275.1724                   23897274.7544
 11  8 23  0  8  0.0000000  0  9G10G12G17G09G05G04G25G02G30
 -45915922.04747 -35756271.59045  20748421.7194                   20748420.8244
 -32551597.85247 -25343255.06246  21325721.9064                   21325720.8834
 -81477691.28147 -63465363.20844  23042620.9454                   23042621.7584
 -35928174.62146 -27951885.15443  23503452.8834                   23503454.9654
 -25200085.58647 -19614864.12546  21834975.2974                   21834976.2304
 -64793222.04747 -50464266.51645  21564645.4614                   21564645.6914
  -4467282.96147  -3461195.53943  24027899.1954                   24027901.2274
 -53960283.99247 -42006836.59546  20490824.1954                   20490821.7704
  -3269415.03546  -2531968.76443  23864763.2274                   23864763.4454
 11  8 23  0  8 30.0000000  0  9G10G12G17G09G05G04G25G02G30
 -44409539.39847 -34582466.92646  21035076.2664                   21035075.8404
 -31106723.44547 -24217378.88846  21600672.2194                   21600671.5664
 -79919945.06647 -62251535.05144  23339050.4384                   23339051.6604
 -34344822.20746 -26718104.12043  23804754.8914                   23804757.3054
 -23784089.96147 -18511490.79945  22104430.1414                   22104430.8834
 -63210827.79347 -49231232.04645  21865765.0314                   21865765.5784
  -3061326.73047  -2365645.24343  24295443.6024                   24295445.5164
 -52454804.14547 -40833735.42146  20777307.9224                   20777304.7774
  -1864522.37146  -1437247.17743  24132105.6254                   24132106.0704
 11  8 23  0  9  0.0000000  0  9G10G12G17G09G05G04G25G02G30
 -44477867.12947 -34635709.27546  21022073.9064                   21022073.7154
 -31236766.85547 -24318711.38446  21575925.7424                   21575925.0204
 -79937382.10246 -62265122.42644  23335731.8594                   23335732.8134
 -34336639.62147 -26711728.15343  23806312.6094                   23806314.2384
 -23943132.62947 -18635420.05145  22074165.0394                   22074165.7854
 -63203636.91447 -49225628.78945  21867133.4304                   21867133.6334
  -3230544.51246  -2497503.24844  24263241.9534                   24263244.7584
 -52524377.65647 -40887948.53946  20764068.1804                   20764065.4024
  -2034737.79746  -1569882.54742  24099714.0234                   24099715.1054
 11  8 23  0  9 30.0000000  0  9G10G12G17G09G05G04G25G02G30
 -44545478.89547 -34688393.75645  21009208.0634                   21009207.5984
 -31366297.19547 -24419644.08746  21551276.7664                   21551276.3754
 -79954577.34047 -62278521.37244  23332461.0314                   23332461.3324
 -34328206.83247 -26705157.21843  23807917.3444                   23807919.6484
 -24101781.26247 -18759042.26445  22043975.0554                   22043975.7854
 -63196227.80147 -49219855.47445  21868543.7114                   21868543.9804
  -3399504.16847  -2629160.10944  24231090.5004                   24231092.9344
 -52593579.60548 -40941872.13046  20750899.2504                   20750897.1294
  -2204628.91446  -1702265.17743  24067385.7344                   24067386.1294
 11  8 23  0 10  0.0000000  0  9G10G12G17G09G05G04G25G02G30
 -44612380.35247 -34740524.76145  20996477.3054                   20996476.5394
 -31495318.02047 -24520179.76646  21526725.4144                   21526724.6684
 -79971535.94147 -62291735.92444  23329233.1414                   23329234.2544
 -34319533.08247 -26698398.55543  23809567.5944                   23809570.4844
 -24260038.94547 -18882359.84345  22013859.9064                   22013860.3244
 -63188608.45747 -49213918.35145  21869993.8524                   21869993.6414
  -3568208.89546  -2760618.32744  24198986.8444                   24198989.6604
 -52662417.11747 -40995511.75346  20737800.1254                   20737797.3204
  -2374198.75446  -1834397.50643  24035118.0784                   24035117.9344
 11  8 23  0 10 30.0000000  0  9G10G12G17G09G05G04G25G02G30
 -44678571.10547 -34792101.97045  20983881.3594                   20983880.9884
 -31623827.35547 -24620316.88146  21502270.9454                   21502270.0904
 -79988257.41846 -62304765.73344  23326051.2034                   23326051.7624
 -34310621.87547 -26691454.86643  23811263.3984                   23811266.2774
 -24417903.11347 -19005370.79445  21983819.1954                   21983819.6724
 -63180780.92647 -49207819.00445  21871483.3444                   21871483.1214
  -3736656.22346  -2891875.96444  24166932.0554                   24166934.3914
 -52730891.19947 -41048868.17846  20724770.2584                   20724767.2074
  -2543444.64146  -1966277.38743  24002911.4694                   24002911.0634
 11  8 23  0 11  0.0000000  0  9G10G12G17G09G05G04G25G02G30
 -44744051.05147 -34843125.29745  20971420.9694                   20971421.0124
 -31751822.27047 -24720053.11846  21477914.1334                   21477913.0124
 -80004740.99647 -62317610.10044  23322915.2814                   23322914.5514
 -34301476.24246 -26684328.50743  23813004.0314                   23813006.9804
 -24575370.56247 -19128072.62545  21953854.0394                   21953854.5314
 -63172746.58247 -49201558.50145  21873012.1484                   21873012.0784
  -3904843.07046  -3022930.62043  24134927.3364                   24134929.3094
 -52799002.55547 -41101941.95046  20711808.8524                   20711806.3524
  -2712363.33246  -2097902.35143  23970767.2034                   23970767.2114
 11  8 23  0 11 30.0000000  0  9G10G12G17G09G05G04G25G02G30
 -44808822.61347 -34893596.63445  20959095.5554                   20959094.9344
 -31879302.59447 -24819388.40746  21453655.2584                   21453654.6024
 -80020988.54747 -62330270.59444  23319823.5944                   23319823.6334
 -34292102.02046 -26677024.02143  23814788.5394                   23814790.7034
 -24732440.71947 -19250464.84045  21923964.6804                   21923964.9144
 -63164510.09447 -49195140.48245  21874579.0704                   21874579.4534
  -4072769.34846  -3153782.26043  24102972.1334                   24102974.2664
 -52866754.97748 -41154736.04546  20698915.6884                   20698913.6844
  -2880954.41046  -2229271.96943  23938684.7194                   23938685.4804
 11  8 23  0 12  0.0000000  0  9G10G12G17G09G05G04G25G02G30
 -44872880.72348 -34943512.03345  20946905.2584                   20946904.8094
 -32006261.59047 -24918317.46546  21429496.1094                   21429494.7544
 -80036994.43447 -62342742.75844  23316777.6094                   23316777.7114
 -34282497.38746 -26669540.00643  23816615.4924                   23816618.7424
 -24889105.55147 -19372541.25445  21894152.6884                   21894152.9264
 -63156068.25847 -49188562.44545  21876185.9224                   21876185.7424
  -4240427.46546  -3284424.89543  24071067.0944                   24071069.6134
 -52934144.58647 -41207247.41946  20686091.9534                   20686089.8444
  -3049210.09446  -2360380.35243  23906666.7584                   23906667.4344
 11  8 23  0 12 30.0000000  0  9G10G12G17G09G05G04G25G02G30
 -44936227.81648 -34992873.39846  20934850.9774                   20934850.6884
 -32132699.77347 -25016840.69246  21405435.1724                   21405434.1604
 -80052760.59847 -62355028.15144  23313777.3444                   23313777.6414
 -34272668.42647 -26661881.18644  23818486.0944                   23818489.8284
 -25045365.35947 -19494302.05145  21864417.1644                   21864417.7734
 -63147425.79747 -49181828.10145  21877830.5004                   21877830.3554
  -4407817.51646  -3414858.64243  24039213.9224                   24039216.8794
 -53001175.20347 -41259479.07246  20673336.7974                   20673334.3014
  -3217130.28946  -2491227.31243  23874713.0084                   23874713.2304
 11  8 23  0 13  0.0000000  0  9G10G12G17G09G05G04G25G02G30
 -44998864.80947 -35041681.44145  20922931.3444                   20922930.7344
 -32258615.35947 -25114956.72246  21381474.5164                   21381473.3484
 -80068287.73447 -62367127.27544  23310822.5784                   23310822.5274
 -34262619.48046 -26654050.91443  23820397.5944                   23820401.8554
 -25201217.73447 -19615745.37846  21834758.9534                   21834759.4144
 -63138585.19947 -49174939.34445  21879512.8674                   21879512.6454
  -4574937.56646  -3545082.02943  24007412.1414                   24007415.0004
 -53067848.93747 -41311432.61946  20660648.9304                   20660646.4494
  -3384712.87146  -2621811.11943  23842823.3524                   23842823.1484
 11  8 23  0 13 30.0000000  0  9G10G12G17G09G05G04G25G02G30
 -45060791.36347 -35089935.90045  20911147.3284                   20911146.6994
 -32384005.76647 -25212663.52046  21357613.5944                   21357612.4774
 -80083574.55947 -62379039.13644  23307913.8134                   23307913.5744
 -34252353.36746 -26646051.48443  23822351.2274                   23822355.3284
 -25356659.53147 -19736868.77145  21805179.6724                   21805179.6254
 -63129548.27347 -49167897.60945  21881232.6724                   21881232.5824
  -4741784.52046  -3675092.55943  23975662.6724                   23975664.2934
 -53134166.23447 -41363108.43646  20648029.5004                   20648026.8324
  -3551954.58646  -2752129.30943  23810998.2504                   23810998.3014
 11  8 23  0 14  0.0000000  0  9G10G12G17G09G05G04G25G02G30
 -45122004.77348 -35137634.62645  20899498.4144                   20899498.1334
 -32508865.58647 -25309956.87146  21333852.8984                   21333852.2934
 -80098617.77047 -62390761.14644  23305051.2584                   23305051.1564
 -34241870.45346 -26637883.12043  23824347.1094                   23824349.7114
 -25511685.21147 -19857667.93245  21775679.0394                   21775679.0164
 -63120313.69547 -49160701.87845  21882989.6094                   21882989.9534
  -4908352.93746  -3804886.06643  23943965.3524                   23943967.2384
 -53200125.48847 -41414505.24146  20635477.8364                   20635475.0354
  -3718849.66846  -2882177.40943  23779239.2894                   23779238.7034
 11  8 23  0 14 30.0000000  0  9G10G12G17G09G05G04G25G02G30
 -45182509.36348 -35184781.04445  20887984.6954                   20887984.6484
 -32633197.70347 -25406839.03046  21310193.6254                   21310192.4104
 -80113421.06247 -62402296.24044  23302234.2114                   23302233.9804
 -34231178.66846 -26629551.95143  23826381.2584                   23826384.9454
 -25666296.40247 -19978144.10146  21746257.7894                   21746258.0164
 -63110888.10947 -49153357.32745  21884783.5864                   21884784.0474
  -5074644.65246  -3934463.98143  23912321.4924                   23912323.2894
 -53265732.59447 -41465627.65546  20622993.0784                   20622990.2814
  -3885399.78546  -3011956.69543  23747546.0164                   23747545.3444
 11  8 23  0 15  0.0000000  0  9G10G12G17G09G05G04G25G02G30
 -45242302.10547 -35231372.76446  20876606.7814                   20876606.3834
 -32756995.96147 -25503305.20346  21286635.8134                   21286634.6214
 -80127980.43046 -62413641.23144  23299463.8594                   23299463.5434
 -34220278.16046 -26621058.21043  23828456.0084                   23828459.0984
 -25820486.68447 -20098292.29146  21716915.7974                   21716916.2704
 -63101269.91447 -49145862.64845  21886613.5084                   21886614.2704
  -5240653.60546  -4063821.49543  23880730.5944                   23880732.3554
 -53330984.97347 -41516473.66646  20610575.8444                   20610573.2664
  -4051598.78146  -3141462.34343  23715919.2034                   23715918.8674
 11  8 23  0 15 30.0000000  0  9G10G12G17G09G05G04G25G02G30
 -45301384.14548 -35277410.70045  20865363.7734                   20865363.6174
 -32880259.60247 -25599354.79846  21263179.6954                   21263178.5164
 -80142296.82046 -62424796.95244  23296739.2034                   23296739.6604
 -34209173.46546 -26612405.27944  23830568.9064                   23830573.1564
 -25974254.76647 -20218111.50846  21687654.7584                   21687655.3524
 -63091462.31247 -49138220.41445  21888480.0314                   21888480.2034
  -5406378.37946  -4192957.63943  23849194.1174                   23849196.3984
 -53395885.18447 -41567045.24846  20598226.1724                   20598223.2854
  -4217444.88746  -3270693.00143  23684359.1564                   23684358.9774
 11  8 23  0 16  0.0000000  0  9G10G12G17G09G05G04G25G02G30
 -45359759.98048 -35322898.37146  20854255.5234                   20854255.1804
 -33002990.48847 -25694989.24746  21239824.6024                   21239823.4924
 -80156373.90247 -62435766.16544  23294060.4614                   23294060.8244
 -34197872.11746 -26603599.13243  23832720.3754                   23832723.3364
 -26127601.85947 -20337602.68846  21658473.7194                   21658474.0124
 -63081471.19147 -49130435.18445  21890381.5234                   21890382.0944
  -5571820.45346  -4321873.49443  23817711.8524                   23817713.5784
 -53460438.45747 -41617346.47746  20585941.4614                   20585939.2154
  -4382939.55546  -3399649.84743  23652866.7424                   23652866.8524
 11  8 23  0 16 30.0000000  0  9G10G12G17G09G05G04G25G02G30
 -45417426.22348 -35367833.08345  20843281.8754                   20843281.3954
 -33125182.71147 -25790203.96346  21216571.8914                   21216570.8524
 -80170207.68046 -62446545.78843  23291428.3054                   23291427.8444
 -34186374.10946 -26594639.80444  23834908.4774                   23834911.5434
 -26280521.85247 -20456761.05445  21629373.7034                   21629374.0124
 -63071294.99647 -49122505.72745  21892317.9224                   21892317.8404
  -5736973.75847  -4450564.32044  23786283.7194                   23786285.9654
 -53524642.79747 -41667375.82846  20573724.3914                   20573721.5664
  -4548076.37146  -3528327.78443  23621441.7664                   23621442.2074
 11  8 23  0 17  0.0000000  0  9G10G12G17G09G05G04G25G02G30
 -45474388.74248 -35412219.44846  20832442.4064                   20832441.9734
 -33246840.23047 -25885002.01446  21193421.2664                   21193420.4734
 -80183803.29746 -62457139.86843  23288840.2194                   23288840.9924
 -34174688.32446 -26585534.10644  23837131.9774                   23837135.0554
 -26433017.68047 -20575588.88445  21600355.1094                   21600355.1604
 -63060941.23047 -49114437.91745  21894288.2344                   21894288.0784
  -5901841.27746  -4579032.46944  23754910.5944                   23754912.8364
 -53588504.77347 -41717138.39146  20561571.5554                   20561568.3754
  -4712858.28946  -3656729.18643  23590085.4224                   23590085.3914
 11  8 23  0 17 30.0000000  0  9G10G12G17G09G05G04G25G02G30
 -45530642.40247 -35456053.46046  20821737.1334                   20821736.8834
 -33367955.05947 -25979377.20646  21170373.8524                   21170373.0204
 -80197154.46146 -62467543.45344  23286299.9144                   23286301.0314
 -34162812.44546 -26576280.28143  23839391.6414                   23839395.3594
 -26585080.67647 -20694079.47346  21571418.4454                   21571418.5204
 -63050405.98447 -49106228.71044  21896292.0554                   21896292.7734
  -6066414.55946  -4707271.34544  23723593.5164                   23723595.4144
 -53652019.95747 -41766630.73246  20549484.9774                   20549482.2194
  -4877276.66046  -3784847.31943  23558797.2504                   23558796.9264
 11  8 23  0 18  0.0000000  0  9G10G12G17G09G05G04G25G02G30
 -45586187.05948 -35499335.00446  20811167.5704                   20811167.0354
 -33488524.53547 -26073327.43346  21147430.7894                   21147429.4454
 -80210260.18446 -62477755.77544  23283806.2504                   23283807.3984
 -34150749.49646 -26566880.70444  23841688.0704                   23841691.4924
 -26736707.93047 -20812230.51845  21542564.7114                   21542565.1954
 -63039690.74647 -49097879.23644  21898332.0704                   21898331.4304
  -6230690.61346  -4835278.56643  23692332.5474                   23692334.1644
 -53715189.05547 -41815853.38346  20537464.4304                   20537461.4224
  -5041328.27046  -3912679.67843  23527579.5004                   23527578.9184
 11  8 23  0 18 30.0000000  0  9G10G12G17G09G05G04G25G02G30
 -45641022.80148 -35542064.15246  20800732.8204                   20800732.2734
 -33608546.18747 -26166850.78546  21124590.9534                   21124590.3634
 -80223119.49646 -62487776.08644  23281359.1724                   23281360.3284
 -34138502.06646 -26557337.35643  23844018.5164                   23844022.2074
 -26887896.13747 -20930039.42546  21513793.9454                   21513794.7344
 -63028796.85947 -49089390.52144  21900405.3754                   21900404.6414
  -6394666.40246  -4963051.85943  23661128.5234                   23661131.4344
 -53778012.67247 -41864806.84346  20525509.4694                   20525506.6524
  -5205009.91046  -4040223.70243  23496431.7584                   23496430.8244
 11  8 23  0 19  0.0000000  0  9G10G12G17G09G05G04G25G02G30
 -45695153.91448 -35584244.25445  20790432.0084                   20790431.4964
 -33728022.02747 -26259948.85646  21101856.0554                   21101854.4774
 -80235736.16446 -62497607.35044  23278958.3364                   23278959.3714
 -34126077.82046 -26547656.28443  23846382.0394                   23846386.2114
 -27038646.78147 -21047507.40145  21485107.1334                   21485107.5664
 -63017730.42647 -49080767.39444  21902510.6644                   21902510.9064
  -6558343.53546  -5090592.43543  23629982.4454                   23629984.2544
 -53840496.59047 -41913495.60446  20513619.0864                   20513616.1914
  -5368323.08246  -4167480.72243  23465354.1954                   23465353.9694
 11  8 23  0 19 30.0000000  0  9G10G12G17G09G05G04G25G02G30
 -45748581.21148 -35625875.90945  20780264.8594                   20780264.8054
 -33846950.56247 -26352620.42346  21079224.1884                   21079223.0704
 -80248109.95746 -62507249.30744  23276603.7344                   23276604.9024
 -34113480.36346 -26537840.18043  23848779.6724                   23848783.8324
 -27188957.44147 -21164632.51345  21456504.0784                   21456504.0434
 -63006493.59847 -49072011.47744  21904649.6024                   21904649.2704
  -6721719.55946  -5217898.39443  23598892.7664                   23598895.4614
 -53902641.99647 -41961920.57046  20501793.2894                   20501790.4264
  -5531265.05946  -4294448.46243  23434348.0004                   23434347.1844
 11  8 23  0 20  0.0000000  0  9G10G12G17G09G05G04G25G02G30
 -44225881.57048 -34439356.70245  21070025.1644                   21070024.5664
 -32389904.05947 -25217259.50246  21356490.9534                   21356490.4654
 -78684818.59046 -61289100.25944  23574088.4384                   23574089.3674
 -32525292.00046 -25300290.94443  24151002.0704                   24151005.9774
 -25763398.99647 -20053807.68445  21727778.8364                   21727779.2074
 -61419666.96547 -47835523.20945  22206612.5554                   22206612.9384
  -5309364.79747  -4117362.17244  23867654.8754                   23867657.0354
 -52389026.89847 -40782480.22146  20789824.6484                   20789821.5394
  -4118406.22346  -3193519.41743  23703205.6174                   23703204.5664
 11  8 23  0 20 30.0000000  0  9G10G12G17G09G05G04G25G02G30
 -44277904.79747 -34479894.26845  21060125.3674                   21060125.2894
 -32507733.76647 -25309074.83746  21334068.4924                   21334068.0824
 -78696707.74246 -61298364.53944  23571826.2034                   23571826.5664
 -32512360.85546 -25290214.89543  24153462.4064                   24153466.1134
 -25912824.10247 -20170242.77345  21699344.3364                   21699344.3404
 -61408097.07047 -47826507.75445  22208814.0234                   22208814.6724
  -5472133.07446  -4244194.55344  23836680.5634                   23836683.3014
 -52450501.91848 -40830382.82846  20778126.3754                   20778123.5124
  -4280600.05146  -3319904.13543  23672340.9614                   23672340.0234
 11  8 23  0 21  0.0000000  0  9G10G12G17G09G05G04G25G02G30
 -44329227.41448 -34519885.91845  21050359.0634                   21050358.5514
 -32625011.48847 -25400460.05846  21311751.3594                   21311750.7774
 -78708354.59046 -61307440.05944  23569609.4614                   23569611.1294
 -32499268.36746 -25280013.07043  24155954.8594                   24155957.4924
 -26061803.09047 -20286330.23446  21670994.2734                   21670994.7704
 -61396363.90647 -47817365.06845  22211047.4224                   22211047.4964
  -5634594.15247  -4370787.57944  23805765.7344                   23805767.8284
 -52511644.02048 -40878026.01146  20766491.2734                   20766488.5634
  -4442416.15646  -3445994.61443  23641548.3364                   23641547.8204
 11  8 23  0 21 30.0000000  0  9G10G12G17G09G05G04G25G02G30
 -44379840.49647 -34559324.70445  21040727.9064                   21040727.2234
 -32741725.77047 -25491406.22646  21289541.7274                   21289540.6214
 -78719748.56646 -61316318.53044  23567441.2344                   23567442.6524
 -32486008.00046 -25269680.46343  24158478.8914                   24158480.5664
 -26210323.56247 -20402060.40446  21642731.6724                   21642732.0434
 -61384459.50447 -47808088.94645  22213312.9144                   22213312.7624
  -5796735.57846  -4497131.51544  23774911.2664                   23774913.4614
 -52572444.91048 -40925403.32846  20754921.3284                   20754918.2304
  -4603841.92246  -3571780.91743  23610829.7194                   23610829.6844
 11  8 23  0 22  0.0000000  0  9G10G12G17G09G05G04G25G02G30
 -44429755.21547 -34598219.28245  21031229.4614                   21031229.0824
 -32857885.28147 -25581920.11246  21267437.3134                   21267436.0084
 -78730900.30546 -61325008.21144  23565319.7664                   23565320.4264
 -32472594.34446 -25259228.33343  24161030.9774                   24161033.0944
 -26358393.57447 -20517439.58046  21614554.9614                   21614555.2034
 -61372396.69547 -47798689.33945  22215608.1724                   22215608.3444
  -5958565.62947  -4623232.79944  23744115.7034                   23744118.7304
 -52632916.74648 -40972524.23946  20743414.2974                   20743411.2304
  -4764885.56246  -3697269.40343  23580184.3834                   23580184.1094
 11  8 23  0 22 30.0000000  0  9G10G12G17G09G05G04G25G02G30
 -44478968.09847 -34636566.99245  21021864.1724                   21021864.0474
 -32973484.32047 -25671997.26246  21245439.1804                   21245438.1994
 -78741805.62946 -61333505.92744  23563244.3364                   23563245.3954
 -32459026.70747 -25248656.29643  24163612.7584                   24163615.3714
 -26506007.10947 -20632463.06546  21586465.2344                   21586465.4344
 -61360173.41847 -47789164.72645  22217933.5314                   22217934.0434
  -6120077.98847  -4749086.55544  23713381.3914                   23713383.8484
 -52693056.59848 -41019386.46246  20731969.8834                   20731966.9654
  -4925540.60946  -3822455.10843  23549612.3834                   23549611.8754
 11  8 23  0 23  0.0000000  0  9G10G12G17G09G05G04G25G02G30
 -44527481.02047 -34674369.26945  21012632.7344                   21012632.1914
 -33088522.13347 -25761637.09446  21223548.8834                   21223547.2854
 -78752465.39146 -61341812.24743  23561215.7274                   23561216.2344
 -32445309.64847 -25237967.87843  24166223.7114                   24166225.2194
 -26653162.54747 -20747129.57346  21558462.1414                   21558462.5784
 -61347792.43747 -47779517.22345  22220290.1414                   22220290.3554
  -6281270.97747  -4874691.44243  23682707.3754                   23682709.5744
 -52752867.04748 -41065992.01346  20720588.3134                   20720585.9304
  -5085805.27046  -3947336.60043  23519114.7974                   23519114.9534
 11  8 23  0 23 30.0000000  0  9G10G12G17G09G05G04G25G02G30
 -44575293.47747 -34711625.75145  21003534.3914                   21003533.8244
 -33202995.34848 -25850836.98346  21201764.6254                   21201763.1094
 -78762877.51246 -61349925.58643  23559234.7814                   23559235.6024
 -32431444.89146 -25227164.28743  24168861.0704                   24168864.5904
 -26799855.85248 -20861435.98346  21530547.3524                   21530547.6644
 -61335254.23447 -47769747.22245  22222675.9454                   22222676.3794
  -6442140.66047  -5000044.44344  23652095.3364                   23652097.5984
 -52812347.94948 -41112340.76246  20709269.2424                   20709266.4924
  -5245675.37546  -4071910.73143  23488692.9694                   23488691.9024
 11  8 23  0 24  0.0000000  0  9G10G12G17G09G05G04G25G02G30
 -44622404.00048 -34748335.24545  20994569.3834                   20994568.9144
 -33316899.35548 -25939593.33346  21180089.7034                   21180088.2664
 -78773039.32046 -61357843.88543  23557300.2504                   23557301.0824
 -32417433.65245 -25216246.64843  24171527.3134                   24171530.7504
 -26946082.24648 -20975378.56346  21502721.2974                   21502721.6174
 -61322558.26247 -47759854.27044  22225092.0554                   22225092.2664
  -6602682.04347  -5125141.58344  23621544.6804                   23621547.1564
 -52871498.35548 -41158431.99646  20698013.3134                   20698010.2704
  -5405145.77746  -4196173.32243  23458346.0314                   23458345.9184
 11  8 23  0 24 30.0000000  0  9G10G12G17G09G05G04G25G02G30
 -44668818.10247 -34784502.09645  20985737.1564                   20985736.3594
 -33430237.61348 -26027908.83846  21158521.9144                   21158520.5124
 -78782955.29746 -61365570.63343  23555413.0704                   23555414.7734
 -32403283.84445 -25205221.01443  24174220.7034                   24174223.4184
 -27091843.62947 -21088958.80746  21474984.2344                   21474984.2274
 -61309711.20347 -47749843.59844  22227536.8674                   22227536.8754
  -6762897.35946  -5249984.63144  23591056.8054                   23591059.3054
 -52930324.36348 -41204270.43946  20686818.9844                   20686816.0274
  -5564218.61746  -4320126.16243  23428075.8754                   23428075.9454
 11  8 23  0 25  0.0000000  0  9G10G12G17G09G05G04G25G02G30
 -44714534.83647 -34820125.53145  20977037.3444                   20977037.3984
 -33543006.50848 -26115780.69546  21137062.7424                   21137061.6094
 -78792623.60546 -61373104.42543  23553573.3674                   23553574.4734
 -32388997.46145 -25194088.90243  24176938.7424                   24176943.5824
 -27237136.14548 -21202173.69446  21447335.6884                   21447335.8874
 -61296713.05147 -47739715.20345  22230010.5164                   22230010.3204
  -6922782.37947  -5374570.35044  23560631.7734                   23560634.5824
 -52988825.53548 -41249855.77246  20675686.6024                   20675683.8594
  -5722889.53946  -4443765.77943  23397882.7814                   23397881.9654
 11  8 23  0 25 30.0000000  0  9G10G12G17G09G05G04G25G02G30
 -44759556.91447 -34855207.68045  20968470.1484                   20968470.1254
 -33655205.72748 -26203208.62346  21115711.8204                   21115710.9344
 -78802045.77046 -61380446.42643  23551781.1094                   23551781.6174
 -32374579.73846 -25182854.50443  24179682.2274                   24179687.0904
 -27381959.18048 -21315022.74046  21419776.9064                   21419776.7814
 -61283567.42247 -47729471.89645  22232512.2974                   22232511.3164
  -7082336.48047  -5498898.15844  23530269.2894                   23530271.6254
 -53047005.03148 -41295190.44946  20664615.6174                   20664612.6914
  -5881157.79346  -4567091.67843  23367764.7894                   23367764.3594
 11  8 23  0 26  0.0000000  0  9G10G12G17G09G05G04G25G02G30
 -44803885.42247 -34889749.36546  20960034.8674                   20960034.4574
 -33766834.27748 -26290191.90346  21094469.4774                   21094469.0044
 -78811221.39146 -61387596.30743  23550034.8284                   23550036.3164
 -32360034.14546 -25171520.37543  24182450.1484                   24182454.9264
 -27526310.32048 -21427504.09246  21392307.6254                   21392307.6684
 -61270276.51247 -47719115.36644  22235041.0474                   22235040.6174
  -7241557.21147  -5622966.25344  23499970.1724                   23499973.2854
 -53104864.35248 -41340275.62146  20653604.9064                   20653602.4924
  -6039020.84046  -4690101.85043  23337724.7034                   23337724.4534
 11  8 23  0 26 30.0000000  0  9G10G12G17G09G05G04G25G02G30
 -44847518.39148 -34923749.06745  20951731.5944                   20951731.5434
 -33877887.38747 -26376726.78346  21073336.8284                   21073336.0904
 -78820147.46546 -61394551.73544  23548336.6254                   23548337.3984
 -32345361.17246 -25160087.10743  24185243.5944                   24185247.8714
 -27670184.41448 -21539613.71146  21364929.2974                   21364928.7304
 -61256839.20347 -47708644.79644  22237597.8524                   22237597.6174
  -7400439.22747  -5746770.37744  23469736.9304                   23469738.8164
 -53162402.00448 -41385110.16146  20642656.4304                   20642653.6524
  -6196473.22346  -4812791.96943  23307761.9694                   23307762.1684
 11  8 23  0 27  0.0000000  0  9G10G12G17G09G05G04G25G02G30
 -44890457.13747 -34957207.81745  20943560.7114                   20943560.1954
 -33988363.34048 -26462811.92546  21052314.2344                   21052312.7584
 -78828823.92246 -61401312.68444  23546685.3284                   23546686.6054
 -32330564.48446 -25148557.37743  24188059.9694                   24188063.3524
 -27813579.22748 -21651349.87846  21337642.0704                   21337641.9804
 -61243257.55947 -47698061.72444  22240181.9614                   22240182.2894
  -7558980.20747  -5870308.77344  23439567.2274                   23439569.5704
 -53219619.48848 -41429695.21546  20631767.6334                   20631765.1454
  -6353512.46546  -4935160.14343  23277878.7734                   23277879.2734
 11  8 23  0 27 30.0000000  0  9G10G12G17G09G05G04G25G02G30
 -44932700.46547 -34990124.67045  20935522.1254                   20935521.5944
 -34098258.76248 -26548444.72346  21031401.6414                   21031400.3954
 -78837248.64146 -61407877.45444  23545082.1094                   23545083.2704
 -32315645.69946 -25136932.51643  24190898.3054                   24190903.0474
 -27956490.58648 -21762709.32646  21310446.6564                   21310446.7934
 -61229531.59047 -47687366.22544  22242794.4454                   22242794.7934
  -7717175.78147  -5993578.02944  23409463.5864                   23409465.7734
 -53276516.85948 -41474030.83846  20620940.7034                   20620938.0664
  -6510134.14146  -5057203.02543  23248074.0634                   23248074.3204
 11  8 23  0 28  0.0000000  0  9G10G12G17G09G05G04G25G02G30
 -44974251.27047 -35022501.89845  20927615.0554                   20927614.8094
 -34207573.46948 -26633624.99246  21010599.6334                   21010598.4654
 -78845423.09046 -61414247.19044  23543527.3364                   23543527.7704
 -32300609.67646 -25125216.30843  24193760.4534                   24193764.2464
 -28098917.82047 -21873691.52546  21283343.5554                   21283343.7074
 -61215664.43447 -47676560.67044  22245433.1954                   22245433.9264
  -7875025.02346  -6116577.40544  23379425.1414                   23379428.4574
 -53333096.71948 -41518119.02946  20610173.9304                   20610171.5354
  -6666337.10246  -5178919.58143  23218349.7734                   23218349.6954
 11  8 23  0 28 30.0000000  0  9G10G12G17G09G05G04G25G02G30
 -45015112.89148 -35054342.09645  20919839.2584                   20919838.6804
 -34316308.00048 -26718353.19346  20989908.1094                   20989907.1374
 -78853348.88746 -61420423.16644  23542019.2114                   23542020.3164
 -32285461.82046 -25113412.94243  24196642.9384                   24196646.6994
 -28240860.49647 -21984296.15246  21256332.8284                   21256332.7234
 -61201660.05147 -47665648.21944  22248098.1724                   22248099.1414
  -8032527.48846  -6239306.55744  23349453.8524                   23349456.8364
 -53389362.42248 -41561962.43546  20599466.9224                   20599464.5394
  -6822120.92646  -5300309.55843  23188704.6334                   23188705.1804
 11  8 23  0 29  0.0000000  0  9G10G12G17G09G05G04G25G02G30
 -45055286.40247 -35085646.11745  20912194.6484                   20912194.0634
 -34424460.59448 -26802627.94146  20969327.6644                   20969326.2274
 -78861026.27346 -61426405.62044  23540558.3054                   23540559.6214
 -32270205.93046 -25101525.40743  24199545.3204                   24199549.9884
 -28382316.43748 -22094521.51646  21229414.8984                   21229414.6334
 -61187520.51247 -47654630.43344  22250789.0864                   22250789.6484
  -8189680.94947  -6361763.76544  23319548.6254                   23319550.7464
 -53445315.70348 -41605562.41146  20588819.5554                   20588816.7664
  -6977483.30146  -5421371.05143  23159140.8594                   23159140.7544
 11  8 23  0 29 30.0000000  0  9G10G12G17G09G05G04G25G02G30
 -45094775.10947 -35116416.51645  20904679.8834                   20904679.3714
 -34532031.80948 -26886449.65546  20948857.3364                   20948856.1644
 -78868456.75046 -61432195.66844  23539144.1094                   23539145.0514
 -32254847.16046 -25089557.71243  24202469.0234                   24202473.0554
 -28523285.36348 -22204367.40146  21202588.9774                   21202588.8634
 -61173249.51247 -47643510.22144  22253505.1334                   22253505.0354
  -8346484.80947  -6483948.52444  23289710.2814                   23289711.7854
 -53500959.94548 -41648921.55146  20578230.6414                   20578228.2194
  -7132423.41046  -5542103.57143  23129656.8914                   23129656.5784
 11  8 23  0 30  0.0000000  0  9G10G12G17G09G05G04G25G02G30
 -45133575.58247 -35146650.61745  20897296.4534                   20897296.0394
 -34639015.91847 -26969813.88646  20928498.8984                   20928497.6134
 -78875635.72346 -61437789.72544  23537777.6484                   23537779.3204
 -32239384.71146 -25077509.27043  24205411.2344                   24205415.3634
 -28663760.73448 -22313828.67146  21175857.9144                   21175857.5234
 -61158844.71947 -47632285.74544  22256246.1024                   22256246.1054
  -8502932.33647  -6605855.63244  23259938.7504                   23259940.6724
 -53556292.15648 -41692037.56146  20567701.2814                   20567698.5044
  -7286934.50846  -5662501.80843  23100253.8054                   23100254.0084
 11  8 23  0 30 30.0000000  0  9G10G12G17G09G05G04G25G02G30
 -45171686.28947 -35176347.24045  20890044.1334                   20890044.1884
 -34745408.35548 -27052717.08246  20908253.1884                   20908252.1954
 -78882560.23446 -61443185.53144  23536459.6414                   23536461.6564
 -32223818.91446 -25065380.25243  24208372.8444                   24208376.8914
 -28803737.21148 -22422901.20846  21149220.7734                   21149220.2074
 -61144304.56247 -47620955.81244  22259012.7974                   22259012.8674
  -8659017.90647  -6727480.73544  23230237.1094                   23230238.2854
 -53611310.53548 -41734909.02146  20557231.5704                   20557229.1174
  -7441010.82446  -5782561.22143  23070933.9064                   23070933.6684
 11  8 23  0 31  0.0000000  0  9G10G12G17G09G05G04G25G02G30
 -45209110.08647 -35205508.63245  20882922.8984                   20882922.3554
 -34851209.05548 -27135159.17646  20888119.8364                   20888118.9694
 -78889231.43746 -61448383.96144  23535190.7034                   23535191.6844
 -32208154.73446 -25053174.49943  24211354.5704                   24211357.6644
 -28943213.93448 -22531584.32746  21122679.2894                   21122679.0784
 -61129632.46547 -47609523.06344  22261805.0474                   22261804.8754
  -8814740.69546  -6848823.11044  23200603.4844                   23200605.3094
 -53666018.43448 -41777538.54346  20546821.0944                   20546818.3674
  -7594651.50046  -5902281.21243  23041697.5864                   23041697.3404
 11  8 23  0 31 30.0000000  0  9G10G12G17G09G05G04G25G02G30
 -45245851.42247 -35234138.21645  20875931.0864                   20875931.0944
 -34956419.22348 -27217141.11946  20868099.0084                   20868098.1374
 -78895652.56246 -61453387.47544  23533969.0864                   23533969.9384
 -32192398.55546 -25040897.16143  24214352.5704                   24214356.4964
 -29082192.14148 -22639878.98746  21096232.5164                   21096232.5084
 -61114833.39847 -47597991.37444  22264620.8834                   22264620.8754
  -8970101.42647  -6969883.37544  23171039.6094                   23171041.4884
 -53720420.25848 -41819929.57146  20536468.6174                   20536465.6484
  -7747857.19546  -6021662.20643  23012543.5084                   23012543.3164
 11  8 23  0 32  0.0000000  0  9G10G12G17G09G05G04G25G02G30
 -43706487.75447 -34034634.06845  21168862.3204                   21168862.1764
 -33485612.15247 -26071057.69646  21147984.3834                   21147983.1094
 -77326400.65246 -60230593.87944  23832587.5634                   23832588.9804
 -30601132.17646 -23800949.40843  24517160.2734                   24517164.5354
 -27645242.48448 -21520177.91046  21369674.7034                   21369674.7704
 -59524487.25847 -46358760.65544  22567253.4304                   22567254.0944
  -7549669.93747  -5863053.57344  23441338.4614                   23441340.7704
 -52199093.26248 -40634479.95646  20825967.8914                   20825965.1684
  -6325197.74646  -4913096.38343  23283266.2664                   23283266.8284
 11  8 23  0 32 30.0000000  0  9G10G12G17G09G05G04G25G02G30
 -43741867.00047 -34062202.30745  21162130.1724                   21162129.5394
 -33589637.33247 -26152116.28046  21128189.1174                   21128187.7894
 -77332319.84446 -60235206.33744  23831460.9384                   23831462.4264
 -30585202.31246 -23788536.68043  24520191.6724                   24520196.4264
 -27783216.04748 -21627689.73046  21343419.2194                   21343419.5164
 -59509438.96946 -46347034.77944  22570117.7114                   22570118.3244
  -7704298.49246  -5983543.29944  23411913.4224                   23411915.7934
 -52252886.78148 -40676396.97746  20815730.9924                   20815728.3794
  -6477525.10947  -5031792.97544  23254278.9304                   23254280.2304
 11  8 23  0 33  0.0000000  0  9G10G12G17G09G05G04G25G02G30
 -43776564.22747 -34089239.09845  21155527.4304                   21155526.7934
 -33693064.75448 -26232709.07946  21108507.6954                   21108506.5474
 -77337985.09446 -60239620.86144  23830383.4534                   23830384.4734
 -30569187.00446 -23776057.30243  24523238.9304                   24523244.1094
 -27920680.98848 -21734805.22046  21317260.5944                   21317260.1134
 -59494265.73046 -46335211.49544  22573004.8204                   22573006.0864
  -7858554.25046  -6103742.54044  23382559.8754                   23382562.1564
 -52306375.09448 -40718076.17046  20805552.5394                   20805549.9184
  -6629406.58646  -5150142.13444  23225376.9614                   23225377.5314
 11  8 23  0 33 30.0000000  0  9G10G12G17G09G05G04G25G02G30
 -43810581.77047 -34115746.26945  21149054.0004                   21149053.3554
 -33795893.53547 -26312835.39846  21088939.8284                   21088938.6054
 -77343397.05946 -60243838.04744  23829353.9454                   23829354.6604
 -30553091.02746 -23763515.04343  24526302.9774                   24526307.4574
 -28057636.14548 -21841523.48546  21291198.6724                   21291198.7894
 -59478970.07047 -46323292.83444  22575915.2894                   22575916.7304
  -8012435.59046  -6223650.05044  23353276.5004                   23353278.9694
 -52359560.65248 -40759519.45546  20795431.6094                   20795428.6644
  -6780840.38346  -5268142.39544  23196560.0234                   23196560.2384
 11  8 23  0 34  0.0000000  0  9G10G12G17G09G05G04G25G02G30
 -43843924.94947 -34141727.95545  21142708.7974                   21142708.3204
 -33898126.34048 -26392497.33946  21069485.1414                   21069484.1414
 -77348559.63346 -60247860.89043  23828371.5164                   23828371.8134
 -30536921.41046 -23750915.52043  24529380.4844                   24529384.1024
 -28194083.00048 -21947845.66646  21265233.8284                   21265233.9024
 -59463557.46547 -46311283.05844  22578848.2894                   22578849.5514
  -8165943.89147  -6343266.88744  23324065.3364                   23324067.3364
 -52412448.72348 -40800730.92046  20785367.6484                   20785364.8444
  -6931827.82447  -5385794.96144  23167827.9534                   23167828.7774
 11  8 23  0 34 30.0000000  0  9G10G12G17G09G05G04G25G02G30
 -43876592.09847 -34167182.87145  21136492.5164                   21136492.2074
 -33999758.60548 -26471691.30146  21050145.2734                   21050144.5554
 -77353469.33246 -60251686.67343  23827437.2194                   23827437.1844
 -30520678.34446 -23738258.66543  24532470.9614                   24532475.7934
 -28330016.19948 -22053767.59546  21239366.7734                   21239366.8954
 -59448026.67247 -46299181.16644  22581803.6804                   22581805.3444
  -8319073.68747  -6462588.70744  23294925.5314                   23294927.9924
 -52465037.43448 -40841709.10746  20775360.2424                   20775357.7624
  -7082363.44947  -5503095.40543  23139182.2424                   23139182.1954
 11  8 23  0 35  0.0000000  0  9G10G12G17G09G05G04G25G02G30
 -43908582.57447 -34192110.51645  21130405.0784                   21130404.3674
 -34100786.91448 -26550414.67546  21030920.3204                   21030919.6294
 -77358124.19946 -60255313.88743  23826550.9774                   23826550.7934
 -30504363.39546 -23725545.87843  24535576.1254                   24535580.3794
 -28465431.99648 -22159286.34446  21213597.6334                   21213597.5904
 -59432377.32047 -46286986.87644  22584781.9384                   22584782.7034
  -8471820.54747  -6581612.21544  23265858.8204                   23265861.3484
 -52517326.35248 -40882453.70246  20765410.0234                   20765407.0554
  -7232442.72746  -5620040.22344  23110623.1174                   23110623.1724
 11  8 23  0 35 30.0000000  0  9G10G12G17G09G05G04G25G02G30
 -43939897.98047 -34216512.11845  21124445.7424                   21124445.4414
 -34201209.88748 -26628666.34846  21011810.9304                   21011809.8714
 -77362524.11346 -60258742.40143  23825713.9454                   23825714.5784
 -30487979.42246 -23712779.24843  24538694.5394                   24538698.3014
 -28600328.14848 -22264400.18146  21187928.0084                   21187927.9344
 -59416610.97347 -46274701.43144  22587782.7584                   22587782.8364
  -8624181.93447  -6700335.34744  23236865.0004                   23236867.4384
 -52569317.09848 -40922965.94746  20755516.4064                   20755513.8134
  -7382063.12946  -5736627.54144  23082151.1884                   23082151.7154
 11  8 23  0 36  0.0000000  0  9G10G12G17G09G05G04G25G02G30
 -43970541.66047 -34240390.32445  21118614.6644                   21118613.8324
 -34301028.32848 -26706446.94746  20992815.7114                   20992814.8244
 -77366670.48446 -60261973.37543  23824925.3444                   23824924.8284
 -30471532.02046 -23699963.21343  24541823.5004                   24541828.9454
 -28734704.35548 -22369108.86646  21162356.8834                   21162356.7774
 -59400731.35547 -46262327.74244  22590804.3284                   22590804.5474
  -8776157.38347  -6818757.76244  23207945.6954                   23207947.4264
 -52621012.69948 -40963248.22546  20745678.8204                   20745676.3404
  -7531224.08646  -5852856.82944  23053766.3594                   23053766.9574
 11  8 23  0 36 30.0000000  0  9G10G12G17G09G05G04G25G02G30
 -44000516.57447 -34263747.39345  21112910.5164                   21112910.3874
 -34400242.24648 -26783756.49746  20973936.1484                   20973935.1994
 -77370564.54346 -60265007.76143  23824184.6254                   23824184.9614
 -30455025.92246 -23687101.37043  24544964.8444                   24544969.5554
 -28868559.58648 -22473411.59346  21136885.0474                   21136884.9774
 -59384741.29347 -46249867.98444  22593847.5234                   22593847.6094
  -8927745.62947  -6936878.43744  23179099.0554                   23179101.2974
 -52672415.92648 -41003302.66246  20735896.9534                   20735894.5234
  -7679924.39146  -5968727.12744  23025470.2194                   23025469.9104
 11  8 23  0 37  0.0000000  0  9G10G12G17G09G05G04G25G02G30
 -44029815.51647 -34286577.72045  21107334.9774                   21107334.5004
 -34498841.38748 -26860586.99446  20955173.1174                   20955172.3404
 -77374197.91846 -60267838.97743  23823492.5004                   23823493.6764
 -30438455.68746 -23674189.64843  24548117.3134                   24548123.3954
 -29001883.36347 -22577300.21246  21111514.2584                   21111514.2304
 -59368633.82447 -46237316.72844  22596912.4144                   22596912.8634
  -9078935.66847  -7054688.83044  23150328.1724                   23150330.8054
 -52723519.55148 -41043123.66546  20726172.3594                   20726169.6564
  -7828153.00046  -6084229.90243  22997262.6174                   22997262.6294
 11  8 23  0 37 30.0000000  0  9G10G12G17G09G05G04G25G02G30
 -44058444.93447 -34308886.37045  21101887.2734                   21101887.1454
 -34596829.53548 -26936941.39346  20936527.0084                   20936525.7544
 -77377575.09446 -60270470.57543  23822850.3674                   23822850.8874
 -30421829.52045 -23661234.33943  24551281.5944                   24551286.6334
 -29134678.55147 -22680776.94146  21086244.5164                   21086244.1604
 -59352415.69947 -46224679.25244  22599998.4774                   22599999.0004
  -9229729.88747  -7172190.78244  23121633.6094                   23121635.3284
 -52774329.68448 -41082715.96146  20716503.6644                   20716501.2624
  -7975912.16847  -6199366.87343  22969144.8914                   22969144.9574
 11  8 23  0 38  0.0000000  0  9G10G12G17G09G05G04G25G02G30
 -44086411.76247 -34330678.71345  21096565.2814                   21096565.1214
 -34694210.70748 -27012822.82846  20917995.8444                   20917994.6564
 -77380701.43046 -60272906.70543  23822254.7664                   23822256.0164
 -30405155.85546 -23648242.00042  24554453.2814                   24554460.0984
 -29266948.32447 -22783844.25246  21061073.8834                   21061074.2034
 -59336093.66447 -46211960.80144  22603104.5944                   22603105.0274
  -9380131.28947  -7289386.61544  23093013.0164                   23093014.9414
 -52824853.51248 -41122085.16446  20706888.8674                   20706886.4574
  -8123204.87546  -6314140.38644  22941116.7814                   22941116.0234
 11  8 23  0 38 30.0000000  0  9G10G12G17G09G05G04G25G02G30
 -44113714.10547 -34351953.27145  21091369.7194                   21091369.5124
 -34790979.68448 -27088227.21546  20899581.5554                   20899580.1844
 -77383573.06646 -60275144.37043  23821707.7114                   23821709.5234
 -30388434.50445 -23635212.48743  24557635.8984                   24557641.3714
 -29398686.94148 -22886497.68046  21036004.8984                   21036004.6524
 -59319665.93047 -46199159.98944  22606230.7894                   22606230.8984
  -9530133.82847  -7406271.65444  23064468.2194                   23064470.2424
 -52875088.61348 -41161229.38746  20697330.0634                   20697327.3204
  -8270025.10246  -6428545.68744  22913177.4304                   22913177.0124
 11  8 23  0 39  0.0000000  0  9G10G12G17G09G05G04G25G02G30
 -44140353.77347 -34372711.45945  21086300.4144                   21086299.8914
 -34887136.08647 -27163154.27246  20881283.4924                   20881281.9774
 -77386190.53946 -60277184.01043  23821210.5004                   23821212.2504
 -30371669.03146 -23622148.69142  24560826.9534                   24560831.5164
 -29529893.18448 -22988736.26846  21011037.4774                   21011037.2584
 -59303134.10947 -46186278.07544  22609376.2344                   22609377.3014
  -9679735.31247  -7522844.23144  23036000.3524                   23036001.6294
 -52925036.45748 -41200149.77346  20687825.1254                   20687822.7704
  -8416370.68747  -6542581.19144  22885329.0704                   22885328.6564
 11  8 23  0 39 30.0000000  0  9G10G12G17G09G05G04G25G02G30
 -44166334.06247 -34392955.84545  21081356.7034                   21081356.0314
 -34982680.30548 -27237604.29046  20863101.9064                   20863100.6724
 -77388555.25046 -60279026.69343  23820760.3444                   23820761.5234
 -30354864.09846 -23609054.05542  24564024.7974                   24564029.7034
 -29660566.52348 -23090559.60046  20986170.9774                   20986170.9924
 -59286501.62947 -46173317.73044  22612541.7734                   22612542.3014
  -9828934.86747  -7639103.56744  23007608.9384                   23007610.3524
 -52974700.30948 -41238848.87346  20678374.5004                   20678371.4774
  -8562240.76247  -6656246.10544  22857570.5474                   22857570.5004
 11  8 23  0 40  0.0000000  0  9G10G12G17G09G05G04G25G02G30
 -44191653.46147 -34412685.24645  21076538.3204                   21076538.3554
 -35077607.66048 -27311573.65246  20845038.0234                   20845036.7154
 -77390663.73846 -60280669.70543  23820359.2584                   23820361.2664
 -30338019.91046 -23595928.88342  24567230.0084                   24567235.4574
 -29790701.32048 -23191963.28946  20961406.9384                   20961406.7774
 -59269766.72347 -46160277.56044  22615726.1414                   22615726.3054
  -9977726.82447  -7755045.29644  22979293.7584                   22979295.8244
 -53024078.34048 -41277325.27246  20668977.8054                   20668975.0664
  -8707629.55947  -6769536.04044  22829903.6884                   22829903.9614
 11  8 23  0 40 30.0000000  0  9G10G12G17G09G05G04G25G02G30
 -44216314.10247 -34431901.33445  21071845.4694                   21071845.2734
 -35171917.21148 -27385061.59746  20827091.2344                   20827089.8984
 -77392516.35946 -60282113.35343  23820006.1644                   23820008.5354
 -30321140.17246 -23582776.06243  24570442.6414                   24570446.5554
 -29920296.06647 -23292946.16246  20936746.2194                   20936746.3674
 -59252931.15247 -46147158.97344  22618930.0314                   22618930.4144
 -10126109.30547  -7870667.95844  22951057.6174                   22951059.6054
 -53073172.39848 -41315580.36846  20659635.8984                   20659633.3364
  -8852535.23847  -6882449.53644  22802329.2814                   22802329.2504
 11  8 23  0 41  0.0000000  0  9G10G12G17G09G05G04G25G02G30
 -44240318.03147 -34450605.70445  21067277.8364                   21067277.0944
 -35265608.60547 -27458067.86246  20809262.1644                   20809261.1334
 -77394113.49246 -60283357.95043  23819702.2034                   23819704.5164
 -30304228.16446 -23569598.03043  24573660.9384                   24573664.9304
 -30049349.41447 -23393507.16146  20912187.7274                   20912188.0084
 -59235997.30547 -46133963.77744  22622151.7034                   22622152.4844
 -10274080.18447  -7985969.90444  22922899.8834                   22922901.5004
 -53121984.06648 -41353615.43846  20650347.2504                   20650344.5314
  -8996955.68446  -6994984.86944  22774847.0864                   22774846.5044
 11  8 23  0 41 30.0000000  0  9G10G12G17G09G05G04G25G02G30
 -44263667.53947 -34468800.14045  21062834.6334                   21062833.7814
 -35358680.98448 -27530591.79246  20791551.1804                   20791550.4384
 -77395455.45346 -60284403.64443  23819447.1254                   23819448.4884
 -30287287.53146 -23556397.70143  24576885.8444                   24576889.5514
 -30177859.50848 -23493644.86046  20887733.2504                   20887732.9574
 -59218966.76647 -46120693.23844  22625392.8284                   22625393.1054
 -10421637.31647  -8100949.45344  22894820.3524                   22894822.5204
 -53170514.94148 -41391431.70846  20641112.0234                   20641108.7774
  -9140888.71547  -7107140.48544  22747457.6334                   22747457.0474
 11  8 23  0 42  0.0000000  0  9G10G12G17G09G05G04G25G02G30
 -44286367.43047 -34486488.37545  21058514.8204                   21058514.4304
 -35451136.05548 -27602634.68846  20773957.5314                   20773956.5124
 -77396545.15246 -60285252.77343  23819240.4774                   23819242.2584
 -30270324.90246 -23543180.31343  24580113.6484                   24580117.5164
 -30305827.77348 -23593360.34646  20863381.8674                   20863381.4344
 -59201844.19547 -46107350.99244  22628651.1094                   22628651.6094
 -10568781.40647  -8215607.13044  22866819.7504                   22866821.5274
 -53218769.67248 -41429032.79846  20631929.5314                   20631927.0554
  -9284335.10547  -7218916.83044  22720160.4534                   22720159.7154
 11  8 23  0 42 30.0000000  0  9G10G12G17G09G05G04G25G02G30
 -44308413.77747 -34503667.35145  21054319.9144                   21054319.2344
 -35542967.41048 -27674191.58846  20756482.7504                   20756481.4774
 -77397377.22346 -60285901.10343  23819081.6804                   23819082.9694
 -30253337.67246 -23529943.79043  24583346.6644                   24583351.0944
 -30433246.75847 -23692647.81946  20839134.9144                   20839134.5204
 -59184625.65647 -46093934.00044  22631927.6804                   22631928.9344
 -10715504.60247  -8329936.86844  22838899.8134                   22838901.4494
 -53266744.18448 -41466415.53246  20622800.5314                   20622797.7734
  -9427287.00447  -7330307.89644  22692957.3834                   22692957.3324
 11  8 23  0 43  0.0000000  0  9G10G12G17G09G05G04G25G02G30
 -44329810.90647 -34520340.44645  21050248.1484                   21050247.6254
 -35634176.05148 -27745263.24346  20739126.0554                   20739125.3364
 -77397953.69946 -60286350.30543  23818971.9694                   23818973.2114
 -30236331.17246 -23516692.11143  24586582.5474                   24586588.2854
 -30560116.70747 -23791507.48446  20814991.7504                   20814991.9064
 -59167314.91447 -46080445.16344  22635221.9064                   22635222.8134
 -10861806.80147  -8443938.54044  22811058.9844                   22811061.1054
 -53314441.97348 -41503582.65246  20613723.6024                   20613721.0234
  -9569744.27746  -7441313.51544  22665847.9534                   22665848.7154
 11  8 23  0 43 30.0000000  0  9G10G12G17G09G05G04G25G02G30
 -44350563.92247 -34536511.64545  21046298.7584                   21046298.6564
 -35724764.22347 -27815851.41946  20721887.9694                   20721886.9024
 -77398277.73846 -60286602.84043  23818909.8524                   23818911.4494
 -30219311.74246 -23503430.38143  24589821.2974                   24589826.9614
 -30686438.69947 -23889940.15946  20790953.6334                   20790953.4574
 -59149916.56247 -46066888.03144  22638532.7974                   22638533.4024
 -11007688.48047  -8557612.55544  22783298.6414                   22783300.3484
 -53361867.53948 -41540537.64446  20604699.0864                   20604696.2424
  -9711707.48046  -7551934.16944  22638833.4304                   22638833.5744
 11  8 23  0 44  0.0000000  0  9G10G12G17G09G05G04G25G02G30
 -42795251.74247 -33324580.08045  21342264.8834                   21342264.3984
 -34239305.78548 -26658351.33346  21004561.1414                   21004560.2194
 -75822926.96146 -59059056.75343  24118689.9534                   24118690.7704
 -28626861.00846 -22262559.90143  24892854.2344                   24892860.4454
 -29236784.67647 -22760339.59046  21066813.8284                   21066813.5554
 -57557010.27747 -44825662.42744  22941653.0004                   22941653.8014
  -9577720.37147  -7443351.69544  23055412.2734                   23055414.6684
 -51833598.57848 -40349678.71546  20895519.1254                   20895516.1214
  -8277747.50846  -6434562.73944  22911707.5554                   22911707.5744
 11  8 23  0 44 30.0000000  0  9G10G12G17G09G05G04G25G02G30
 -42814713.93747 -33339745.45445  21338561.2734                   21338560.7304
 -34328641.46548 -26727963.54946  20987561.1414                   20987560.1024
 -75822737.98446 -59058909.48043  24118725.7114                   24118726.9064
 -28609817.29346 -22249279.29343  24896098.1644                   24896103.6024
 -29361997.63747 -22857908.09246  21042986.8364                   21042986.2584
 -57539432.73447 -44811965.70944  22944998.2034                   22944998.5904
  -9722745.93447  -7556358.59544  23027815.1484                   23027817.2704
 -51880475.70348 -40386206.36046  20886598.7734                   20886595.8794
  -8418707.56646  -6544401.67944  22884883.4224                   22884883.5084
 11  8 23  0 45  0.0000000  0  9G10G12G17G09G05G04G25G02G30
 -42833533.25047 -33354409.86745  21334980.2974                   21334979.9384
 -34417349.91048 -26797087.00546  20970680.5394                   20970679.5204
 -75822292.21146 -59058562.16043  24118810.6094                   24118812.4534
 -28592766.18446 -22235992.92943  24899342.2814                   24899348.2704
 -29486653.10247 -22955042.17346  21019265.4064                   21019264.9144
 -57521768.02047 -44798201.07644  22948359.3054                   22948359.5434
  -9867339.86747  -7669029.17445  23000299.4384                   23000302.0044
 -51927080.66447 -40422521.90946  20877729.6644                   20877727.1564
  -8559162.59447  -6653847.16444  22858155.4454                   22858155.6254
 11  8 23  0 45 30.0000000  0  9G10G12G17G09G05G04G25G02G30
 -42851709.85547 -33368573.45745  21331521.5704                   21331520.7854
 -34505427.93048 -26865719.22646  20953919.7734                   20953918.7384
 -75821587.73046 -59058013.24743  24118944.5784                   24118945.7934
 -28575708.87146 -22222701.62843  24902588.5164                   24902595.1764
 -29610747.45348 -23051739.03246  20995650.8444                   20995650.6684
 -57504015.33647 -44784367.88544  22951737.3984                   22951738.1724
 -10011497.89547  -7781360.09344  22972867.3284                   22972869.9144
 -51973413.00047 -40458625.02946  20868912.9384                   20868910.1054
  -8699108.32846  -6762895.72844  22831524.9304                   22831524.8954
 11  8 23  0 46  0.0000000  0  9G10G12G17G09G05G04G25G02G30
 -42869249.80547 -33382240.95845  21328183.8754                   21328183.5824
 -34592878.46948 -26933862.49746  20937278.4144                   20937277.3484
 -75820628.56646 -59057265.82943  24119127.0084                   24119128.3524
 -28558652.36346 -22209411.10443  24905834.2504                   24905840.5904
 -29734282.68447 -23148000.20546  20972142.6484                   20972142.7504
 -57486180.43747 -44770470.63544  22955131.4534                   22955132.4654
 -10155221.62547  -7893352.61545  22945517.4694                   22945519.8134
 -52019477.66047 -40494519.56646  20860147.4844                   20860144.4694
  -8838546.40247  -6871548.79544  22804990.8594                   22804990.1214
 11  8 23  0 46 30.0000000  0  9G10G12G17G09G05G04G25G02G30
 -42886153.65247 -33395412.80245  21324966.9064                   21324966.5314
 -34679699.03948 -27001514.87746  20920757.2584                   20920755.9924
 -75819413.93046 -59056319.35643  24119357.9774                   24119359.3484
 -28541598.60546 -22196122.65743  24909080.0084                   24909085.7894
 -29857256.17247 -23243823.65646  20948741.7504                   20948741.3954
 -57468263.38347 -44756509.39044  22958541.0634                   22958541.7464
 -10298507.36747  -8005003.84244  22918251.4144                   22918253.6094
 -52065275.30547 -40530206.04046  20851432.0704                   20851429.4804
  -8977473.21147  -6979803.44844  22778553.8524                   22778553.8914
 11  8 23  0 47  0.0000000  0  9G10G12G17G09G05G04G25G02G30
 -42902423.32447 -33408090.47945  21321871.0164                   21321870.8954
 -34765888.51248 -27068675.49646  20904355.8134                   20904354.6174
 -75817943.03946 -59055173.23243  24119637.7814                   24119640.0394
 -28524550.19946 -22182838.42943  24912324.3674                   24912330.2504
 -29979665.57847 -23339207.58746  20925447.9384                   20925447.7774
 -57450265.13747 -44742484.85344  22961966.4534                   22961966.8244
 -10441352.44547  -8116311.69344  22891068.5314                   22891070.5434
 -52110806.56248 -40565684.95346  20842767.7664                   20842765.2464
  -9115886.06247  -7087657.59244  22752215.1954                   22752215.0434
 11  8 23  0 47 30.0000000  0  9G10G12G17G09G05G04G25G02G30
 -42918059.64847 -33420274.63045  21318895.4534                   21318895.2384
 -34851445.62548 -27135343.38946  20888074.8984                   20888073.7664
 -75816214.91846 -59053826.71143  24119966.8364                   24119968.3164
 -28507509.43446 -22169560.06843  24915568.2424                   24915573.3874
 -30101508.14847 -23434149.80946  20902262.2034                   20902262.1334
 -57432186.03547 -44728397.26244  22965406.8444                   22965407.8134
 -10583753.38347  -8227273.48744  22863971.1564                   22863972.6604
 -52156071.78148 -40600956.55546  20834154.4614                   20834151.4614
  -9253781.71547  -7195108.75144  22725974.3054                   22725974.0514
 11  8 23  0 48  0.0000000  0  8G10G12G17G05G04G25G02G30
 -42933069.88347 -33431970.91745  21316038.9144                   21316039.0634
 -34936374.55548 -27201521.77946  20871913.4774                   20871912.2274
 -75814235.10946 -59052284.04743  24120343.7814                   24120345.0274
 -30222787.46947 -23528653.15246  20879183.3054                   20879183.1844
 -57414033.21147 -44714252.22944  22968861.1254                   22968861.7504
 -10725713.34047  -8337891.64944  22836956.5864                   22836958.5124
 -52201077.75848 -40636026.13846  20825589.8914                   20825586.9454
  -9391163.23847  -7302159.29044  22699831.4144                   22699831.3914
 11  8 23  0 48 30.0000000  0  8G10G12G17G05G04G25G02G30
 -42947444.93747 -33443172.24045  21313303.6804                   21313303.5514
 -35020663.09848 -27267201.13846  20855873.2894                   20855872.9694
 -75811992.14146 -59050536.28744  24120770.5864                   24120772.0634
 -30343490.61748 -23622707.50346  20856214.3054                   20856213.8754
 -57395796.60547 -44700041.93144  22972331.4064                   22972332.4924
 -10867218.59047  -8448155.46844  22810028.7584                   22810030.9024
 -52245814.46148 -40670885.90846  20817076.7664                   20817073.8134
  -9528016.99247  -7408798.58044  22673789.0704                   22673788.9264
 11  8 23  0 49  0.0000000  0  8G10G12G17G05G04G25G02G30
 -42961181.80547 -33453876.29345  21310689.3364                   21310689.5904
 -35104305.03548 -27332376.68146  20839957.3984                   20839956.5204
 -75809480.80546 -59048579.40244  24121248.7584                   24121250.2504
 -30463610.80148 -23716307.61246  20833356.2584                   20833355.6604
 -57377471.96547 -44685763.00644  22975817.8054                   22975819.6334
 -11008261.46947  -8558059.00044  22783189.5784                   22783191.8634
 -52290277.69947 -40705532.58046  20808615.8204                   20808612.9384
  -9664335.41046  -7515020.72144  22647848.5944                   22647848.8204
 11  8 23  0 49 30.0000000  0  8G10G12G17G05G04G25G02G30
 -42974279.03147 -33464081.91845  21308197.2274                   21308197.2934
 -35187296.32048 -27397045.20246  20824164.7034                   20824163.3634
 -75806697.72346 -59046410.77443  24121778.4614                   24121780.3324
 -30583142.62948 -23809449.25646  20810610.1414                   20810609.9694
 -57359057.29746 -44671413.95944  22979322.1414                   22979323.8754
 -11148836.14847  -8667597.71645  22756439.2034                   22756441.5044
 -52334465.67247 -40739964.77146  20800207.2194                   20800204.4064
  -9800112.84847  -7620821.28644  22622011.3054                   22622010.7304
 11  8 23  0 50  0.0000000  0  8G10G12G17G05G04G25G02G30
 -42986737.86347 -33473790.08645  21305826.2274                   21305826.0664
 -35269635.27047 -27461205.42146  20808496.1564                   20808494.7894
 -75803641.81646 -59044029.67643  24122359.6954                   24122361.7624
 -30702083.66448 -23902130.54446  20787976.0084                   20787975.8054
 -57340553.16446 -44656995.14244  22982843.3204                   22982844.7194
 -11288939.54347  -8776769.17645  22729778.7814                   22729780.5984
 -52378378.95348 -40774182.90646  20791850.6724                   20791847.9454
  -9935346.23847  -7726197.96344  22596277.2034                   22596276.8204
 11  8 23  0 50 30.0000000  0  8G10G12G17G05G04G25G02G30
 -42998562.77047 -33483004.30245  21303576.1954                   21303575.8914
 -35351323.80948 -27524858.82146  20792951.1644                   20792950.2544
 -75800316.01646 -59041438.09943  24122992.8284                   24122993.6564
 -30820434.80947 -23994352.18346  20765454.5864                   20765454.3754
 -57321963.52046 -44642509.75444  22986380.9844                   22986382.4414
 -11428571.84847  -8885573.56045  22703207.2424                   22703209.3134
 -52422021.09048 -40808189.76146  20783545.9224                   20783542.8984
 -10070035.85247  -7831150.89044  22570646.4064                   22570646.5514
 11  8 23  0 51  0.0000000  0  8G10G12G17G05G04G25G02G30
 -43009757.79747 -33491727.67545  21301445.5474                   21301445.2854
 -35432362.62948 -27588005.95546  20777529.8054                   20777529.1844
 -75796722.31246 -59038637.72643  24123676.6564                   24123676.9414
 -30938196.30148 -24086114.34546  20743045.9224                   20743045.4104
 -57303291.43046 -44627960.14644  22989934.4454                   22989935.3524
 -11567732.47347  -8994010.38245  22676726.2584                   22676727.9734
 -52465395.30548 -40841987.84646  20775291.9694                   20775289.2154
 -10204181.25447  -7935679.78944  22545118.9614                   22545119.6134
 11  8 23  0 51 30.0000000  0  8G10G12G17G05G04G25G02G30
 -43020327.69547 -33499963.93545  21299433.9614                   21299433.4884
 -35512753.90648 -27650648.50646  20762232.0314                   20762231.1684
 -75792862.91046 -59035630.40843  24124411.0164                   24124412.2734
 -31055368.89148 -24177417.62246  20720748.1644                   20720748.1024
 -57284540.63346 -44613349.13744  22993502.2424                   22993503.1564
 -11706421.66047  -9102079.84545  22650334.2274                   22650336.3324
 -52508505.29348 -40875580.03846  20767088.3364                   20767085.3794
 -10337782.79747  -8039784.88444  22519695.6954                   22519696.0204
 11  8 23  0 52  0.0000000  0  8G10G12G17G05G04G25G02G30
 -43030272.41047 -33507713.05645  21297541.8364                   21297541.2704
 -35592494.30547 -27712783.87246  20747057.7974                   20747056.7894
 -75788735.75446 -59032414.42343  24125196.7194                   24125197.6914
 -31171948.79748 -24268259.07046  20698564.0554                   20698563.5044
 -57265710.03146 -44598675.96044  22997086.3054                   22997086.6684
 -11844634.77747  -9209778.30445  22624032.6094                   22624035.0434
 -52551350.24648 -40908965.71346  20758935.3914                   20758932.3284
 -10470835.82047  -8143462.53444  22494376.6484                   22494376.1094
 11  8 23  0 52 30.0000000  0  8G10G12G17G05G04G25G02G30
 -43039597.40647 -33514979.26745  21295767.5634                   21295767.0354
 -35671586.58248 -27774414.20846  20732006.9304                   20732006.2934
 -75784344.03146 -59028992.28643  24126031.6884                   24126033.2664
 -31287937.71148 -24358639.99646  20676492.0864                   20676491.2974
 -57246804.46146 -44583944.37144  23000683.6954                   23000684.0314
 -11982372.70747  -9317106.54245  22597822.2584                   22597824.5944
 -52593934.25448 -40942148.02846  20750831.9534                   20750829.0434
 -10603341.47347  -8246713.67944  22469161.7114                   22469161.4304
 11  8 23  0 53  0.0000000  0  8G10G12G17G05G04G25G02G30
 -43048303.63347 -33521763.34645  21294111.2504                   21294110.3674
 -35750029.03948 -27835538.19446  20717079.9924                   20717078.9224
 -75779686.64546 -59025363.12743  24126918.4064                   24126920.1954
 -31403332.89148 -24448558.27446  20654532.7424                   20654532.8594
 -57227823.71546 -44569154.20844  23004296.0084                   23004296.0434
 -12119632.00047  -9424061.78345  22571702.7894                   22571705.0744
 -52636257.90648 -40975127.49746  20742777.7424                   20742775.2194
 -10735296.41447  -8349535.68244  22444051.6024                   22444051.3284
 11  8 23  0 53 30.0000000  0  8G10G12G17G05G04G25G02G30
 -43056393.36747 -33528067.02645  21292570.8834                   21292570.9924
 -35827821.18048 -27896155.45146  20702276.5944                   20702275.5784
 -75774764.13346 -59021527.39343  24127854.8444                   24127855.9534
 -31518133.16448 -24538013.01046  20632686.9384                   20632686.5824
 -57208769.55146 -44554306.80044  23007921.4534                   23007921.7504
 -12256410.72747  -9530642.54245  22545674.6484                   22545676.7814
 -52678322.77047 -41007905.29646  20734773.1414                   20734770.1914
 -10866698.77747  -8451927.09944  22419046.2424                   22419046.9494
 11  8 23  0 54  0.0000000  0  8G10G12G17G05G04G25G02G30
 -43063877.80947 -33533899.06745  21291147.2584                   21291146.7074
 -35904971.58248 -27956272.64746  20687595.5784                   20687594.5084
 -75769585.21146 -59017491.85743  24128840.4144                   24128841.6294
 -31632345.77748 -24627009.79546  20610952.8134                   20610952.4844
 -57189651.76246 -44539409.79743  23011559.6484                   23011560.4494
 -12392715.31647  -9636853.85645  22519736.2194                   22519738.3444
 -52720138.61348 -41040489.05646  20726815.8674                   20726812.9264
 -10997555.11347  -8553893.04244  22394145.0704                   22394145.4494
 11  8 23  0 54 30.0000000  0  8G10G12G17G05G04G25G02G30
 -43070757.67247 -33539259.99145  21289838.1094                   21289837.3954
 -35981477.39848 -28015887.55846  20673036.8754                   20673035.1954
 -75764147.93446 -59013254.97343  24129875.5394                   24129875.9344
 -31745966.86748 -24715545.67146  20589331.2894                   20589331.3794
 -57170469.65646 -44524462.67543  23015209.9144                   23015210.9804
 -12528541.57047  -9742692.42545  22493889.2664                   22493891.6524
 -52761704.89848 -41072878.36746  20718906.1804                   20718903.1804
 -11127861.43047  -8655430.40144  22369348.3754                   22369348.6334
 11  8 23  0 55  0.0000000  0  8G10G12G17G05G04G25G02G30
 -43077029.69147 -33544147.29045  21288644.4454                   21288643.8914
 -36057332.93048 -28074995.77146  20658601.8524                   20658601.2854
 -75758447.62546 -59008813.16643  24130960.1644                   24130960.9344
 -31858990.62948 -24803616.09946  20567824.0474                   20567823.4224
 -57151219.56246 -44509462.57544  23018871.9614                   23018874.0594
 -12663882.13347  -9848152.54445  22468135.3204                   22468137.1644
 -52803017.67648 -41105070.14446  20711044.5634                   20711041.5274
 -11257610.45347  -8756533.48844  22344658.0634                   22344658.1844
 11  8 23  0 55 30.0000000  0  8G10G12G17G05G04G25G02G30
 -43082699.15647 -33548565.06145  21287565.6414                   21287565.1454
 -36132540.58648 -28133599.12446  20644290.4614                   20644289.3984
 -75752486.88346 -59004168.44343  24132094.3444                   24132095.8444
 -31971418.14548 -24891221.92246  20546429.7344                   20546429.0474
 -57131905.42646 -44494412.64244  23022548.2034                   23022549.6524
 -12798737.57447  -9953234.64044  22442472.4454                   22442474.4654
 -52844081.18747 -41137067.67746  20703230.4844                   20703227.4224
 -11386802.93047  -8857202.87744  22320073.9304                   22320073.2624
 11  8 23  0 56  0.0000000  0  8G10G12G17G05G04G25G02G30
 -43087768.40247 -33552515.13045  21286601.1644                   21286600.4384
 -36207099.76648 -28191697.18546  20630102.3524                   20630101.3164
 -75746266.18446 -58999321.10843  24133277.9224                   24133279.0474
 -32083247.83648 -24978361.91046  20525148.9844                   20525148.5824
 -57112528.29346 -44479313.54244  23026235.8364                   23026236.8284
 -12933105.67647 -10057937.00344  22416903.1024                   22416905.0864
 -52884896.64148 -41168871.92646  20695463.8834                   20695460.7074
 -11515436.76647  -8957436.99444  22295594.9694                   22295595.1054
 11  8 23  0 56 30.0000000  0  8G10G12G17G05G04G25G02G30
 -41516821.35547 -32328400.55045  21585542.2814                   21585541.7344
 -34705589.47748 -27021689.17946  20915830.4534                   20915829.4224
 -74164367.53146 -57766672.84143  24434303.2664                   24434304.7504
 -30619056.58648 -23837433.62346  20803775.2974                   20803774.9694
 -55517672.16846 -43236568.50344  23329726.4774                   23329727.4774
 -11491561.62147  -8934655.88345  22691219.7114                   22691221.4064
 -51350045.87148 -39972884.30946  20987535.7814                   20987532.8014
 -10068087.50047  -7829632.31244  22571016.9534                   22571016.5084
 11  8 23  0 57  0.0000000  0  8G10G12G17G05G04G25G02G30
 -41520699.06647 -32331422.15945  21584803.9224                   21584803.9964
 -34778852.64848 -27078777.36646  20901888.7114                   20901888.0234
 -74157628.87146 -57761421.94843  24435585.7974                   24435586.8754
 -30729688.80148 -23923640.50446  20782722.8754                   20782722.4064
 -55498174.84446 -43221375.78044  23333437.6724                   23333437.9414
 -11624950.37547  -9038595.09145  22665837.1174                   22665838.7304
 -51390370.96548 -40004306.46846  20979862.1644                   20979859.4104
 -10195599.87547  -7928992.54444  22546751.9144                   22546751.6254
 11  8 23  0 57 30.0000000  0  8G10G12G17G05G04G25G02G30
 -41523982.60547 -32333980.75245  21584179.7424                   21584178.8204
 -34851464.86747 -27135358.32346  20888071.1024                   20888070.2584
 -74150629.39146 -57755967.81444  24436917.8524                   24436919.0744
 -30839718.03548 -24009377.53246  20761784.8054                   20761784.3484
 -55478617.18447 -43206136.02844  23337159.3594                   23337159.5824
 -11757843.90647  -9142148.44545  22640548.1334                   22640550.0274
 -51430450.40247 -40035537.20346  20972235.5784                   20972232.7194
 -10322546.25847  -8027911.73144  22522594.8204                   22522594.4064
 11  8 23  0 58  0.0000000  0  8G10G12G17G05G04G25G02G30
 -41526680.59447 -32336083.09645  21583665.7114                   21583665.6604
 -34923432.10547 -27191436.68946  20874376.2504                   20874375.3444
 -74143375.26246 -57750315.22144  24438297.9774                   24438299.8484
 -30949149.03948 -24094648.41046  20740961.2194                   20740960.4534
 -55459006.28146 -43190854.78344  23340890.9064                   23340891.0984
 -11890246.32047  -9245319.09545  22615352.9844                   22615354.7234
 -51470291.98448 -40066582.58746  20964653.7664                   20964650.9574
 -10448930.86747  -8126393.21844  22498544.4614                   22498544.5664
 11  8 23  0 58 30.0000000  0  8G10G12G17G05G04G25G02G30
 -41528792.20747 -32337728.50945  21583264.0864                   21583264.2974
 -34994751.00847 -27247009.86146  20860804.6884                   20860803.7234
 -74135863.67246 -57744462.07344  24439727.7114                   24439729.8244
 -31057977.64148 -24179449.88246  20720250.9534                   20720250.8404
 -55439340.43446 -43175530.74044  23344632.6724                   23344633.1024
 -12022152.32047  -9348102.97245  22590251.7504                   22590253.0704
 -51509893.69547 -40097441.06746  20957118.2814                   20957115.0704
 -10574748.60947  -8224432.94644  22474602.0084                   22474601.8634
 11  8 23  0 59  0.0000000  0  8G10G12G17G05G04G25G02G30
 -41530321.53947 -32338920.20145  21582973.0004                   21582972.4024
 -35065422.24647 -27302078.35946  20847356.1954                   20847355.3134
 -74128096.26646 -57738409.52744  24441204.9064                   24441207.3914
 -31166204.07848 -24263782.13246  20699656.6174                   20699656.1684
 -55419622.20746 -43160165.83943  23348384.7814                   23348385.3714
 -12153561.19147  -9450499.43145  22565246.0944                   22565247.6054
 -51549258.07447 -40128114.59646  20949627.1644                   20949624.3554
 -10699999.04347  -8322030.60644  22450767.6954                   22450767.2814
 11  8 23  0 59 30.0000000  0  9G10G12G17G29G05G04G25G02G30
 -41531280.64847 -32339667.56245  21582790.8524                   21582790.4024
 -35135455.97747 -27356650.10446  20834029.4844                   20834028.6024
 -74120083.25046 -57732165.68344  24442730.5554                   24442732.3834
   7686428.88316                  24694099.344
 -31273836.86348 -24347651.79846  20679174.4694                   20679173.7384
 -55399862.64146 -43144768.73543  23352144.9774                   23352144.6214
 -12284480.72747  -9552514.63645  22540332.1484                   22540334.7424
 -51588396.57847 -40158612.12946  20942179.4304                   20942176.4454
 -10824690.02747  -8419192.37144  22427039.8834                   22427039.5744
 11  8 23  1  0  0.0000000  0  9G10G12G17G29G05G04G25G02G30
 -41531680.84447 -32339979.41845  21582714.5784                   21582713.5824
 -35204860.35947 -27410731.44246  20820822.1804                   20820821.4024
 -74111833.44146 -57725737.28944  24444300.5394                   24444301.7734
   7544709.68846   5922487.72352  24667131.5164                   24667130.0634
 -31380883.14148 -24431064.45246  20658804.4304                   20658804.0354
 -55380071.30146 -43129346.94043  23355911.2664                   23355910.5434
 -12414917.28147  -9654153.47845  22515511.3674                   22515513.3134
 -51627318.96947 -40188941.26946  20934772.4454                   20934769.7344
 -10948828.21147  -8515923.37145  22403417.3834                   22403417.0594
 11  8 23  1  0 30.0000000  0  9G10G12G17G29G05G04G25G02G30
 -41531517.72747 -32339852.31445  21582745.5164                   21582744.7344
 -35273628.20347 -27464316.78846  20807735.8204                   20807735.3554
 -74103339.86246 -57719118.97344  24445916.6174                   24445917.6524
   7402967.37546   5812039.24043  24640158.3204                   24640159.3134
 -31487335.23448 -24514014.09846  20638547.5634                   20638547.0744
 -55360242.56646 -43113895.92643  23359684.2504                   23359684.6684
 -12544862.04747  -9755409.11745  22490783.7504                   22490785.4534
 -51666019.41047 -40219097.46646  20927408.2344                   20927405.6684
 -11072404.87547  -8612216.84045  22379900.8524                   22379901.2034
 11  8 23  1  1  0.0000000  0  9G10G12G17G29G05G04G25G02G30
 -41530797.35247 -32339290.97545  21582882.9694                   21582882.4774
 -35341762.75847 -27517408.65346  20794770.6174                   20794769.5784
 -74094606.63346 -57712313.76143  24447578.5944                   24447579.4734
   7261198.74646   5701570.29643  24613181.7664                   24613182.1174
 -31593195.33648 -24596502.44946  20618402.9304                   20618402.4224
 -55340381.07446 -43098419.46543  23363464.0234                   23363464.0634
 -12674316.32447  -9856282.56945  22466149.1884                   22466151.1454
 -51704502.66448 -40249084.40546  20920084.9694                   20920081.9384
 -11195421.60247  -8708073.99044  22356491.7734                   22356491.7464
 11  8 23  1  1 30.0000000  0  9G10G12G17G29G05G04G25G02G30
 -41529521.43047 -32338296.76945  21583125.6094                   21583125.1134
 -35409263.12947 -27570006.34646  20781925.7734                   20781924.6604
 -74085632.55546 -57705320.98743  24449285.8444                   24449287.3014
   7119405.37946   5591082.06343  24586199.1484                   24586199.3674
 -31698460.83248 -24678527.47046  20598371.4844                   20598371.0554
 -55320486.98046 -43082917.54143  23367249.3054                   23367250.3324
 -12803276.94147  -9956771.35145  22441608.6884                   22441610.6024
 -51742769.23847 -40278902.51746  20912802.9924                   20912800.2034
 -11317875.41847  -8803492.53845  22333189.9694                   22333189.2304
 11  8 23  1  2  0.0000000  0  9G10G12G17G29G05G04G25G02G30
 -41527688.68747 -32336868.66245  21583474.3834                   21583473.9024
 -35476125.10547 -27622106.58646  20769202.2194                   20769201.4184
 -74076414.50846 -57698138.11643  24451039.8984                   24451041.4804
   6977591.37946   5480577.69943  24559212.6724                   24559213.2624
 -31803127.41848 -24760085.81446  20578454.0234                   20578453.5474
 -55300557.69946 -43067388.22943  23371042.1024                   23371042.8014
 -12931738.15247 -10056871.00845  22417163.2664                   22417164.8324
 -51780816.35947 -40308549.61946  20905562.6024                   20905560.1134
 -11439760.87947  -8898468.20745  22309995.6804                   22309994.6414
 11  8 23  1  2 30.0000000  0  9G10G12G17G29G05G04G25G02G30
 -41525298.29347 -32335006.02145  21583929.0474                   21583928.6214
 -35542344.98047 -27673706.49346  20756601.3444                   20756600.0164
 -74066949.74246 -57690762.92943  24452841.0704                   24452842.6764
   6835760.27746   5370060.00743  24532222.6174                   24532223.4734
 -31907190.83248 -24841174.15146  20558651.4304                   20558650.7664
 -55280590.91846 -43051829.69443  23374841.2734                   23374842.4884
 -13059694.69947 -10156577.40945  22392814.0864                   22392815.7034
 -51818642.03147 -40338024.15546  20898365.1174                   20898362.3244
 -11561072.84447  -8992997.00344  22286910.4144                   22286910.6644
 11  8 23  1  3  0.0000000  0  9G10G12G17G29G05G04G25G02G30
 -41522349.12547 -32332707.95645  21584490.0704                   21584489.9224
 -35607919.57447 -27724803.57646  20744122.5554                   20744121.5164
 -74057234.30546 -57683192.50943  24454690.0164                   24454691.7194
   6693916.16446   5259532.16243  24505230.8754                   24505231.2974
 -32010646.29348 -24921788.76946  20538964.4534                   20538963.6414
 -55260584.32847 -43036240.13443  23378648.5864                   23378649.6884
 -13187140.86747 -10255886.11645  22368562.0554                   22368563.6524
 -51856244.07048 -40367324.45746  20891209.6484                   20891206.7464
 -11681805.79347  -9087074.63045  22263936.2814                   22263936.4654
 11  8 23  1  3 30.0000000  0  9G10G12G17G29G05G04G25G02G30
 -41518849.85547 -32329981.26745  21585156.1414                   21585156.2154
 -35672854.59848 -27775402.29446  20731765.7194                   20731764.7154
 -74047274.72345 -57675431.82343  24456584.7814                   24456587.0904
   6552053.16446   5148989.66443  24478234.7894                   24478235.7664
 -32113498.74248 -25001933.49746  20519392.1564                   20519391.6294
 -55240544.91846 -43020624.99143  23382461.5944                   23382462.7814
 -13314080.71147 -10354800.28745  22344406.5234                   22344408.1484
 -51893629.64848 -40396456.08646  20884095.3204                   20884092.3244
 -11801964.11347  -9180704.49245  22241071.2274                   22241070.5274
 11  8 23  1  4  0.0000000  0  9G10G12G17G29G05G04G25G02G30
 -41514803.65647 -32326828.38445  21585926.0944                   21585926.1374
 -35737150.86348 -27825503.27146  20719531.0634                   20719529.8284
 -74037071.47345 -57667481.21542  24458526.6174                   24458528.5824
   6410171.66046   5038432.64643  24451236.1254                   24451237.0634
 -32215747.28948 -25081607.65646  20499934.8594                   20499934.4574
 -55220473.85546 -43004985.24243  23386281.1334                   23386282.2234
 -13440512.31647 -10453318.45045  22320347.1954                   22320348.6294
 -51930800.18048 -40425420.12046  20877022.0634                   20877019.0314
 -11921546.13747  -9273885.28844  22218314.9844                   22218314.7424
 11  8 23  1  4 30.0000000  0  9G10G12G17G29G05G04G25G02G30
 -41510208.73847 -32323247.91745  21586800.1884                   21586799.9734
 -35800803.25848 -27875102.53446  20707418.2894                   20707417.5234
 -74026620.58645 -57659337.74242  24460515.6954                   24460516.9454
   6268276.60946   4927865.09643  24424234.2274                   24424235.1564
 -32317386.53948 -25160807.04746  20480593.4534                   20480592.8954
 -55200367.91446 -42989318.29143  23390107.6564                   23390108.6214
 -13566429.25447 -10551435.57445  22296385.7274                   22296387.8014
 -51967752.33647 -40454214.01246  20869990.1094                   20869987.4414
 -12040545.61347  -9366612.17345  22195670.0784                   22195670.0904
 11  8 23  1  5  0.0000000  0  8G10G12G29G05G04G25G02G30
 -41505066.95747 -32319241.31545  21587779.0554                   21587778.6644
 -35863811.77048 -27924200.06146  20695428.3594                   20695426.7814
   6126368.83246   4817287.64842  24397229.5164                   24397230.1484
 -32418414.84848 -25239530.36146  20461368.6334                   20461367.8484
 -55180227.70746 -42973624.60243  23393939.9614                   23393940.8714
 -13691829.14147 -10649149.77345  22272522.9694                   22272525.0314
 -52004486.82047 -40482838.27846  20862999.7974                   20862997.2934
 -12158960.44947  -9458883.48544  22173136.2034                   22173136.2504
 11  8 23  1  5 30.0000000  0  8G10G12G29G05G04G25G02G30
 -41499379.38747 -32314809.45645  21588861.3984                   21588861.1024
 -35926174.33648 -27972794.26446  20683560.9924                   20683559.9844
   5984450.63746   4706702.05142  24370224.3674                   24370223.3754
 -32518829.87948 -25317775.80546  20442260.0164                   20442259.2114
 -55160052.37546 -42957903.59343  23397779.4304                   23397780.1254
 -13816708.16047 -10746458.13145  22248759.2734                   22248761.0044
 -52041003.32847 -40511292.70446  20856051.1334                   20856048.1844
 -12276787.03547  -9550696.41944  22150714.7114                   22150714.3554
 11  8 23  1  6  0.0000000  0  8G10G12G29G05G04G25G02G30
 -41493134.97347 -32309943.67645  21590049.8594                   21590049.0664
 -35987877.36348 -28020874.54346  20671818.9844                   20671817.8594
   5842536.16046   4596119.33242  24343218.3204                   24343218.7544
 -32618616.74648 -25395531.77946  20423271.3914                   20423270.5124
 -55139829.42246 -42942145.45843  23401627.4844                   23401628.1294
 -13941050.72747 -10843348.46845  22225097.7664                   22225099.1174
 -52077289.31647 -40539567.49446  20849145.9614                   20849142.8794
 -12394010.16447  -9642039.13744  22128408.2274                   22128407.6484
 11  8 23  1  6 30.0000000  0  8G10G12G29G05G04G25G02G30
 -41486335.52047 -32304645.40445  21591343.8204                   21591343.1884
 -36048919.80948 -28068440.08346  20660203.3204                   20660201.6684
   5700626.64846   4485540.53142  24316213.0394                   24316214.3054
 -32717773.34848 -25472796.62346  20404402.6174                   20404401.9104
 -55119558.83246 -42926350.22443  23405485.0164                   23405485.1914
 -14064853.85247 -10939818.42845  22201538.5164                   22201540.2304
 -52113344.94547 -40567662.79046  20842284.7504                   20842281.9384
 -12510626.90247  -9732909.31845  22106216.9614                   22106216.6174
 11  8 23  1  7  0.0000000  0  8G10G12G29G05G04G25G02G30
 -41478986.52047 -32298918.90845  21592741.8674                   21592741.5274
 -36109304.88348 -28115493.39546  20648712.2584                   20648711.5474
   5558719.65646   4374963.70742  24289208.8914                   24289210.0394
 -32816302.43748 -25549572.50346  20385652.9384                   20385652.5554
 -55099244.59446 -42910520.96843  23409350.8364                   23409350.9804
 -14188118.60547 -11035868.86145  22178081.8984                   22178084.2734
 -52149174.44148 -40595581.87946  20835467.0004                   20835463.9654
 -12626638.75847  -9823308.19144  22084140.0634                   22084140.3754
 11  8 23  1  7 30.0000000  0  8G10G12G29G05G04G25G02G30
 -41471089.16047 -32292765.11545  21594244.6804                   21594244.3594
 -36169030.80948 -28162033.07946  20637346.8594                   20637346.0354
   5416817.36746   4264390.54342  24262206.3364                   24262206.5084
 -32914201.27347 -25625857.26846  20367023.6094                   20367022.7034
 -55078886.16446 -42894657.24543  23413225.2504                   23413224.7584
 -14310841.35947 -11131496.96645  22154728.3134                   22154730.7934
 -52184777.08648 -40623324.19346  20828692.1254                   20828689.1914
 -12742042.38347  -9913233.08945  22062179.7894                   22062179.8874
 11  8 23  1  8  0.0000000  0  8G10G12G29G05G04G25G02G30
 -41462651.01647 -32286189.91945  21595850.6804                   21595849.9184
 -36228103.14548 -28208063.46546  20626105.3364                   20626104.3914
   5274916.00446   4153818.09042  24235203.9144                   24235204.4104
 -33011473.64147 -25701653.87746  20348512.9694                   20348512.3874
 -55058489.41446 -42878763.70143  23417106.2344                   23417106.8444
 -14433025.03547 -11226705.01445  22131477.8444                   22131479.9024
 -52220159.12947 -40650894.61546  20821958.4844                   20821956.0004
 -12856840.94547 -10002686.50945  22040334.0554                   22040334.3794
 11  8 23  1  8 30.0000000  0  8G10G12G29G05G04G25G02G30
 -41453675.12547 -32279195.72245  21597558.5784                   21597558.0234
 -36286522.27748 -28253584.88446  20614988.8594                   20614987.5944
   5133015.10546   4043246.04943  24208200.4144                   24208201.2114
 -33108119.21147 -25776962.09246  20330122.0234                   20330121.3954
 -55038055.44146 -42862841.23743  23420995.0004                   23420995.4104
 -14554668.18047 -11321491.87645  22108330.2584                   22108331.9144
 -52255322.14847 -40678294.37646  20815267.7424                   20815264.6484
 -12971033.24647 -10091667.52445  22018603.9534                   22018603.8714
 11  8 23  1  9  0.0000000  0  8G10G12G29G05G04G25G02G30
 -39868747.74647 -31044187.38445  21899160.0944                   21899159.7074
 -34768869.50447 -27070998.31146  20903788.6094                   20903787.1644
   6566536.53146   5160275.78942  24480990.9064                   24480990.3954
 -31628717.15647 -24624181.23246  20611642.6564                   20611642.3324
 -53442169.19547 -41619293.53343  23724682.3444                   23724682.7074
 -13100348.11347 -10188255.42645  22385077.6724                   22385079.9774
 -50714849.28947 -39477925.92146  21108409.6724                   21108407.3094
 -11509197.13747  -8952574.45145  22296782.6724                   22296781.9304
 11  8 23  1  9 30.0000000  0  8G10G12G29G05G04G25G02G30
 -39858712.61747 -31036367.79145  21901069.6254                   21901069.3094
 -34825990.48848 -27115508.19646  20892918.7814                   20892917.3014
   6424630.38346   5049699.60043  24453986.0164                   24453986.3444
 -31724114.66848 -24698516.92046  20593489.3204                   20593488.5594
 -53421671.82446 -41603321.60343  23728582.4694                   23728582.7464
 -13220912.42647 -10282201.62345  22362135.3674                   22362137.7234
 -50749585.33648 -39504992.98046  21101799.3594                   21101796.8594
 -11622180.12547  -9040613.13245  22275282.3914                   22275282.4774
 11  8 23  1 10  0.0000000  0  8G10G12G29G05G04G25G02G30
 -39848152.18447 -31028138.87245  21903079.5164                   21903079.0514
 -34882462.91048 -27159512.68546  20882172.6254                   20882171.4774
   6282722.36746   4939122.04743  24426983.1644                   24426983.2274
 -31818887.12948 -24772365.55246  20575454.5554                   20575454.0634
 -53401144.23046 -41587326.15043  23732489.1564                   23732489.0164
 -13340934.62547 -10375725.37645  22339295.9454                   22339297.6024
 -50784109.78148 -39531895.14746  21095230.2894                   21095227.2234
 -11734556.19947  -9128178.90445  22253898.0474                   22253898.6214
 11  8 23  1 10 30.0000000  0  8G10G12G29G05G04G25G02G30
 -39837069.83647 -31019503.26845  21905188.1484                   21905188.1174
 -34938288.00448 -27203012.77246  20871549.5944                   20871548.1804
   6140812.02346   4828542.69143  24399977.5554                   24399978.9454
 -31913034.40248 -24845727.02846  20557539.3134                   20557538.2544
 -53380588.08247 -41571308.32743  23736400.3134                   23736400.6844
 -13460413.53947 -10468825.77545  22316559.6484                   22316561.6334
 -50818424.38748 -39558633.81646  21088699.8914                   21088697.1954
 -11846324.46547  -9215271.03145  22232629.5554                   22232629.7304
 11  8 23  1 11  0.0000000  0  8G10G12G29G05G04G25G02G30
 -39825469.12547 -31010463.75645  21907396.0164                   21907395.4064
 -34993466.89848 -27246009.34146  20861049.4454                   20861048.0514
   5998899.39546   4717961.49343  24372973.1024                   24372973.4614
 -32006556.94547 -24918601.69946  20539741.9844                   20539741.5004
 -53360005.16846 -41555269.73543  23740316.9694                   23740317.1334
 -13579348.16847 -10561502.08045  22293926.9924                   22293929.5204
 -50852531.26647 -39585210.59246  21082209.7584                   21082207.0394
 -11957484.26647  -9301889.04644  22211476.1484                   22211475.9064
 11  8 23  1 11 30.0000000  0  8G10G12G29G05G04G25G02G30
 -39813353.70747 -31001023.16545  21909701.1884                   21909700.9224
 -35048000.44548 -27288503.01746  20850672.0864                   20850671.0274
   5856984.07446   4607378.22943  24345967.5234                   24345967.5514
 -32099454.58247 -24990989.44546  20522064.6724                   20522063.1994
 -53339397.28946 -41539211.67843  23744238.2734                   23744239.3984
 -13697737.66847 -10653753.57745  22271398.7424                   22271401.0354
 -50886432.57047 -39611627.21646  21075758.5314                   21075755.7304
 -12068035.00847  -9388032.47444  22190439.2504                   22190438.7384
 11  8 23  1 12  0.0000000  0  8G10G12G29G05G04G25G02G30
 -39800730.30147 -30991186.74245  21912103.2584                   21912102.8874
 -35101892.82848 -27330497.09746  20840416.5004                   20840415.2234
   5715063.10546   4496790.52743  24318960.0084                   24318960.2704
 -32191730.57047 -25062892.77546  20504504.7664                   20504504.2274
 -53318768.81246 -41523137.61743  23748163.0474                   23748165.5554
 -13815583.75447 -10745581.65145  22248973.1884                   22248974.6564
 -50920132.82447 -39637887.15146  21069345.9064                   21069342.9884
 -12177978.87547  -9473702.97744  22169517.5084                   22169517.2504
 11  8 23  1 12 30.0000000  0  8G10G12G29G05G04G25G02G30
 -39787600.64847 -30980955.84745  21914602.2664                   21914602.0314
 -35155143.39148 -27371991.05246  20830283.1884                   20830282.1254
   5573138.04746   4386199.64943  24291952.6334                   24291952.6954
 -32283383.39847 -25134310.53146  20487063.8594                   20487063.2894
 -53298119.96946 -41507047.64043  23752093.1954                   23752094.8014
 -13932883.83647 -10836984.25845  22226651.4534                   22226653.5514
 -50953632.23048 -39663990.58046  21062970.6724                   21062968.1644
 -12287313.50047  -9558898.75144  22148711.9534                   22148711.7464
 11  8 23  1 13  0.0000000  0  8G10G12G29G05G04G25G02G30
 -39773967.30547 -30970332.45345  21917196.1884                   21917196.2304
 -35207752.25848 -27412984.99446  20820272.0394                   20820270.7774
   5431209.88746   4275606.31343  24264945.1564                   24264945.3134
 -32374412.01647 -25205241.87946  20469741.3754                   20469740.9454
 -53277451.23446 -41490942.19443  23756026.3594                   23756028.8954
 -14049635.79347 -10927959.77745  22204434.3594                   22204436.3284
 -50986931.49248 -39689938.05346  21056634.5474                   21056631.3094
 -12396037.10547  -9643618.42945  22128022.5164                   22128022.5904
 11  8 23  1 13 30.0000000  0  8G10G12G29G05G04G25G02G30
 -39759835.16847 -30959320.40345  21919885.6644                   21919885.5554
 -35259722.11748 -27453480.99846  20810382.4224                   20810381.1174
   5289277.06646   4165009.36043  24237935.4384                   24237936.3594
 -32464817.86748 -25275687.96346  20452537.7814                   20452536.8674
 -53256765.18746 -41474823.23443  23759963.6884                   23759964.6914
 -14165839.68047 -11018508.19945  22182321.5164                   22182323.3714
 -51020033.50847 -39715731.82246  21050334.8984                   21050332.3754
 -12504150.05547  -9727862.23845  22107448.7424                   22107449.3594
 11  8 23  1 14  0.0000000  0  8G10G12G29G05G04G25G02G30
 -39745203.64547 -30947919.22544  21922669.3134                   21922669.3674
 -35311049.89148 -27493476.69346  20800615.1564                   20800613.9654
   5147343.41046   4054411.76543  24210927.0004                   24210927.6024
 -32554596.91847 -25345645.64246  20435452.8284                   20435452.0434
 -53236059.72347 -41458689.10643  23763903.8444                   23763904.5704
 -14281490.62147 -11108625.78145  22160313.8524                   22160315.3834
 -51052936.07047 -39741370.17446  21044074.0474                   21044071.1094
 -12611647.96947  -9811626.82945  22086992.7734                   22086992.6524
 11  8 23  1 14 30.0000000  0  8G10G12G29G05G04G25G02G30
 -39730076.39847 -30936131.75944  21925548.1414                   21925547.4654
 -35361736.74248 -27532972.94446  20790969.7034                   20790968.5394
   5005408.84846   3943813.43243  24183916.8674                   24183917.9534
 -32643749.42248 -25415115.08246  20418488.0084                   20418487.4574
 -53215336.62147 -41442541.31343  23767847.5314                   23767848.0664
 -14396587.79347 -11198311.82945  22138411.3284                   22138413.5204
 -51085641.85248 -39766855.17446  21037850.1884                   21037847.3754
 -12718530.14847  -9894911.59645  22066653.8834                   22066653.5164
 11  8 23  1 15  0.0000000  0  8G10G12G29G05G04G25G02G30
 -39714457.00447 -30923960.82344  21928520.5234                   21928519.7854
 -35411784.16448 -27571970.95246  20781446.4614                   20781445.1094
   4863473.64846   3833214.55043  24156907.2424                   24156908.6564
 -32732275.87948 -25484096.69746  20401641.9844                   20401641.2854
 -53194597.09047 -41426380.69543  23771794.2034                   23771794.6094
 -14511130.03147 -11287565.47045  22116614.8284                   22116616.4844
 -51118151.91048 -39792187.68146  21031664.1024                   21031660.7344
 -12824795.95347  -9977716.06544  22046432.0944                   22046431.7344
 11  8 23  1 15 30.0000000  0  8G10G12G29G05G04G25G02G30
 -39698353.12547 -30911412.35544  21931585.0004                   21931584.4344
 -35461197.00448 -27610474.47346  20772043.3984                   20772042.5474
   4721533.55946   3722611.86543  24129897.4774                   24129897.9144
 -32820180.28948 -25552593.61846  20384914.3284                   20384913.7234
 -53173846.55947 -41410211.53043  23775742.5944                   23775743.0664
 -14625120.21947 -11376388.96845  22094923.4224                   22094925.2934
 -51150472.19947 -39817372.30946  21025513.3984                   21025510.5864
 -12930448.57847 -10060042.76444  22026327.0084                   22026326.2894
 11  8 23  1 16  0.0000000  0  8G10G12G29G05G04G25G02G30
 -39681759.68747 -30898482.39444  21934743.0314                   21934741.7234
 -35509968.09448 -27648477.92646  20762762.6174                   20762761.1764
   4579597.40646   3612012.32043  24102887.8134                   24102888.5864
 -32907454.22748 -25620599.25346  20368306.7584                   20368305.9734
 -53153078.03947 -41394028.31643  23779695.2034                   23779695.2274
 -14738548.79347 -11464774.82945  22073338.3914                   22073340.1054
 -51182595.53948 -39842403.46046  21019400.3754                   21019397.6684
 -13035478.85247 -10141884.48245  22006340.3984                   22006340.3444
 11  8 23  1 16 30.0000000  0  8G10G12G29G05G04G25G02G30
 -39664679.15647 -30885172.90145  21937993.6644                   21937992.6914
 -35558097.69148 -27685981.50646  20753603.4224                   20753602.9104
   4437666.03546   3501416.43043  24075879.4774                   24075879.9264
 -32994096.92248 -25688113.00946  20351819.2114                   20351818.8054
 -53132291.91446 -41377831.37743  23783649.6954                   23783651.0394
 -14851413.77347 -11552721.52645  22051860.8524                   22051862.6764
 -51214523.03547 -39867282.01746  21013325.2114                   21013322.4654
 -13139885.12947 -10223239.99145  21986472.5234                   21986472.2894
 11  8 23  1 17  0.0000000  0  8G10G12G29G05G04G25G02G30
 -39647116.52347 -30871487.75745  21941335.3914                   21941334.9844
 -35605588.74648 -27722987.53346  20744566.6174                   20744565.2464
   4295737.83646   3390823.03443  24048871.5004                   24048871.0354
 -33080110.32848 -25755136.40946  20335451.4924                   20335450.8364
 -53111491.23446 -41361623.19843  23787607.9774                   23787608.6684
 -14963715.83247 -11640229.58445  22030490.0234                   22030492.3134
 -51246257.71148 -39892010.32246  21007285.9454                   21007283.1254
 -13243668.50047 -10304110.11045  21966723.1414                   21966722.9104
 11  8 23  1 17 30.0000000  0  8G10G12G29G05G04G25G02G30
 -39629075.08247 -30857429.50345  21944768.2664                   21944768.1484
 -35652441.89548 -27759496.47346  20735650.5704                   20735649.5124
   4153813.30546   3280232.48143  24021863.7894                   24021864.5594
 -33165494.21548 -25821669.27546  20319203.4774                   20319202.4574
 -53090677.35546 -41345404.66643  23791568.3754                   23791569.3834
 -15075453.68747 -11727298.01045  22009227.0084                   22009229.2114
 -51277800.93047 -39916589.45846  21001283.6414                   21001280.8914
 -13346828.05147 -10384494.12445  21947092.2814                   21947091.9414
 11  8 23  1 18  0.0000000  0  8G10G12G29G05G04G25G02G30
 -39610557.36347 -30843000.11845  21948292.6334                   21948292.2344
 -35698657.47748 -27795508.61046  20726856.1334                   20726854.7034
   4011893.84046   3169645.90143  23994857.7504                   23994858.2894
 -33250247.82048 -25887711.02047  20303075.4924                   20303074.6024
 -53069850.62146 -41329176.13843  23795531.7974                   23795532.9774
 -15186625.22747 -11813925.15945  21988071.8834                   21988073.8324
 -51309153.46548 -39941019.99946  20995317.3834                   20995314.3914
 -13449362.14847 -10464390.78745  21927581.1564                   21927580.4064
 11  8 23  1 18 30.0000000  0  8G10G12G29G05G04G25G02G30
 -39591570.19147 -30828204.91145  21951905.0554                   21951905.2814
 -35744240.57048 -27831027.90146  20718181.7814                   20718180.9774
   3869975.97346   3059060.55243  23967852.0554                   23967851.4414
 -33334374.67648 -25953264.39046  20287066.1954                   20287065.7854
 -53049015.09846 -41312940.67143  23799496.3284                   23799498.1844
 -15297232.76247 -11900112.82745  21967024.0234                   21967025.9774
 -51340320.26647 -39965305.82546  20989386.7734                   20989383.9694
 -13551273.35547 -10543802.08445  21908188.0004                   21908187.4804
 11  8 23  1 19  0.0000000  0  8G10G12G29G05G04G25G02G30
 -39572113.31247 -30813043.70444  21955607.9774                   21955607.8204
 -35789188.39548 -27866052.17146  20709628.3674                   20709627.6414
   3728063.57846   2948479.51843  23940846.6884                   23940846.9144
 -33417871.25848 -26018326.62647  20271177.4454                   20271176.7774
 -53028169.03946 -41296697.06243  23803463.2734                   23803465.1914
 -15407271.60947 -11985857.36445  21946084.2734                   21946086.0634
 -51371299.21147 -39989445.26246  20983491.2734                   20983488.7624
 -13652557.43047 -10622724.70545  21888913.9614                   21888913.7424
 11  8 23  1 19 30.0000000  0  8G10G12G29G05G04G25G02G30
 -39552188.70747 -30797518.01944  21959399.3754                   21959399.3554
 -35833500.68748 -27900581.22946  20701196.2664                   20701194.9534
   3586158.35546   2837904.09044  23913843.0164                   23913843.4614
 -33500736.94548 -26082897.26546  20255408.6564                   20255407.8324
 -53007312.25046 -41280445.02443  23807432.6334                   23807433.8954
 -15516739.41847 -12071156.94845  21925253.3524                   21925254.9184
 -51402090.36748 -40013438.37746  20977631.9064                   20977629.0044
 -13753212.46947 -10701157.19045  21869760.1724                   21869759.4694
 11  8 23  1 20  0.0000000  0  8G10G12G29G05G04G25G02G30
 -39531799.06247 -30781629.98244  21963278.9844                   21963278.8674
 -35877177.61748 -27934615.19746  20692884.4304                   20692883.8444
   3444261.36346   2727335.08043  23886841.1884                   23886840.0474
 -33582970.55948 -26146975.36846  20239760.1644                   20239759.3794
 -52986444.76646 -41264184.71143  23811403.8834                   23811405.3524
 -15625634.02347 -12156009.86645  21904531.2894                   21904532.6524
 -51432694.09847 -40037285.45146  20971808.6954                   20971805.5554
 -13853236.68447 -10779098.10345  21850725.9064                   21850725.7234
 11  8 23  1 20 30.0000000  0  8G10G12G29G05G04G25G02G30
 -39510946.74647 -30765381.42244  21967247.2584                   21967247.3364
 -35920219.92248 -27968154.65446  20684693.9844                   20684693.2154
   3302374.25846   2616773.71444  23859840.1334                   23859840.1914
 -33664571.23448 -26210560.27746  20224232.3204                   20224231.1294
 -52965566.56646 -41247916.01643  23815377.4384                   23815377.9454
 -15733953.29747 -12240414.49045  21883919.1254                   21883920.8594
 -51463110.64147 -40060986.66546  20966020.9454                   20966017.3554
 -13952628.40247 -10856546.17145  21831812.0314                   21831811.8594
 11  8 23  1 21  0.0000000  0  8G10G12G29G05G04G25G02G30
 -39489633.62147 -30748773.80844  21971303.2974                   21971302.6174
 -35962627.18048 -28001199.26546  20676624.3444                   20676623.3054
   3160498.63346   2506221.35643  23832842.4774                   23832842.0554
 -33745537.81648 -26273651.09146  20208824.3674                   20208823.6604
 -52944677.90646 -41231639.10843  23819351.7974                   23819353.4844
 -15841694.90247 -12324368.96845  21863416.3284                   21863418.1024
 -51493340.50447 -40084542.40546  20960268.0004                   20960265.6484
 -14051385.57047 -10933499.79145  21813019.3054                   21813018.9534
 11  8 23  1 21 30.0000000  0  8G10G12G29G05G04G25G02G30
 -39467864.19147 -30731810.61744  21975445.4844                   21975445.4884
 -36004401.78148 -28033750.90046  20668674.8754                   20668673.8054
   3018633.77346   2395677.38744  23805846.3444                   23805846.5474
 -33825871.80548 -26336248.96746  20193537.5944                   20193536.6684
 -52923780.45746 -41215355.42843  23823328.3444                   23823330.5394
 -15948858.87948 -12407873.34845  21843023.8054                   21843025.5474
 -51523386.13347 -40107954.58646  20954551.0164                   20954547.8834
 -14149508.83647 -11009959.43945  21794347.3594                   21794347.1374
 11  8 23  1 22  0.0000000  0  8G10G12G29G05G04G25G02G30
 -37870221.66847 -29486894.37944  22279467.3754                   22279466.2734
 -34470122.31248 -26838208.46546  20960638.3444                   20960637.4694
   4452206.27746   3512746.92443  24078645.7424                   24078646.4184
 -32330149.72348 -25170751.21446  20478163.7974                   20478162.9344
 -51327455.23846 -39971465.58843  24127100.3674                   24127100.5124
 -14480019.59848 -11263323.26145  22122534.7424                   22122536.3984
 -49977826.95747 -38903622.76146  21248660.6094                   21248657.6524
 -12671573.27747  -9858321.32545  22075588.8834                   22075588.6054
 11  8 23  1 22 30.0000000  0  8G10G12G29G05G04G25G02G30
 -37847545.53147 -29469224.62444  22283782.1254                   22283781.3594
 -34510630.69147 -26869773.42546  20952930.1954                   20952928.9884
   4310368.91846   3402224.37343  24051654.6644                   24051655.0594
 -32409214.61348 -25232360.16946  20463118.2584                   20463117.6254
 -51306539.78946 -39955167.76443  24131080.0394                   24131080.6054
 -14586020.68048 -11345921.49045  22102363.3594                   22102364.9844
 -50007503.57047 -38926747.38846  21243013.1254                   21243010.6094
 -12768422.21547  -9933788.00845  22057158.8754                   22057158.7704
 11  8 23  1 23  0.0000000  0  8G10G12G29G05G04G25G02G30
 -37824421.28547 -29451205.77444  22288182.6954                   22288182.0004
 -34550508.64848 -26900847.16846  20945341.4144                   20945340.2974
   4168545.27346   3291712.56843  24024667.1024                   24024666.2974
 -32487646.07448 -25293475.57046  20448193.5084                   20448192.5554
 -51285617.34446 -39938864.63243  24135061.7424                   24135061.8484
 -14691439.19948 -11428065.78645  22082303.0004                   22082304.4844
 -50036998.20347 -38949730.20546  21237400.7504                   21237398.2584
 -12864633.60247 -10008757.91845  22038850.4844                   22038850.5274
 11  8 23  1 23 30.0000000  0  8G10G12G29G05G04G25G02G30
 -37800850.98447 -29432839.28744  22292668.1644                   22292667.4844
 -34589755.58648 -26931429.19246  20937872.9454                   20937872.1644
   4026737.18046   3181212.80144  23997681.6954                   23997681.9414
 -32565442.62148 -25354096.21446  20433389.2194                   20433388.0394
 -51264687.49246 -39922555.54543  24139044.4144                   24139043.9654
 -14796272.72348 -11509754.23645  22062353.4144                   22062355.5594
 -50066310.82047 -38972571.19746  21231822.6414                   21231819.8714
 -12960205.34047 -10083229.39345  22020664.4454                   22020663.5044
 11  8 23  1 24  0.0000000  0  8G10G12G29G05G04G25G02G30
 -37776836.12947 -29414126.39044  22297237.3134                   22297237.6914
 -34628371.50848 -26961519.52946  20930524.4144                   20930523.1134
   3884947.16046   3070727.19044  23970700.1804                   23970699.7894
 -32642602.63348 -25414220.87246  20418706.0394                   20418705.3404
 -51243749.44146 -39906240.13343  24143028.6804                   24143028.5434
 -14900518.37147 -11590984.61345  22042516.3444                   22042518.4104
 -50095440.77747 -38995269.83546  21226279.4224                   21226276.7384
 -13055135.17247 -10157200.69145  22002599.3914                   22002598.9734
 11  8 23  1 24 30.0000000  0  8G10G12G29G05G04G25G02G30
 -37752384.08246 -29395072.85944  22301890.5864                   22301890.8324
 -34666361.80548 -26991122.35846  20923295.5394                   20923294.1374
   3743171.48846   2960252.69544  23943720.9454                   23943720.8094
 -32719130.52348 -25473852.96946  20404143.1094                   20404142.3244
 -51222808.18046 -39889922.18643  24147014.0084                   24147012.6454
 -15004179.14148 -11671759.21945  22022790.4844                   22022792.5124
 -50124393.20747 -39017830.13946  21220769.7894                   21220766.8594
 -13149426.39547 -10230674.36045  21984656.5554                   21984655.6334
 11  8 23  1 25  0.0000000  0  8G10G12G29G05G04G25G02G30
 -37727500.03147 -29375682.64444  22306625.3204                   22306626.2114
 -34703729.31648 -27020239.91946  20916184.6564                   20916183.3324
   3601409.19546   2849788.63643  23916743.9614                   23916744.1524
 -32795028.90648 -25532994.52546  20389699.9694                   20389699.3714
 -51201866.36746 -39873603.78043  24150998.3914                   24150997.7234
 -15107255.77748 -11752078.68645  22003175.6414                   22003177.4104
 -50153171.32447 -39040254.62145  21215293.3364                   21215290.6454
 -13243080.22347 -10303651.37745  21966834.6174                   21966834.1524
 11  8 23  1 25 30.0000000  0  8G10G12G29G05G04G25G02G30
 -37702182.18047 -29355954.43444  22311443.5784                   22311443.8134
 -34740470.35248 -27048869.30646  20909192.9844                   20909191.9574
   3459665.90246   2739339.42944  23889770.8364                   23889772.0124
 -32870292.60248 -25591641.53146  20375377.9064                   20375377.0514
 -51180919.96546 -39857281.81043  24154983.4924                   24154984.0514
 -15209742.16048 -11831938.19145  21983673.2504                   21983674.4534
 -50181771.62947 -39062540.53946  21209850.9614                   21209848.1024
 -13336090.94547 -10376127.24345  21949135.3444                   21949134.8914
 11  8 23  1 26  0.0000000  0  8G10G12G29G05G04G25G02G30
 -37676435.59447 -29335892.17744  22316343.2664                   22316343.2274
 -34776587.91448 -27077012.88646  20902319.9384                   20902318.8284
   3317940.43446   2628904.04744  23862801.6254                   23862802.1604
 -32944923.34448 -25649795.32946  20361176.2194                   20361175.6054
 -51159971.64546 -39840958.45742  24158968.9454                   24158970.5784
 -15311638.99647 -11911338.31345  21964283.0784                   21964284.1644
 -50210196.37147 -39084689.66346  21204441.7584                   21204439.4304
 -13428459.85547 -10448103.02545  21931558.7194                   21931557.8914
 11  8 23  1 26 30.0000000  0  8G10G12G29G05G04G25G02G30
 -37650259.66447 -29315495.36244  22321324.9614                   22321323.9414
 -34812079.86748 -27104668.96146  20895566.2894                   20895564.9654
   3176237.16846   2518486.01843  23835836.4924                   23835836.8094
 -33018918.07048 -25707453.53046  20347095.6954                   20347094.8634
 -51139018.60245 -39824631.37542  24162956.0004                   24162957.7114
 -15412941.62948 -11990275.42045  21945005.5944                   21945007.3244
 -50238443.46547 -39106700.36146  21199066.5234                   21199063.4264
 -13520182.78547 -10519575.41945  21914103.8674                   21914104.0314
 11  8 23  1 27  0.0000000  0  8G10G12G29G05G04G25G02G30
 -37623659.83247 -29294768.16844  22326386.4384                   22326385.2734
 -34846949.48048 -27131840.09546  20888930.9384                   20888929.4734
   3034554.38347   2408083.96944  23808875.1884                   23808875.2584
 -33092279.15248 -25764617.97546  20333135.4614                   20333134.7814
 -51118063.78545 -39808303.07743  24166943.8674                   24166945.9884
 -15513651.16848 -12068750.38045  21925841.5864                   21925843.1764
 -50266515.78947 -39128574.88846  21193724.6484                   21193721.2814
 -13611261.26247 -10590545.69445  21896772.4144                   21896772.2854
 11  8 23  1 27 30.0000000  0  8G10G12G29G05G04G25G02G30
 -37596640.38747 -29273714.03945  22331528.1094                   22331527.1174
 -34881199.26248 -27158528.26046  20882413.1724                   20882412.5904
   2892892.22346   2297697.93844  23781917.5944                   23781917.6454
 -33165008.26248 -25821289.98346  20319295.1804                   20319294.6684
 -51097109.16845 -39791974.68043  24170931.7504                   24170933.7934
 -15613767.60948 -12146763.18845  21906789.4924                   21906791.6414
 -50294415.89847 -39150315.21146  21188415.5474                   21188412.4804
 -13701695.77347 -10661014.12545  21879563.1884                   21879562.9844
 11  8 23  1 28  0.0000000  0  8G10G12G29G05G04G25G02G30
 -37569203.37947 -29252334.55044  22336749.2034                   22336748.3444
 -34914829.46948 -27184733.63146  20876013.2584                   20876012.5514
   2751252.34847   2187329.24944  23754964.6954                   23754964.1724
 -33237104.21148 -25877468.61746  20305575.8674                   20305575.5044
 -51076154.03545 -39775645.87643  24174919.6564                   24174921.4304
 -15713288.64148 -12224312.04045  21887851.5234                   21887853.2194
 -50322143.63347 -39171921.23346  21183139.4534                   21183136.0704
 -13791484.45347 -10730979.33445  21862476.8054                   21862476.6884
 11  8 23  1 28 30.0000000  0  8G10G12G29G05G04G25G02G30
 -37541353.13746 -29230633.05744  22342048.6414                   22342048.2584
 -34947842.30548 -27210457.93946  20869731.5234                   20869730.3594
   2609634.50447   2076977.75344  23728015.6024                   23728015.7074
 -33308568.41848 -25933154.99146  20291977.1024                   20291975.9344
 -51055200.28546 -39759318.31943  24178907.1884                   24178908.3404
 -15812214.34848 -12301396.99345  21869026.4454                   21869027.8094
 -50349701.11347 -39193394.57246  21177895.1884                   21177891.7934
 -13880627.91847 -10800441.79245  21845513.3204                   21845513.4694
 11  8 23  1 29  0.0000000  0  8G10G12G29G05G04G25G02G30
 -37513094.13747 -29208613.04044  22347426.4694                   22347426.0704
 -34980241.00848 -27235703.69346  20863566.5944                   20863565.0474
   2468037.79347   1966642.75444  23701070.4694                   23701070.9224
 -33379402.80548 -25988350.58846  20278497.2734                   20278496.4024
 -51034250.35246 -39742993.75643  24182894.2034                   24182894.9774
 -15910545.32048 -12378018.53145  21850313.9144                   21850316.4264
 -50377090.87547 -39214737.22446  21172683.2974                   21172680.2154
 -13969127.25847 -10869402.31845  21828672.6414                   21828672.2154
 11  8 23  1 29 30.0000000  0  8G10G12G29G05G04G25G02G30
 -37484427.78947 -29186275.59144  22352881.1564                   22352880.3714
 -35012024.60248 -27260470.14146  20857518.0474                   20857517.0634
   2326465.22346   1856326.53943  23674130.4224                   23674129.7704
 -33449605.78548 -26043054.19046  20265138.1724                   20265137.1024
 -51013302.77346 -39726670.95443  24186880.0084                   24186881.8244
 -16008278.41848 -12454174.19945  21831716.1804                   21831718.3634
 -50404311.55947 -39235948.15146  21167503.0784                   21167500.0664
 -14056979.81247 -10937858.85245  21811954.7194                   21811954.7544
 11  8 23  1 30  0.0000000  0  8G10G12G29G05G04G25G02G30
 -37455356.23446 -29163622.41444  22358412.7034                   22358412.3404
 -35043193.59448 -27284757.70246  20851586.8674                   20851585.7304
   2184918.48846   1746030.43243  23647194.6724                   23647194.3204
 -33519176.98448 -26097265.49746  20251899.3444                   20251898.3834
 -50992357.31646 -39710349.68243  24190866.4774                   24190867.5864
 -16105411.82047 -12529862.57045  21813233.1884                   21813234.5274
 -50431363.61347 -39257027.67246  21162355.1484                   21162352.2344
 -14144184.28947 -11005810.39545  21795360.1024                   21795360.0314
 11  8 23  1 30 30.0000000  0  8G10G12G29G05G04G25G02G30
 -37425881.47747 -29140655.10744  22364021.7814                   22364021.4224
 -35073748.44547 -27308566.69546  20845772.2034                   20845771.3834
   2043399.64146   1635756.05244  23620264.5554                   23620263.8714
 -33588115.52348 -26150983.81046  20238780.4304                   20238779.7194
 -50971413.77346 -39694030.05243  24194851.5704                   24194851.9844
 -16201943.34848 -12605081.94045  21794863.3204                   21794865.1954
 -50458246.63747 -39277975.46846  21157239.6954                   21157236.5044
 -14230739.03147 -11073255.64945  21778889.8834                   21778889.7974
 11  8 23  1 31  0.0000000  0  9G10G12G26G29G05G04G25G02G30
 -37396009.48047 -29117378.23144  22369706.1564                   22369706.1804
 -35103693.21547 -27331900.28846  20840073.8674                   20840072.7974
  10786126.21555   8437524.75852  24775402.6024                   24775404.7814
   1901906.65246   1525501.83343  23593339.3204                   23593339.6334
 -33656424.38348 -26204211.46446  20225781.8284                   20225780.8404
 -50950475.23446 -39677714.32743  24198835.9384                   24198836.1764
 -16297874.82047 -12679833.73245  21776608.2194                   21776610.2934
 -50484964.48047 -39298794.56546  21152155.0004                   21152152.6094
 -14316646.28147 -11140196.36745  21762542.1484                   21762542.2624
 11  8 23  1 31 30.0000000  0  9G10G12G26G29G05G04G25G02G30
 -37365752.59846 -29093801.43944  22375463.7814                   22375464.1644
 -35133038.93047 -27354767.10446  20834489.5234                   20834488.8634
  10636074.67645   8320601.57042  24746847.4694                   24746850.3914
   1760431.27346   1415261.25143  23566417.1724                   23566417.6214
 -33724113.48448 -26256956.18847  20212901.4224                   20212900.2934
 -50929551.57046 -39661410.22143  24202818.2584                   24202818.8014
 -16393214.53948 -12754124.42445  21758465.8054                   21758467.4494
 -50511527.60547 -39319493.09146  21147100.0704                   21147097.3054
 -14401914.97347 -11206639.50945  21746315.9844                   21746315.8244
 11  8 23  1 32  0.0000000  0  9G10G12G26G29G05G04G25G02G30
 -37335119.88746 -29069931.82344  22381293.7114                   22381293.6604
 -35161792.50047 -27377172.47646  20829017.9534                   20829017.1804
  10485923.86345   8203601.03142  24718275.9144                   24718277.7074
   1618968.91847   1305030.87944  23539497.6094                   23539497.7114
 -33791188.80548 -26309222.64246  20200137.1954                   20200135.9304
 -50908649.24246 -39645122.67743  24206795.6174                   24206796.5984
 -16487967.27748 -12827957.72746  21740434.8364                   21740436.8014
 -50537942.48047 -39340076.10546  21142073.7424                   21142070.6564
 -14486550.31647 -11272589.10845  21730210.0474                   21730210.1374
 11  8 23  1 32 30.0000000  0  9G10G12G26G29G05G04G25G02G30
 -37304112.73846 -29045770.41144  22387194.3524                   22387194.1884
 -35189953.67247 -27399116.27046  20823659.4304                   20823658.5784
  10335677.97746   8086526.41042  24689685.2894                   24689686.4534
   1477521.98846   1194812.48444  23512581.3594                   23512581.7664
 -33857649.03148 -26361009.81146  20187490.0634                   20187488.6844
 -50887767.18446 -39628850.94043  24210768.8674                   24210769.8634
 -16582130.33648 -12901331.53646  21722516.4144                   21722518.1214
 -50564208.32047 -39360542.98846  21137075.3524                   21137072.6994
 -14570550.18747 -11338043.54445  21714225.7504                   21714225.1174
 11  8 23  1 33  0.0000000  0  9G10G12G26G29G05G04G25G02G30
 -37272734.12946 -29021319.53444  22393164.9454                   22393165.0944
 -35217523.90647 -27420599.58146  20818412.5084                   20818411.7734
  10185339.17646   7969379.47742  24661076.1094                   24661077.7274
   1336091.16446   1084606.66344  23485667.9454                   23485667.9024
 -33923494.84848 -26412318.21246  20174959.8204                   20174958.8484
 -50866905.91446 -39612595.42243  24214739.5784                   24214739.6764
 -16675702.87148 -12974245.21345  21704710.3754                   21704711.5274
 -50590325.78147 -39380894.23645  21132105.4694                   21132102.5904
 -14653914.33647 -11403002.61445  21698362.0474                   21698361.8524
 11  8 23  1 33 30.0000000  0  9G10G12G26G29G05G04G25G02G30
 -37240983.12946 -28996578.50644  22399206.8834                   22399206.2464
 -35244500.90247 -27441620.62346  20813279.2114                   20813278.4264
  10034914.48046   7852165.49242  24632451.3284                   24632452.3554
   1194682.02046    974417.72944  23458758.6254                   23458758.6994
 -33988722.84448 -26463145.19847  20162547.5704                   20162546.6484
 -50846061.86746 -39596353.23743  24218706.0314                   24218705.8484
 -16768679.87547 -13046694.82346  21687017.1804                   21687018.5234
 -50616291.68047 -39401127.40945  21127164.2424                   21127161.2424
 -14736638.10547 -11467462.69545  21682620.4144                   21682619.9844
 11  8 23  1 34  0.0000000  0  9G10G12G26G29G05G04G25G02G30
 -37208861.48046 -28971548.64644  22405319.2424                   22405319.0944
 -35270884.68047 -27462179.43146  20808258.9064                   20808257.7584
   9884407.99245   7734887.82842  24603811.1804                   24603812.1724
   1053296.92646    864247.46844  23431853.6954                   23431854.4064
 -34053331.74648 -26513489.76946  20150252.9384                   20150251.6564
 -50825234.39346 -39580123.94443  24222669.4144                   24222669.1684
 -16861058.98448 -13118678.54946  21669438.1174                   21669439.3014
 -50642105.59847 -39421242.14745  21122251.7974                   21122249.1684
 -14818719.83647 -11531422.46145  21667001.0394                   21667000.5474
 11  8 23  1 34 30.0000000  0  9G10G12G26G29G05G04G25G02G30
 -37176369.79346 -28946230.43344  22411501.8674                   22411501.9384
 -35296673.94147 -27482274.96946  20803351.1564                   20803349.9884
   9733824.80146   7617550.39142  24575155.0394                   24575157.0664
    911939.16446    754098.55243  23404953.9384                   23404955.3054
 -34117319.56248 -26563350.37646  20138076.4224                   20138075.3484
 -50804421.22746 -39563905.93742  24226629.2274                   24226628.1564
 -16952836.81648 -13190193.72845  21651973.0164                   21651974.7114
 -50667766.01647 -39441237.27945  21117369.2344                   21117366.3554
 -14900156.68447 -11594879.75345  21651504.1564                   21651503.4414
 11  8 23  1 35  0.0000000  0  9G10G12G26G29G05G04G25G02G30
 -37143511.91046 -28920626.91044  22417755.0634                   22417754.7664
 -35321871.46548 -27501909.41846  20798556.1254                   20798555.2074
   9583166.50045   7500154.40642  24546484.7664                   24546487.5234
    770608.96546    643971.16443  23378060.1644                   23378060.8204
 -34180687.63748 -26612728.06846  20126017.7114                   20126016.5314
 -50783623.88746 -39547700.12542  24230585.7194                   24230585.1884
 -17044013.39848 -13261240.41546  21634623.0164                   21634624.6994
 -50693274.59447 -39461114.09445  21112514.7114                   21112512.0004
 -14980949.09847 -11657834.86545  21636129.6954                   21636129.0744
 11  8 23  1 35 30.0000000  0  9G10G12G26G29G05G04G25G02G30
 -35534869.28146 -27667139.11344  22723869.9384                   22723869.2894
 -33771055.08248 -26293481.08646  21093666.8204                   21093665.7664
  11007863.93845   8610308.32842  24817596.7194                   24817598.5704
   2204735.06346   1761472.03044  23650965.3364                   23650964.9774
 -32668011.69148 -25434019.51446  20413870.4844                   20413869.5824
 -49187420.69546 -38303905.50442  24534332.7734                   24534333.4924
 -15559161.99247 -12104213.34846  21917180.5944                   21917182.2774
 -49143208.24647 -38253270.16145  21407483.0474                   21407479.7384
 -13485671.33647 -10492683.36145  21920671.5394                   21920671.2814
 11  8 23  1 36  0.0000000  0  9G10G12G26G29G05G04G25G02G30
 -35501283.96946 -27640968.76144  22730261.0084                   22730260.7194
 -33795069.07447 -26312193.29546  21089097.1884                   21089096.1374
  10857068.38345   8492805.35542  24788901.8914                   24788902.3754
   2063467.91046   1651393.75344  23624082.9774                   23624083.2034
 -32730138.04347 -25482429.62746  20402048.0004                   20402046.9694
 -49166651.90645 -38287721.95342  24538284.5084                   24538285.1254
 -15649128.96148 -12174317.46546  21900059.9774                   21900061.9414
 -49168410.63347 -38272908.37845  21402686.5944                   21402683.7074
 -13565169.72747 -10554630.16045  21905543.2664                   21905542.8714
 11  8 23  1 36 30.0000000  0  9G10G12G26G29G05G04G25G02G30
 -35467337.02047 -27614516.59744  22736720.6094                   22736720.6414
 -33818491.37548 -26330444.46346  21084640.1564                   21084638.7894
  10706210.32845   8375253.71542  24760194.3284                   24760195.1054
   1922236.26246   1541343.17444  23597207.3054                   23597207.8874
 -32791641.71947 -25530354.55147  20390344.3594                   20390343.3164
 -49145895.85545 -38271548.33242  24542234.4064                   24542234.4064
 -15738487.68047 -12243947.61746  21883055.8524                   21883057.5514
 -49193459.01647 -38292426.57845  21397919.8674                   21397917.6024
 -13644018.34847 -10616070.63345  21890539.1094                   21890538.3284
 11  8 23  1 37  0.0000000  0  9G10G12G26G29G05G04G25G02G30
 -35433037.12547 -27587789.41144  22743247.9614                   22743248.3404
 -33841328.86748 -26348239.92446  21080294.5704                   21080292.8714
  10555287.77745   8257651.88742  24731473.7114                   24731475.7114
   1781035.85546   1431316.96044  23570338.0944                   23570338.3984
 -32852528.98448 -25577799.14446  20378757.8834                   20378756.7304
 -49125158.29346 -38255389.21542  24546181.2584                   24546180.4574
 -15827242.57048 -12313107.28346  21866166.5394                   21866168.0984
 -49218359.43447 -38311829.48645  21393182.1254                   21393179.1884
 -13722222.34447 -10677008.82945  21875657.3444                   21875656.5594
 11  8 23  1 37 30.0000000  0  9G10G12G26G29G05G04G25G02G30
 -35398383.36346 -27560786.49244  22749842.0634                   22749842.3524
 -33863578.80148 -26365577.54846  21076060.1484                   21076059.0634
  10404307.02345   8140004.59442  24702743.2584                   24702744.3524
   1639871.92246   1321319.13244  23543475.5784                   23543476.2464
 -32912796.24247 -25624760.62146  20367289.1414                   20367288.4614
 -49104435.42246 -38239241.47342  24550123.6564                   24550124.5354
 -15915388.75847 -12381792.60446  21849392.6564                   21849394.1484
 -49243108.34847 -38331114.33245  21388472.4534                   21388469.8094
 -13799777.26647 -10737441.22645  21860899.0314                   21860898.1914
 11  8 23  1 38  0.0000000  0  9G10G12G26G29G05G04G25G02G30
 -35363377.91846 -27533509.51444  22756503.4614                   22756503.2504
 -33885243.05548 -26382458.80846  21071937.7814                   21071936.5434
  10253271.53146   8022314.70342  24674001.7734                   24674003.2234
   1498745.90646   1211350.88244  23516619.9694                   23516620.9494
 -32972443.77348 -25671239.21246  20355938.9694                   20355938.1134
 -49083727.36346 -38223105.30542  24554065.3364                   24554065.9694
 -16002925.06247 -12450002.70446  21832734.8914                   21832737.1644
 -49267706.17648 -38350281.45946  21383791.6804                   21383788.9454
 -13876682.61347 -10797367.46745  21846264.3834                   21846263.8794
 11  8 23  1 38 30.0000000  0  9G10G12G26G29G05G04G25G02G30
 -35328023.59446 -27505960.70744  22763231.4694                   22763229.9884
 -33906322.39148 -26398884.28146  21067926.3914                   21067925.5394
  10102184.88746   7904584.94542  24645251.7584                   24645252.3834
   1357659.62546   1101413.59844  23489771.6484                   23489772.6564
 -33031471.28147 -25717234.65146  20344706.1644                   20344705.1214
 -49063033.90246 -38206980.62243  24558004.7424                   24558003.7274
 -16089850.06647 -12517736.47746  21816194.2504                   21816195.9104
 -49292152.87947 -38369330.81046  21379139.5634                   21379136.7304
 -13952937.48047 -10856786.84445  21831753.5704                   21831752.8794
 11  8 23  1 39  0.0000000  0  9G10G12G26G29G05G04G25G02G30
 -35292323.00047 -27478142.00544  22770025.1094                   22770023.8874
 -33926818.44948 -26414855.24246  21064026.0634                   21064025.1294
   9951049.73046   7786817.41842  24616490.8284                   24616492.8754
   1216614.52747    991508.40644  23462932.0554                   23462932.1914
 -33089879.81648 -25762747.77647  20333591.3594                   20333590.1414
 -49042354.97746 -38190867.03143  24561939.6334                   24561939.3914
 -16176162.94547 -12584993.25546  21799769.4924                   21799770.7234
 -49316449.28547 -38388263.05946  21374516.1254                   21374513.1524
 -14028541.66047 -10915699.20045  21817366.9454                   21817366.1214
 11  8 23  1 39 30.0000000  0  9G10G12G26G29G05G04G25G02G30
 -35256281.14846 -27450057.43444  22776883.2664                   22776882.5824
 -33946734.39148 -26430374.17146  21060236.0944                   21060235.1024
   9799867.35946   7669013.07842  24587721.9304                   24587723.2034
   1075610.01246    881634.85844  23436100.2734                   23436100.3164
 -33147671.37948 -25807780.14546  20322594.0634                   20322592.9144
 -49021693.21546 -38174767.01143  24565871.3054                   24565871.7934
 -16261864.58247 -12651773.74446  21783460.8524                   21783462.0634
 -49340597.55547 -38407079.87646  21369920.9694                   21369917.8754
 -14103496.61747 -10974105.66745  21803102.9774                   21803103.1644
 11  8 23  1 40  0.0000000  0  9G10G12G26G29G05G04G25G02G30
 -35219897.95746 -27421706.91844  22783806.7424                   22783806.3634
 -33966068.76248 -26445439.91846  21056556.9454                   21056556.3444
   9648643.82846   7551176.69142  24558945.4224                   24558946.5594
    934650.45746    771796.32844  23409275.9144                   23409276.5474
 -33204843.64548 -25852329.94046  20311714.5164                   20311713.3634
 -49001045.20346 -38158677.56543  24569800.6254                   24569800.4774
 -16346951.21547 -12718075.00546  21767269.2034                   21767270.9964
 -49364595.22747 -38425779.34546  21365354.0394                   21365351.5554
 -14177799.04747 -11032003.65845  21788963.9774                   21788963.5354
 11  8 23  1 40 30.0000000  0  9G10G12G26G29G05G04G25G02G30
 -35183177.51646 -27393093.57944  22790794.5554                   22790793.9264
 -33984824.45348 -26460054.76246  21052987.7424                   21052987.0704
   9497380.45346   7433309.22742  24530160.3284                   24530161.7544
    793735.87947    661992.80544  23382460.8134                   23382461.2814
 -33261398.57048 -25896398.70447  20300952.5704                   20300951.2934
 -48980413.04356 -38142600.67253  24573726.0704                   24573727.0704
 -16431423.33247 -12783897.43146  21751194.5784                   21751196.7194
 -49388444.44147 -38444363.14346  21360815.7814                   21360812.7274
 -14251450.18047 -11089394.15145  21774948.4144                   21774948.2464
 11  8 23  1 41  0.0000000  0  9G10G12G26G29G05G04G25G02G30
 -35146124.92646 -27364221.43244  22797845.2894                   22797845.0124
 -34003005.34048 -26474221.69546  21049528.4614                   21049527.5204
   9346078.60246   7315411.76043  24501368.8524                   24501370.0704
    652865.74247    552223.97244  23355653.6804                   23355654.1884
 -33317338.62147 -25939988.32847  20290307.4844                   20290306.1684
 -48959798.51246 -38126537.46142  24577648.8284                   24577650.5124
 -16515282.12947 -12849241.94146  21735237.1254                   21735239.3014
 -49412147.29347 -38462832.87645  21356305.3134                   21356301.8794
 -14324451.69147 -11146278.43845  21761056.5554                   21761056.7344
 11  8 23  1 41 30.0000000  0  9G10G12G26G29G05G04G25G02G30
 -35108741.29346 -27335091.35644  22804959.7664                   22804958.5394
 -34020611.50448 -26487940.80046  21046177.7424                   21046177.4184
   9194742.64546   7197487.73842  24472570.3674                   24472571.3484
    512042.55546    442491.65044  23328855.9144                   23328855.9844
 -33372663.16447 -25983098.34947  20279779.5944                   20279778.3364
 -48939200.74246 -38110487.27742  24581568.6334                   24581570.0514
 -16598525.55547 -12914106.93246  21719396.4534                   21719398.5554
 -49435703.36347 -38481188.26845  21351822.6024                   21351819.5084
 -14396802.21147 -11202655.48145  21747288.7734                   21747288.5824
 11  8 23  1 42  0.0000000  0  9G10G12G26G29G05G04G25G02G30
 -35071027.53546 -27305704.03744  22812135.8914                   22812135.6804
 -34037642.34448 -26501211.58046  21042937.0084                   21042936.0554
   9043377.91446   7079541.29443  24443766.8444                   24443768.0664
    371270.34046    332799.04544  23302068.2734                   23302067.7854
 -33427370.74247 -26025727.60147  20269368.7814                   20269367.9774
 -48918617.57846 -38094448.46543  24585486.0004                   24585486.1804
 -16681150.60247 -12978490.07846  21703673.3444                   21703674.9924
 -49459110.86747 -38499427.86746  21347368.3914                   21347365.2734
 -14468499.38347 -11258523.40445  21733645.5394                   21733644.9144
 11  8 23  1 42 30.0000000  0  9G10G12G26G29G05G04G25G02G30
 -35032989.45346 -27276063.99144  22819374.3054                   22819373.8834
 -34054102.39148 -26514037.59646  21039805.1174                   21039804.1334
   8891984.71546   6961572.66843  24414957.3984                   24414958.8874
    230547.32046    223144.78444  23275289.1334                   23275289.3714
 -33481464.68047 -26067878.69047  20259075.1334                   20259074.0944
 -48898051.81246 -38078423.17243  24589398.8594                   24589399.4774
 -16763159.26647 -13042392.91146  21688067.2194                   21688069.0354
 -49482373.11747 -38517554.29245  21342941.7974                   21342938.3094
 -14539545.62547 -11313884.10345  21720125.4694                   21720125.0204
 11  8 23  1 43  0.0000000  0  9G10G12G26G29G05G04G25G02G30
 -34994629.55946 -27246173.16144  22826674.4694                   22826672.9694
 -34069993.58648 -26526420.35446  21036780.5784                   21036779.7114
   8740565.93446   6843584.12542  24386142.9384                   24386144.3634
     89875.27346    113530.23644  23248519.6334                   23248520.0204
 -33534945.69148 -26109552.18647  20248898.0394                   20248897.0204
 -48877503.71146 -38062411.74043  24593309.3834                   24593309.4144
 -16844550.81647 -13105814.88546  21672579.0704                   21672581.1484
 -49505490.32447 -38535567.68945  21338542.7274                   21338539.5984
 -14609940.87947 -11368737.55445  21706729.5944                   21706729.1844
 11  8 23  1 43 30.0000000  0  9G10G12G26G29G05G04G25G02G30
 -34955951.19546 -27216034.18844  22834034.4384                   22834033.7424
 -34085317.69548 -26538361.23046  21033864.8054                   21033863.8634
   8589124.23846   6725577.72843  24357324.5944                   24357326.2624
    -50745.31647      3955.77144  23221760.8134                   23221761.1844
 -33587815.05947 -26150749.07347  20238837.3524                   20238836.2774
 -48856974.12546 -38046414.79143  24597216.6334                   24597216.2154
 -16925325.16847 -13168755.92146  21657208.4224                   21657209.9804
 -49528463.39547 -38553468.75945  21334171.0394                   21334168.0204
 -14679685.70747 -11423084.17945  21693457.9694                   21693457.6844
 11  8 23  1 44  0.0000000  0  9G10G12G26G29G05G04G25G02G30
 -34916958.78146 -27185650.43944  22841454.8674                   22841454.0864
 -34100078.12148 -26549862.86546  21031056.2664                   21031055.1684
   8437661.52746   6607554.89343  24328502.3914                   24328503.2974
   -191313.91446   -105578.21044  23195011.9144                   23195011.9884
 -33640074.82447 -26191470.93947  20228892.7814                   20228891.8484
 -48836464.32446 -38030433.09143  24601120.2034                   24601119.1604
 -17005482.94147 -13231216.50246  21641954.8204                   21641956.4104
 -49551294.10247 -38571258.89345  21329826.5394                   21329823.7074
 -14748781.36347 -11476924.94045  21680309.1804                   21680308.8874
 11  8 23  1 44 30.0000000  0  9G10G12G26G29G05G04G25G02G30
 -34877657.15246 -27155025.75044  22848932.8204                   22848932.6054
 -34114278.37948 -26560928.01646  21028353.8364                   21028352.7074
   8286178.69546   6489516.51242  24299676.4454                   24299676.4844
   -331830.88746   -215071.93344  23168271.7974                   23168272.1294
 -33691727.71947 -26231719.92647  20219063.5944                   20219062.2774
 -48815976.43446 -38014468.60243  24605018.0784                   24605018.1604
 -17085025.39847 -13293197.62746  21626818.4224                   21626819.9804
 -49573985.15247 -38588940.23745  21325508.4454                   21325505.8484
 -14817229.66047 -11530261.27345  21667284.3054                   21667284.6374
 11  8 23  1 45  0.0000000  0  9G10G12G26G29G05G04G25G02G30
 -34838046.13746 -27124160.04144  22856471.1644                   22856470.6414
 -34127917.18048 -26571555.65246  21025758.5864                   21025757.6604
   8134682.12546   6371467.27243  24270847.0474                   24270848.3914
   -472291.89146   -324522.07844  23141544.0234                   23141543.3754
 -33742771.56247 -26271494.31647  20209349.9774                   20209349.0204
 -48795507.56646 -37998518.89542  24608912.1024                   24608913.2814
 -17163948.92247 -13354696.44846  21611799.6644                   21611801.4694
 -49596533.91447 -38606510.68745  21321217.4924                   21321214.7624
 -14885027.66047 -11583090.88245  21654382.8364                   21654382.4694
 11  8 23  1 45 30.0000000  0  8G10G12G26G29G05G25G02G30
 -34798131.23046 -27093057.49144  22864066.3594                   22864066.3954
 -34140998.96148 -26581749.26446  21023268.9924                   21023268.0664
   7983172.06346   6253407.75943  24242015.7194                   24242017.1844
   -612698.44946   -433929.79044  23114824.9064                   23114825.2974
 -33793209.81648 -26310796.81546  20199752.2034                   20199751.1564
 -17242255.76247 -13415714.75246  21596898.3524                   21596899.7584
 -49618943.57447 -38623972.74545  21316953.0084                   21316950.5634
 -14952178.14547 -11635415.91945  21641604.3054                   21641604.2304
 11  8 23  1 46  0.0000000  0  8G10G12G26G29G05G25G02G30
 -34757907.25046 -27061714.13944  22871720.6024                   22871720.4964
 -34153517.21948 -26591503.75046  21020886.7424                   21020885.7074
   7831660.00446   6135346.43943  24213183.5784                   24213184.8874
   -753040.90246   -543287.56444  23088118.8054                   23088118.6334
 -33843035.09048 -26349621.67447  20190270.6024                   20190269.3134
 -17319937.14148 -13476245.67446  21582116.2034                   21582118.1764
 -49641206.77047 -38641320.70545  21312716.3204                   21312713.6294
 -15018673.03147 -11687230.11545  21628950.9454                   21628950.3554
 11  8 23  1 46 30.0000000  0  8G10G12G26G29G05G25G02G30
 -34717372.16446 -27030128.38943  22879434.6334                   22879433.4414
 -34165470.00048 -26600817.62346  21018612.4614                   21018611.3364
   7680153.19146   6017289.45743  24184352.4774                   24184354.2274
   -893312.84446   -652590.37144  23061425.1884                   23061425.7664
 -33892243.80148 -26387966.10047  20180906.3674                   20180904.9264
 -17396988.00448 -13536285.28146  21567453.9534                   21567455.8484
 -49663318.40648 -38658550.54345  21308508.7344                   21308506.2114
 -15084507.85947 -11738529.96545  21616422.6724                   21616422.5594
 11  8 23  1 47  0.0000000  0  8G10G12G26G29G05G25G02G30
 -34676523.40246 -26998298.20144  22887207.9144                   22887206.4734
 -34176852.96148 -26609687.47046  21016446.4224                   21016445.1604
   7528660.85246   5899243.51543  24155525.1094                   24155525.4804
  -1033507.27346   -761832.80244  23034748.2034                   23034747.9384
 -33940831.05148 -26425826.27147  20171660.3524                   20171659.4304
 -17473402.19548 -13595828.80646  21552912.8284                   21552913.9844
 -49685273.80547 -38675658.66945  21304331.1024                   21304327.8984
 -15149677.04747 -11789311.14645  21604021.6884                   21604021.4494
 11  8 23  1 47 30.0000000  0  8G10G12G26G29G05G25G02G30
 -34635364.64146 -26966226.44743  22895039.8674                   22895038.5944
 -34187668.96148 -26618115.52046  21014388.0944                   21014386.9304
   7377185.62146   5781211.01443  24126699.7114                   24126701.0554
  -1173623.30546   -871014.09144  23008084.1484                   23008084.6334
 -33988798.72748 -26463203.64646  20162532.6804                   20162531.4384
 -17549179.79748 -13654876.26146  21538493.0234                   21538494.3134
 -49707073.75447 -38692645.61746  21300183.0394                   21300179.2774
 -15214181.41448 -11839574.26945  21591746.8834                   21591746.2544
 11  8 23  1 48  0.0000000  0  8G10G12G26G29G05G25G02G30
 -34593903.14846 -26933918.78644  22902929.9844                   22902928.2424
 -34197923.67248 -26626106.21646  21012436.6484                   21012435.9614
   7225725.84446   5663190.58343  24097877.1094                   24097878.7664
  -1313663.70346   -980136.44944  22981436.0634                   22981435.7934
 -34036151.93048 -26500102.22247  20153521.6024                   20153520.3134
 -17624324.90248 -13713430.87846  21524192.8834                   21524194.5824
 -49728723.52048 -38709515.55746  21296062.6804                   21296059.4774
 -15278025.55947 -11889322.95245  21579597.4614                   21579597.0084
 11  8 23  1 48 30.0000000  0  8G10G12G26G29G05G25G02G30
 -34552139.70346 -26901375.83743  22910877.6484                   22910876.8244
 -34207617.48048 -26633659.84546  21010592.0474                   21010591.4264
   7074286.96946   5545186.44943  24069059.6174                   24069061.1454
  -1453624.98047  -1089197.16044  22954801.9694                   22954802.1054
 -34082889.44148 -26536521.03847  20144627.6334                   20144626.4224
 -17698834.90248 -13771490.61246  21510014.6024                   21510015.5784
 -49750221.08248 -38726266.90145  21291971.8834                   21291968.4844
 -15341207.62947 -11938555.72945  21567574.4694                   21567574.1844
 11  8 23  1 49  0.0000000  0  8G10G12G26G29G05G25G02G30
 -34510081.58646 -26868603.26743  22918880.4614                   22918879.4654
 -34216756.98048 -26640781.54046  21008852.6254                   21008851.4804
   6922867.55946   5427197.39043  24040246.1094                   24040246.4414
  -1593510.27047  -1198198.64144  22928182.9064                   22928183.2344
 -34129017.26248 -26572464.75947  20135849.6564                   20135848.8674
 -17772714.16048 -13829058.84346  21495955.3984                   21495957.0044
 -49771571.96948 -38742903.95745  21287909.1334                   21287906.2934
 -15403732.52047 -11987276.40345  21555676.6954                   21555676.3014
 11  8 23  1 49 30.0000000  0  8G10G12G26G29G05G25G02G30
 -32892320.19146 -25608009.96943  23226730.0394                   23226730.3014
 -32649930.35548 -25419877.68346  21307009.8524                   21307008.6954
   8346888.97346   6536824.54443  24311227.6804                   24311228.5984
   -157900.31647    -79541.47844  23201370.0704                   23201370.7034
 -32599121.50848 -25380338.17246  20426979.4774                   20426978.0354
 -16270546.74248 -12658538.76946  21781808.0474                   21781809.9304
 -48217362.44547 -37531831.59245  21583665.2344                   21583662.3014
 -13890185.43747 -10807889.05145  21843695.0004                   21843694.5744
 11  8 23  1 50  0.0000000  0  8G10G12G26G29G05G25G02G30
 -32849691.90246 -25574793.13443  23234841.8284                   23234841.5984
 -32657977.09048 -25426147.87146  21305478.8364                   21305477.9804
   8195507.67646   6418865.21043  24282420.9774                   24282421.9734
   -297639.19547   -188428.87444  23174778.6954                   23174778.5314
 -32644042.79348 -25415341.74846  20418431.0784                   20418429.6094
 -16343173.80148 -12715131.26046  21767987.9614                   21767989.8484
 -48238431.03947 -37548248.68645  21579656.3204                   21579653.3054
 -13951407.29347 -10855594.38545  21832045.0234                   21832044.2234
 11  8 23  1 50 30.0000000  0  8G10G12G26G29G05G25G02G30
 -32806779.68446 -25541355.02044  23243007.8914                   23243008.2344
 -32665477.82848 -25431992.60746  21304051.3914                   21304050.4104
   8044153.35546   6300926.92843  24253618.8914                   24253619.5274
   -437299.62547   -297255.13844  23148202.5314                   23148201.2384
 -32688359.25447 -25449874.02846  20409997.9774                   20409996.5944
 -16415171.18447 -12771233.11046  21754287.3834                   21754289.2384
 -48259355.63347 -37564553.54945  21575674.4224                   21575671.2234
 -14011975.05147 -10902790.02745  21820518.7504                   21820518.6684
 11  8 23  1 51  0.0000000  0  8G10G12G26G29G05G25G02G30
 -32763591.47746 -25507701.87944  23251226.7664                   23251226.5084
 -32672439.13348 -25437417.00846  21302726.5084                   21302725.2664
   7892824.09846   6183008.14143  24224822.0234                   24224823.5554
   -576885.07447   -406022.95544  23121639.6254                   23121639.0634
 -32732077.62548 -25483940.27346  20401678.6024                   20401677.1684
 -16486543.69548 -12826848.04846  21740705.3524                   21740707.2074
 -48280142.03147 -37580750.75245  21571719.2114                   21571715.8134
 -14071894.04747 -10949480.16645  21809116.9614                   21809116.6374
 11  8 23  1 51 30.0000000  0  8G10G12G26G29G05G25G02G30
 -32720126.24246 -25473832.83644  23259497.5634                   23259497.2114
 -32678859.37948 -25442419.79746  21301505.0234                   21301504.1214
   7741526.93846   6065114.32443  24196030.9454                   24196031.8554
   -716389.82046   -514727.89444  23095093.1094                   23095092.0234
 -32775194.53548 -25517537.84246  20393473.3204                   20393472.0004
 -16557287.16448 -12881972.82346  21727243.5004                   21727245.1134
 -48300786.70747 -37596837.51045  21567789.9304                   21567787.2544
 -14131160.87547 -10995662.09745  21797838.2974                   21797838.2114
 11  8 23  1 52  0.0000000  0  8G10G12G26G29G05G25G02G30
 -32676390.34846 -25439752.89744  23267820.5864                   23267819.9264
 -32684743.56648 -25447004.88846  21300385.2814                   21300384.2304
   7590261.84046   5947245.51643  24167245.6644                   24167247.1954
   -855815.73447   -623371.37044  23068561.3444                   23068560.8754
 -32817714.59448 -25550670.32546  20385382.1884                   20385380.9064
 -16627404.75048 -12936609.90446  21713900.7504                   21713902.1844
 -48321293.22347 -37612816.61746  21563888.2424                   21563884.9384
 -14189779.23847 -11041338.73845  21786684.0634                   21786683.1454
 11  8 23  1 52 30.0000000  0  8G10G12G26G29G05G25G02G30
 -32632385.64147 -25405463.52343  23276194.2274                   23276193.3244
 -32690093.70348 -25451173.82046  21299367.0864                   21299366.4534
   7439032.84046   5829404.85943  24138467.6724                   24138469.0274
   -995160.71547   -731951.81944  23042044.5314                   23042044.3634
 -32859638.21148 -25583338.05746  20377404.2344                   20377403.0864
 -16696895.61748 -12990758.63246  21700677.0554                   21700678.6644
 -48341661.55547 -37628688.03546  21560012.4064                   21560008.8134
 -14247748.99647 -11086509.99045  21775652.6564                   21775652.5274
 11  8 23  1 53  0.0000000  0  8G10G12G26G29G05G25G02G30
 -32588112.98846 -25370965.37343  23284618.6484                   23284617.9414
 -32694909.80548 -25454926.63646  21298450.6884                   21298449.9534
   7287845.30546   5711596.53543  24109697.5164                   24109698.9534
  -1134420.82847   -840466.14844  23015543.9844                   23015543.9884
 -32900964.51247 -25615540.35346  20369540.2504                   20369539.1524
 -16765757.54748 -13044417.29346  21687572.8054                   21687574.4304
 -48361889.80947 -37644450.31045  21556162.7194                   21556159.3594
 -14305068.57447 -11131174.59645  21764745.1174                   21764745.1024
 11  8 23  1 53 30.0000000  0  8G10G12G26G29G05G25G02G30
 -32543580.19946 -25336264.54243  23293093.5474                   23293092.5864
 -32699198.32048 -25458268.33746  21297634.7974                   21297633.6334
   7136697.73846   5593819.32743  24080935.7974                   24080936.3244
  -1273599.04747   -948916.64044  22989059.7424                   22989058.5744
 -32941699.33648 -25647281.75346  20361788.4304                   20361787.5434
 -16833994.82448 -13097589.21746  21674587.9694                   21674589.2384
 -48381982.94947 -37660107.30545  21552339.0394                   21552336.5044
 -14361742.99247 -11175336.48445  21753960.1254                   21753959.9734
 11  8 23  1 54  0.0000000  0  8G10G12G26G29G05G25G02G30
 -32498790.80946 -25301363.65443  23301616.0784                   23301614.5354
 -32702962.48048 -25461201.45546  21296918.6094                   21296917.9694
   6985592.57446   5476075.11543  24052181.3284                   24052182.0474
  -1412695.31647  -1057303.31044  22962590.4304                   22962589.6024
 -32981844.83248 -25678563.94146  20354149.2894                   20354148.0164
 -16901608.37948 -13150275.11246  21661721.4614                   21661723.0594
 -48401941.87147 -37675659.69745  21548541.2504                   21548538.2854
 -14417773.75447 -11218996.82145  21743297.7114                   21743298.0004
 11  8 23  1 54 30.0000000  0  8G10G12G26G29G05G25G02G30
 -32453747.22747 -25266264.76843  23310187.2974                   23310186.1254
 -32706204.52348 -25463727.73446  21296301.3594                   21296300.4344
   6834533.08646   5358366.55843  24023434.7664                   24023436.1844
  -1551707.16047  -1165624.18344  22936137.1954                   22936136.7074
 -33021402.23048 -25709387.86446  20346621.7974                   20346620.4534
 -16968598.05548 -13202474.87546  21648973.5864                   21648975.2974
 -48421767.13347 -37691107.96645  21544768.3914                   21544765.5204
 -14473161.37947 -11262156.02345  21732758.1414                   21732758.0664
 11  8 23  1 55  0.0000000  0  8G10G12G26G29G05G25G02G30
 -32408451.83647 -25230969.61243  23318807.4144                   23318806.2274
 -32708925.59048 -25465848.04546  21295783.2894                   21295782.5864
   6683523.44946   5240696.77943  23994699.5164                   23994700.5664
  -1690632.28947  -1273877.48744  22909700.3364                   22909700.2344
 -33060371.83248 -25739753.75446  20339206.0084                   20339204.6914
 -17034962.88748 -13254187.74246  21636344.8594                   21636346.3674
 -48441458.13747 -37706451.58945  21541021.2504                   21541018.4144
 -14527905.60947 -11304813.87245  21722340.3364                   21722340.2194
 11  8 23  1 55 30.0000000  0  8G10G12G26G29G05G25G02G30
 -32362907.87546 -25195480.87343  23327473.2114                   23327473.3634
 -32711128.36748 -25467564.49446  21295364.0784                   21295362.7034
   6532566.58246   5123068.14443  23965972.9534                   23965973.4454
  -1829469.62947  -1382062.37144  22883280.1954                   22883280.3634
 -33098755.43448 -25769663.03846  20331901.6174                   20331900.5044
 -17100703.32448 -13305414.07346  21623835.0784                   21623836.7704
 -48461015.71147 -37721691.24545  21537299.1954                   21537296.9964
 -14582007.39147 -11346971.11845  21712045.8914                   21712045.0864
 11  8 23  1 56  0.0000000  0  8G10G12G26G29G05G25G02G30
 -32317116.78547 -25159799.46544  23336187.6724                   23336187.0434
 -32712813.41848 -25468877.52446  21295043.5864                   21295042.4414
   6381667.28146   5005484.40143  23937257.4844                   23937258.2704
  -1968215.91047  -1490176.29544  22856878.0004                   22856877.7304
 -33136552.78148 -25799115.50046  20324709.2114                   20324708.0984
 -17165817.90248 -13356152.71946  21611444.2504                   21611446.0514
 -48480438.77047 -37736826.08745  21533603.0704                   21533600.2194
 -14635466.11747 -11388627.27245  21701872.2664                   21701871.9304
 11  8 23  1 56 30.0000000  0  8G10G12G26G29G05G25G02G30
 -32271085.83646 -25123931.20643  23344946.7664                   23344946.9774
 -32713987.68747 -25469792.54646  21294820.3364                   21294819.0944
   6230824.15646   4887944.37943  23908553.1254                   23908553.7464
  -2106874.02347  -1598221.52544  22830491.8674                   22830491.6644
 -33173770.04348 -25828115.93946  20317627.2504                   20317625.7934
 -17230311.18748 -13406407.24246  21599171.5394                   21599173.5744
 -48499732.16047 -37751859.88645  21529931.8834                   21529928.8094
 -14688286.82047 -11429786.29245  21691821.1954                   21691820.5274
 11  8 23  1 57  0.0000000  0  8G10G12G26G29G05G25G02G30
 -32224816.23446 -25087876.98844  23353751.6414                   23353751.3444
 -32714651.85547 -25470310.06446  21294693.7664                   21294692.6724
   6080042.11746   4770451.97243  23879860.1564                   23879860.6414
  -2245440.89147  -1706195.63844  22804123.5554                   22804123.9884
 -33210406.98448 -25856664.19246  20310655.3444                   20310653.8594
 -17294181.72348 -13456176.50846  21587017.3754                   21587019.0704
 -48518894.73047 -37766791.75245  21526285.3674                   21526282.0704
 -14740468.93447 -11470447.69545  21681891.6484                   21681890.6524
 11  8 23  1 57 30.0000000  0  8G10G12G26G29G05G25G02G30
 -32178310.44546 -25051638.68443  23362601.4064                   23362601.3164
 -32714808.37547 -25470432.02246  21294663.8984                   21294662.7384
   5929324.59846   4653009.87743  23851179.2814                   23851179.6884
  -2383914.69547  -1814097.23244  22777772.5634                   22777772.7344
 -33246464.67248 -25884761.07246  20303793.3754                   20303792.2854
 -17357429.56648 -13505460.54946  21574981.4924                   21574983.1804
 -48537926.63347 -37781621.80045  21522663.5784                   21522660.7854
 -14792013.03147 -11510611.93545  21672082.7114                   21672082.6994
 11  8 23  1 58  0.0000000  0  8G10G12G26G29G05G25G02G30
 -32131574.54746 -25015221.11743  23371495.1334                   23371495.1214
 -32714462.85947 -25470162.79046  21294729.7584                   21294728.7854
   5778671.72346   4535618.12143  23822511.2584                   23822511.2274
  -2522297.14547  -1921927.67444  22751439.6414                   22751439.4534
 -33281947.75448 -25912410.21546  20297041.2734                   20297040.1564
 -17420057.96548 -13554261.90146  21563063.8524                   21563065.6054
 -48556831.34847 -37796352.72345  21519066.1334                   21519063.3554
 -14842923.05547 -11550282.08345  21662395.0944                   21662394.6804
 11  8 23  1 58 30.0000000  0  8G10G12G26G29G05G25G02G30
 -32084608.30946 -24978624.02643  23380432.7344                   23380432.4454
 -32713614.07847 -25469501.40646  21294891.0554                   21294890.4064
   5628090.23446   4418281.94443  23793855.6484                   23793856.4574
  -2660582.85547  -2029682.70345  22725124.8834                   22725124.8914
 -33316854.37148 -25939610.16446  20290398.8524                   20290397.5004
 -17482063.72748 -13602578.06946  21551264.1804                   21551266.0124
 -48575605.80547 -37810982.14045  21515493.9534                   21515490.6024
 -14893196.53547 -11589456.24645  21652827.9224                   21652827.7304
 11  8 23  1 59  0.0000000  0  8G10G12G26G29G05G25G02G30
 -32037415.00846 -24941850.02943  23389412.8834                   23389412.7234
 -32712264.64547 -25468449.90146  21295148.2114                   21295147.3324
   5477582.99246   4301003.68143  23765215.1254                   23765215.4614
  -2798770.68447  -2137361.48645  22698828.1414                   22698828.1914
 -33351186.43748 -25966362.40646  20283865.8594                   20283864.4224
 -17543447.41448 -13650409.50946  21539583.8204                   21539585.3874
 -48594250.89147 -37825510.77245  21511945.6334                   21511942.2814
 -14942834.60247 -11628135.25845  21643382.3284                   21643382.4024
 11  8 23  1 59 30.0000000  0  8G10G12G26G29G05G25G02G30
 -31989998.32846 -24904901.93043  23398435.9144                   23398434.9774
 -32710417.75447 -25467010.76946  21295499.5474                   21295498.6484
   5327152.42646   4183785.15043  23736589.5234                   23736590.0084
  -2936859.49247  -2244963.06645  22672551.2274                   22672550.3674
 -33384946.39548 -25992668.85546  20277441.6564                   20277439.9654
 -17604210.11348 -13697757.06046  21528020.9224                   21528022.2344
 -48612767.29347 -37839939.12945  21508422.0474                   21508418.6954
 -14991839.05947 -11666320.56945  21634057.0084                   21634057.1214
 11  8 23  2  0  0.0000000  0  8G10G12G26G29G05G25G02G30
 -31942360.56647 -24867781.60943  23407501.5234                   23407500.5204
 -32708075.90647 -25465185.95846  21295945.3204                   21295944.1764
   5176802.12546   4066629.16943  23707978.9844                   23707978.8594
  -3074847.76247  -2352486.35745  22646292.2034                   22646291.9104
 -33418135.19148 -26018530.24546  20271125.4454                   20271124.0824
 -17664351.84848 -13744620.73946  21516576.0864                   21516577.6914
 -48631155.18047 -37854267.33945  21504923.1334                   21504919.9774
 -15040210.59047 -11704012.67445  21624852.6484                   21624851.9494
 11  8 23  2  0 30.0000000  0  8G10G12G26G29G05G25G02G30
 -31894504.41446 -24830491.13543  23416608.3524                   23416606.9224
 -32705241.07047 -25462977.01046  21296484.7424                   21296483.7974
   5026535.72746   3949538.49843  23679383.7504                   23679384.4844
  -3212733.58247  -2459929.79045  22620053.7504                   22620053.6134
 -33450754.35548 -26043947.75946  20264918.6024                   20264916.9494
 -17723872.69148 -13791000.59946  21505249.5394                   21505251.6914
 -48649414.99647 -37868495.73945  21501447.8674                   21501445.2504
 -15087949.99247 -11741212.18045  21615767.8754                   21615767.3594
 11  8 23  2  1  0.0000000  0  8G10G12G26G29G05G25G02G30
 -31846433.99247 -24793033.66243  23425756.0004                   23425754.9304
 -32701917.04747 -25460386.85746  21297117.5634                   21297116.3244
   4876355.37546   3832514.97343  23650805.6954                   23650805.1844
  -3350516.07847  -2567292.70944  22593834.8204                   22593834.1764
 -33482806.46948 -26068923.42046  20258818.9924                   20258817.6724
 -17782774.13347 -13836897.81446  21494041.3524                   21494042.5354
 -48667548.03947 -37882625.35845  21497997.5784                   21497994.7154
 -15135059.31247 -11777920.73445  21606803.2114                   21606803.2894
 11  8 23  2  1 30.0000000  0  8G10G12G26G29G05G25G02G30
 -31798153.66046 -24755412.62443  23434943.3284                   23434942.4414
 -32698108.01647 -25457418.80346  21297842.3054                   21297841.5474
   4726262.56646   3715559.63343  23622243.6174                   23622243.2304
  -3488195.78147  -2674575.52745  22567634.8594                   22567634.2704
 -33514294.98847 -26093459.91946  20252827.1024                   20252825.8324
 -17841058.21148 -13882313.96246  21482949.8754                   21482951.7934
 -48685556.23847 -37896657.72645  21494570.6954                   21494567.8164
 -15181541.34047 -11814140.49045  21597957.8204                   21597958.0044
 11  8 23  2  2  0.0000000  0  8G10G12G26G29G05G25G02G30
 -31749666.53946 -24717630.43343  23444169.3284                   23444169.7114
 -32693816.37147 -25454074.68046  21298658.6954                   21298658.3914
   4576260.56646   3598675.06243  23593699.3444                   23593700.6484
  -3625770.77747  -2781776.77645  22541455.1884                   22541454.5084
 -33545221.62148 -26117558.58046  20246942.0004                   20246940.8634
 -17898725.54347 -13927249.52746  21471976.4454                   21471978.2114
 -48703440.05947 -37910593.14645  21491167.4224                   21491164.4574
 -15227397.32847 -11849872.40145  21589231.5944                   21589231.9924
 11  8 23  2  2 30.0000000  0  9G10G12G26G29G05G15G25G02G30
 -31700977.67646 -24679691.05643  23453434.9064                   23453435.2034
 -32689047.09847 -25450358.37246  21299566.5164                   21299565.7274
   4426350.46946   3481862.10943  23565171.4534                   23565172.1994
  -3763241.47747  -2888896.77445  22515295.5234                   22515295.2814
 -33575590.28147 -26141222.45646  20241162.7504                   20241161.5554
  13941626.09415                  24467859.695
 -17955778.64548 -13971706.47246  21461119.3754                   21461120.8594
 -48721201.98047 -37924433.59045  21487787.9224                   21487784.8484
 -15272630.44547 -11885118.97545  21580624.5084                   21580623.9264
 11  8 23  2  3  0.0000000  0  9G10G12G26G29G05G15G25G02G30
 -31652098.18746 -24641603.12743  23462736.4774                   23462736.3164
 -32683810.89147 -25446278.23346  21300562.9694                   21300562.3284
   4276527.42646   3365116.93743  23536661.5704                   23536661.4964
  -3900614.73447  -2995940.83945  22489154.0474                   22489153.4924
 -33605410.89547 -26164459.28846  20235488.1484                   20235487.0864
  13793190.35545  10776545.63752  24439614.1094                   24439613.0434
 -18012226.44148 -14015691.75246  21450377.8204                   21450379.5594
 -48738850.94947 -37938186.02745  21484429.3134                   21484426.2504
 -15317250.32847 -11919887.69245  21572133.1414                   21572133.2344
 11  8 23  2  3 30.0000000  0  9G10G12G26G29G05G15G25G02G30
 -30027616.55146 -23375773.28343  23771865.6174                   23771864.5824
 -31102694.40647 -24214239.42346  21601439.0784                   21601438.3794
   5702215.40646   4476042.71743  23807961.0004                   23807961.1564
  -2462468.49247  -1875307.36644  22762824.1724                   22762823.6764
 -32059268.47748 -24959672.97146  20529709.3204                   20529708.2034
  15220074.79746  11888403.81943  24711141.1484                   24711141.5554
 -16492651.69148 -12831607.52146  21739543.3914                   21739545.1214
 -47180970.48048 -36724253.16445  21780884.2584                   21780880.8754
 -13785840.82047 -10726581.56945  21863550.4144                   21863550.7894
 11  8 23  2  4  0.0000000  0  9G10G12G26G29G05G15G25G02G30
 -29978373.71946 -23337402.28343  23781236.6024                   23781235.8404
 -31096541.89147 -24209445.26446  21602609.8594                   21602609.3364
   5552566.77346   4359433.52243  23779483.0314                   23779484.3134
  -2599651.12547  -1982202.88544  22736719.5634                   22736719.0824
 -32088007.89848 -24982067.31746  20524240.7734                   20524239.0944
  15071430.64146  11772577.48443  24682854.9534                   24682855.8444
 -16547899.71948 -12874657.92746  21729029.6804                   21729031.3404
 -47198403.26647 -36737837.14345  21777567.0164                   21777563.7974
 -13829247.11347 -10760404.62745  21855291.0944                   21855290.2034
 11  8 23  2  4 30.0000000  0  9G10G12G26G29G05G15G25G02G30
 -29928949.96946 -23298890.31443  23790641.1254                   23790640.7934
 -31089931.63747 -24204294.43546  21603867.7194                   21603867.1374
   5403013.82046   4242898.80743  23751024.7894                   23751024.9774
  -2736732.53147  -2089019.50444  22710633.1724                   22710632.5904
 -32116205.50848 -25004039.46546  20518874.5164                   20518873.4414
  14922689.52346  11656675.38443  24654550.1484                   24654551.4804
 -16602545.25847 -12917238.87146  21718631.1564                   21718632.9454
 -47215725.12147 -36751334.67545  21774270.5004                   21774267.1484
 -13872045.04347 -10793753.65245  21847147.1094                   21847146.3444
 11  8 23  2  5  0.0000000  0  9G10G12G26G29G05G15G25G02G30
 -29879348.02046 -23260239.42743  23800080.7274                   23800078.9964
 -31082865.74247 -24198788.56746  21605212.6644                   21605211.5274
   5253560.13746   4126441.49443  23722584.3204                   23722584.5984
  -2873710.32847  -2195755.42045  22684567.7814                   22684566.5904
 -32143862.88348 -25025590.64646  20513611.7814                   20513610.2304
  14773854.06646  11540699.91643  24626227.1724                   24626229.5594
 -16656588.43447 -12959350.43146  21708347.4774                   21708348.5864
 -47232935.60547 -36764745.43545  21770995.6954                   21770992.3914
 -13914235.42247 -10826629.25845  21839117.8834                   21839117.9614
 11  8 23  2  5 30.0000000  0  9G10G12G26G29G05G15G25G02G30
 -29829567.53146 -23221449.41943  23809553.5704                   23809551.7584
 -31075344.07847 -24192927.54946  21606644.0474                   21606643.2344
   5104212.27746   4010066.62843  23694164.3204                   23694165.1884
  -3010579.90647  -2302407.01945  22658522.1564                   22658521.5084
 -32170978.90247 -25046720.00146  20508451.7894                   20508450.2974
  14624929.60246  11424655.05843  24597888.0634                   24597889.8134
 -16710026.93747 -13000990.82346  21698177.8284                   21698179.5004
 -47250032.23047 -36778067.46345  21767742.0084                   21767738.8404
 -13955816.49248 -10859030.09845  21831205.5164                   21831205.0204
 11  8 23  2  6  0.0000000  0  9G10G12G26G29G05G15G25G02G30
 -29779612.53146 -23182523.47743  23819058.7194                   23819058.0944
 -31067370.43047 -24186714.34246  21608161.3054                   21608160.2544
   4954972.10246   3893775.61243  23665765.1484                   23665765.5664
  -3147340.99647  -2408974.05245  22632496.7274                   22632496.6564
 -32197556.82048 -25067430.05446  20503394.1094                   20503392.6054
  14475917.08646  11308541.51443  24569532.1414                   24569532.7774
 -16762862.77748 -13042161.61146  21688123.6094                   21688125.4494
 -47267016.76647 -36791302.14845  21764509.7424                   21764506.8554
 -13996790.96547 -10890958.24945  21823408.5394                   21823408.1844
 11  8 23  2  6 30.0000000  0  9G10G12G26G29G05G15G25G02G30
 -29729481.76246 -23143460.56143  23828598.1174                   23828597.3204
 -31058943.44147 -24180147.87346  21609764.9534                   21609764.1564
   4805847.09046   3777574.39143  23637386.5864                   23637387.2544
  -3283987.62547  -2515451.92144  22606493.8444                   22606493.4454
 -32223594.35547 -25087719.02546  20498438.9694                   20498437.7194
  14326822.82046  11192364.35543  24541160.2974                   24541161.7814
 -16815092.55547 -13082860.13346  21678184.6564                   21678186.3054
 -47283885.32847 -36804446.46745  21761299.9384                   21761296.2344
 -14037156.18747 -10922411.66445  21815726.7504                   21815726.4184
 11  8 23  2  7  0.0000000  0  9G10G12G26G29G05G15G25G02G30
 -29679180.81246 -23104265.06343  23838170.3204                   23838169.3874
 -31050068.31247 -24173232.20846  21611453.6804                   21611453.2774
   4656838.01246   3661463.50843  23609032.4064                   23609032.4024
  -3420520.83247  -2621841.39544  22580512.2584                   22580512.2074
 -32249095.69148 -25107590.18746  20493586.4924                   20493585.2584
  14177646.77746  11076123.39744  24512772.0944                   24512774.1024
 -16866719.55948 -13123088.98146  21668360.6094                   21668362.0704
 -47300640.88747 -36817502.71545  21758111.2274                   21758107.9694
 -14076916.10247 -10953393.42645  21808160.8674                   21808160.7464
 11  8 23  2  7 30.0000000  0  9G10G12G26G29G05G15G25G02G30
 -29628709.34846 -23064936.72143  23847775.2274                   23847774.9964
 -31040744.91847 -24165967.25446  21613228.2424                   21613227.2584
   4507951.42246   3545448.06143  23580699.7194                   23580700.1454
  -3556935.53547  -2728138.52944  22554553.8834                   22554553.3674
 -32274059.54747 -25127042.52846  20488836.1954                   20488834.6844
  14028394.90646  10959823.47243  24484369.8674                   24484372.5044
 -16917741.27048 -13162846.15646  21658651.7194                   21658652.7974
 -47317280.32047 -36830468.49445  21754944.6724                   21754941.8714
 -14116068.89847 -10983902.09245  21800710.7424                   21800710.6334
 11  8 23  2  8  0.0000000  0  9G10G12G26G29G05G15G25G02G30
 -29578068.93046 -23025476.70143  23857411.5234                   23857411.5744
 -31030974.81647 -24158354.20746  21615087.5004                   21615086.4614
   4359191.65646   3429531.47143  23552391.1094                   23552391.2074
  -3693228.88747  -2834341.12245  22528617.9534                   22528617.7544
 -32298487.00847 -25146076.90246  20484187.4144                   20484186.1914
  13879070.25446  10843466.77443  24455954.9224                   24455956.6374
 -16968157.48448 -13202131.52646  21649057.2974                   21649059.0704
 -47333802.83647 -36843343.17645  21751800.5234                   21751797.3404
 -14154614.97747 -11013938.00545  21793375.2664                   21793375.1334
 11  8 23  2  8 30.0000000  0  9G10G12G26G29G05G15G25G02G30
 -29527267.05946 -22985890.80643  23867078.4384                   23867078.7384
 -31020765.05947 -24150398.55246  21617029.9694                   21617029.0864
   4210557.73046   3313712.91943  23524107.5314                   23524107.2854
  -3829403.72747  -2940451.33645  22502704.7194                   22502704.2774
 -32322384.59447 -25164698.38046  20479640.2504                   20479638.8914
  13729670.71546  10727051.69843  24427524.8284                   24427527.0164
 -17017973.41448 -13240949.13246  21639577.9614                   21639579.4224
 -47350213.36347 -36856130.58345  21748677.5474                   21748674.6884
 -14192560.23847 -11043505.76545  21786154.7584                   21786154.5904
 11  8 23  2  9  0.0000000  0  9G10G12G26G29G05G15G25G02G30
 -29476301.09046 -22946177.08143  23876777.6174                   23876776.9804
 -31010113.48047 -24142098.63846  21619056.8444                   21619056.4104
   4062058.12946   3197999.02743  23495849.1804                   23495848.8554
  -3965453.18447  -3046463.86645  22476815.3444                   22476815.1564
 -32345748.78548 -25182904.21946  20475193.8524                   20475192.5664
  13580204.10546  10610584.37443  24399082.1884                   24399084.0744
 -17067184.72348 -13279295.59446  21630213.1644                   21630215.0944
 -47366507.05547 -36868826.95345  21745577.5084                   21745574.3954
 -14229901.03147 -11072602.48745  21779049.0164                   21779048.7624
 11  8 23  2  9 30.0000000  0  9G10G12G26G29G05G15G25G02G30
 -29425174.69546 -22906338.33043  23886506.3364                   23886506.0084
 -30999023.56247 -24133457.16346  21621167.4454                   21621166.4264
   3913695.47346   3082391.84843  23467615.7664                   23467616.5394
  -4101376.03147  -3152377.71045  22450949.6174                   22450950.1054
 -32368582.52347 -25200696.72746  20470848.8444                   20470847.9414
  13430672.06646  10494066.02143  24370626.8204                   24370628.5434
 -17115793.05148 -13317172.21146  21620963.4224                   21620965.1724
 -47382684.77347 -36881432.94645  21742498.7504                   21742495.8834
 -14266639.68047 -11101230.01645  21772057.7424                   21772057.5554
 11  8 23  2 10  0.0000000  0  9G10G12G26G29G05G15G25G02G30
 -29373889.70346 -22866376.03943  23896266.1094                   23896265.1844
 -30987496.79347 -24124475.28746  21623360.9224                   21623359.6914
   3765473.90646   2966894.55143  23439410.6954                   23439409.9454
  -4237169.81247  -3258190.99745  22425109.3914                   22425109.1054
 -32390886.44548 -25218076.38346  20466604.4304                   20466603.2934
  13281077.66446  10377499.20342  24342159.6564                   24342160.8794
 -17163798.41447 -13354578.98546  21611828.1564                   21611830.2154
 -47398745.73047 -36893947.97545  21739441.9924                   21739439.2814
 -14302776.89147 -11129388.88645  21765180.7974                   21765181.2424
 11  8 23  2 10 30.0000000  0  9G10G12G26G29G05G15G25G02G30
 -29322450.74246 -22826293.72643  23906054.1954                   23906054.0434
 -30975538.10247 -24115156.83045  21625636.1884                   21625635.8714
   3617395.25046   2851508.70143  23411232.2974                   23411232.2704
  -4372834.19946  -3363903.41845  22399293.3444                   22399293.0084
 -32412664.22748 -25235046.06046  20462460.2344                   20462458.8484
  13131421.90246  10260884.51242  24313680.8984                   24313680.8594
 -17211203.36347 -13391517.90046  21602807.3204                   21602809.2344
 -47414691.98847 -36906373.61145  21736408.0634                   21736404.6914
 -14338315.80547 -11157081.55545  21758418.0314                   21758418.1684
 11  8 23  2 11  0.0000000  0  9G10G12G26G29G05G15G25G02G30
 -29270855.42246 -22786089.60343  23915872.7034                   23915871.0554
 -30963145.42247 -24105500.21745  21627994.7274                   21627994.1374
   3469468.04746   2736240.81743  23383082.6414                   23383082.1724
  -4508362.66847  -3469509.98745  22373503.0394                   22373502.3404
 -32433913.09847 -25251603.60446  20458416.9534                   20458415.6214
  12981712.21146  10144227.83242  24285192.0314                   24285191.8094
 -17258003.76247 -13427985.72346  21593901.5554                   21593903.1684
 -47430518.75447 -36918706.16945  21733396.3284                   21733392.9454
 -14373252.93747 -11184305.29945  21751770.0314                   21751769.6134
 11  8 23  2 11 30.0000000  0  9G10G12G26G29G05G15G25G02G30
 -29219112.87546 -22745770.81043  23925718.7584                   23925717.9734
 -30950327.32447 -24095512.10745  21630434.0474                   21630433.2344
   3321689.57846   2621088.88043  23354961.4144                   23354961.7384
  -4643759.17647  -3575013.67745  22347737.7344                   22347737.7234
 -32454641.37547 -25267755.48946  20454472.0314                   20454471.1524
  12831945.02746  10027526.20743  24256691.5004                   24256693.1804
 -17304206.64847 -13463987.95646  21585109.6724                   21585110.9144
 -47446232.49247 -36930950.64445  21730406.2814                   21730402.6724
 -14407596.06647 -11211066.18245  21745234.8594                   21745234.8244
 11  8 23  2 12  0.0000000  0  9G10G12G26G29G05G15G25G02G30
 -29167221.28146 -22705335.76443  23935593.2814                   23935592.6214
 -30937082.15247 -24085191.21145  21632954.6174                   21632953.7934
   3174067.32846   2506058.58344  23326869.5474                   23326869.5004
  -4779017.97347  -3680410.06645  22321998.6094                   22321998.2584
 -32474846.43048 -25283499.66946  20450627.3524                   20450626.0664
  12682127.01246   9910785.13343  24228182.8444                   24228183.2464
 -17349808.83647 -13499522.11346  21576431.6414                   21576432.8834
 -47461829.00847 -36943103.77045  21727438.7114                   21727434.9384
 -14441342.63748 -11237362.20045  21738813.5704                   21738812.9064
 11  8 23  2 12 30.0000000  0  9G10G12G26G29G05G15G25G02G30
 -29115184.10546 -22664787.28942  23945495.2274                   23945494.2854
 -30923413.99647 -24074540.72045  21635555.6254                   21635554.7034
   3026604.07046   2391152.22944  23298808.0084                   23298807.9024
  -4914137.82847  -3785698.20845  22296286.8364                   22296286.6484
 -32494531.08248 -25298838.35346  20446881.4384                   20446880.0824
  12532259.91846   9794005.71543  24199664.3204                   24199664.6644
 -17394812.14548 -13534589.60346  21567868.0634                   21567868.9694
 -47477309.50447 -36955166.49145  21724492.0944                   21724488.9304
 -14474495.15248 -11263195.33945  21732504.3444                   21732504.4144
 11  8 23  2 13  0.0000000  0  9G10G12G26G29G05G15G25G02G30
 -29063004.82046 -22624128.08242  23955424.7814                   23955423.8524
 -30909326.21947 -24063563.24745  21638235.9614                   21638235.3594
   2879302.42247   2276371.80243  23270777.4144                   23270777.8404
  -5049117.36347  -3890876.97945  22270600.0084                   22270600.7854
 -32513698.31648 -25313773.83746  20443234.0704                   20443232.7734
  12382345.72746   9677189.63543  24171136.3444                   24171137.4224
 -17439218.03147 -13569191.57246  21559417.3674                   21559418.8954
 -47492674.43447 -36967139.18145  21721568.4694                   21721565.0704
 -14507055.71147 -11288567.18745  21726308.4454                   21726308.1994
 11  8 23  2 13 30.0000000  0  9G10G12G26G29G05G15G25G02G30
 -29010686.11346 -22583360.23243  23965380.1094                   23965380.9264
 -30894821.83247 -24052261.14745  21640996.4844                   21640995.6024
   2732166.05546   2161720.18743  23242778.3754                   23242778.4064
  -5183955.16047  -3995945.31845  22244942.0234                   22244941.2624
 -32532349.88747 -25328307.51046  20439684.8984                   20439683.3444
  12232386.62146   9560338.52043  24142600.2584                   24142600.4694
 -17483027.73447 -13603328.96246  21551080.6174                   21551081.7504
 -47507924.25447 -36979022.16245  21718666.3054                   21718663.5004
 -14539026.21947 -11313479.26845  21720224.8914                   21720224.6684
 11  8 23  2 14  0.0000000  0  9G10G12G26G29G05G15G25G02G30
 -28958227.27046 -22542483.24642  23975362.4064                   23975364.4734
 -30879900.07847 -24040633.82345  21643835.5554                   21643834.8094
   2585201.72346   2047202.55544  23214811.2194                   23214811.4384
  -5318645.56647  -4100898.81245  22219310.6954                   22219310.2194
 -32550484.46147 -25342438.33146  20436234.1724                   20436232.3404
  12082388.66446   9443457.12044  24114056.1024                   24114057.2074
 -17526238.75447 -13636999.87146  21542858.2504                   21542859.4734
 -47523055.42247 -36990812.70345  21715787.1564                   21715784.0554
 -14570404.89147 -11337930.13945  21714253.4144                   21714253.0394
 11  8 23  2 14 30.0000000  0  9G10G12G26G29G05G15G25G02G30
 -28905638.46546 -22501504.92743  23985370.7894                   23985370.5314
 -30864570.95347 -24028689.07345  21646753.0864                   21646752.1994
   2438405.62546   1932816.06244  23186877.4384                   23186877.6604
  -5453193.93047  -4205741.59845  22193707.1804                   22193707.1024
 -32568111.80548 -25356173.92346  20432879.3984                   20432878.0044
  11932347.33246   9326541.90544  24085504.6254                   24085505.7774
 -17568859.47748 -13670210.78846  21534747.2814                   21534748.9454
 -47538075.71947 -37002516.85145  21712928.7814                   21712925.3834
 -14601200.66447 -11361926.84845  21708393.5704                   21708392.8554
 11  8 23  2 15  0.0000000  0  9G10G12G26G29G05G15G25G02G30
 -28852917.85546 -22460424.04143  23995403.9924                   23995403.3284
 -30848833.11747 -24016425.86045  21649747.5864                   21649746.6214
   2291785.73046   1818566.89743  23158976.6254                   23158976.1994
  -5587594.16447  -4310468.98145  22168131.7814                   22168131.0864
 -32585229.12148 -25369512.09046  20429621.9614                   20429620.6884
  11782269.24246   9209598.06244  24056945.3204                   24056946.5984
 -17610886.72748 -13702959.27246  21526749.7974                   21526751.4844
 -47552980.73847 -37014131.18345  21710092.3134                   21710089.2584
 -14631411.07847 -11385467.42545  21702644.3364                   21702643.8594
 11  8 23  2 15 30.0000000  0  9G10G12G26G29G05G15G25G02G30
 -28800071.54746 -22419245.10043  24005459.9844                   24005459.8634
 -30832693.12547 -24003849.26645  21652819.2894                   21652818.1094
   2145341.84846   1704454.87844  23131108.4774                   23131109.6134
  -5721847.84447  -4415082.15945  22142584.0864                   22142582.9774
 -32601842.41448 -25382457.48746  20426460.3754                   20426459.5044
  11632153.69546   9092625.01543  24028379.6094                   24028379.9454
 -17652325.07448 -13735248.86646  21518864.5554                   21518866.0514
 -47567774.27047 -37025658.60745  21707277.5944                   21707274.5234
 -14661041.34847 -11408555.91345  21697005.9384                   21697005.2934
 11  8 23  2 16  0.0000000  0  9G10G12G26G29G05G15G25G02G30
 -28747096.23846 -22377965.69343  24015541.0474                   24015540.2384
 -30816147.74247 -23990956.76446  21655967.3364                   21655967.3244
   1999083.45746   1590487.36543  23103277.7034                   23103276.6994
  -5855947.04747  -4519574.98445  22117065.6564                   22117064.8954
 -32617947.25447 -25395006.69746  20423395.8204                   20423394.5904
  11482009.64846   8975629.77744  23999807.5944                   23999808.5274
 -17693169.59848 -13767075.75446  21511092.0394                   21511093.4144
 -47582450.27047 -37037094.47445  21704484.2344                   21704481.1414
 -14690087.27047 -11431189.08345  21691478.2974                   21691478.2774
 11  8 23  2 16 30.0000000  0  9G10G12G26G29G05G15G25G02G30
 -28694001.19546 -22336592.89343  24025644.6254                   24025642.7734
 -30799206.50047 -23977755.83245  21659191.2504                   21659190.6524
   1853007.34446   1476661.87544  23075479.7584                   23075479.5044
  -5989896.68047  -4623951.24245  22091575.9614                   22091575.5984
 -32633552.93047 -25407166.95646  20420426.2424                   20420424.7464
  11331832.13746   8858608.44643  23971229.0784                   23971230.6844
 -17733428.32848 -13798446.17046  21503431.3054                   21503432.7544
 -47597015.47747 -37048443.98545  21701712.8134                   21701709.8484
 -14718557.51647 -11453373.67145  21686060.6094                   21686060.2704
 11  8 23  2 17  0.0000000  0  9G10G12G26G29G05G15G25G02G30
 -28640783.34846 -22295124.45343  24035770.8754                   24035769.4104
 -30781866.77047 -23964244.36246  21662491.0394                   21662490.3754
   1707122.67646   1362985.58243  23047718.8754                   23047719.0744
  -6123689.18447  -4728205.07345  22066115.5944                   22066115.3674
 -32648655.80947 -25418935.41146  20417552.6564                   20417550.8914
  11181629.72346   8741567.78643  23942647.2814                   23942648.1094
 -17773096.79748 -13829356.65146  21495882.4064                   21495884.2034
 -47611464.89547 -37059703.29745  21698963.3204                   21698960.2894
 -14746448.25847 -11475106.70845  21680753.3284                   21680753.3324
 11  8 23  2 17 30.0000000  0  9G10G12G26G29G05G15G25G02G30
 -28587447.19546 -22253563.84042  24045919.7344                   24045919.2114
 -30764133.37547 -23950426.16745  21665865.5554                   21665865.0594
   1561430.96146   1249459.64544  23019994.2734                   23019994.8914
  -6257324.29747  -4832336.26945  22040685.8984                   22040685.1724
 -32663259.69147 -25430315.04746  20414773.5784                   20414772.0204
  11031403.31346   8624508.41643  23914059.5394                   23914060.6484
 -17812178.00848 -13859809.52446  21488445.6334                   21488446.6914
 -47625799.87947 -37070873.40745  21696235.6884                   21696232.4734
 -14773763.12547 -11496390.98645  21675555.3834                   21675555.0234
 11  8 23  2 18  0.0000000  0  9G10G12G26G29G05G15G25G02G30
 -26958578.78146 -20984315.85143  24355883.8054                   24355883.0514
 -29170591.13347 -22708704.94045  21969106.4144                   21969105.7034
   2991359.08246   2363689.42344  23292100.8594                   23292100.3874
  -4815377.41047  -3708741.24445  22315079.1094                   22315078.7194
 -31101948.13747 -24213708.62246  20711881.1954                   20711879.7704
  12456578.78146   9735034.86143  24185261.9924                   24185262.3874
 -16275253.67248 -12662206.13646  21780912.3594                   21780913.7934
 -46064601.73447 -35854355.35845  21993321.8444                   21993318.4104
 -13225084.92247 -10289628.74545  21970258.6884                   21970258.0234
 11  8 23  2 18 30.0000000  0  9G10G12G26G29G05G15G25G02G30
 -26905014.27345 -20942577.15242  24366076.8754                   24366076.5004
 -29152079.27347 -22694280.14045  21972629.6564                   21972628.9024
   2846063.93846   2250472.50644  23264452.4064                   23264451.7034
  -4948692.08247  -3812622.75745  22289709.9844                   22289709.4654
 -31115561.30548 -24224316.25946  20709290.8984                   20709288.9104
  12306311.64546   9617943.71843  24156667.0864                   24156667.1524
 -16313164.52048 -12691747.04446  21773698.2344                   21773699.6644
 -46078708.76647 -35865347.87045  21990637.1334                   21990634.1454
 -13251254.10547 -10310020.30045  21965279.3834                   21965279.1254
 11  8 23  2 19  0.0000000  0  9G10G12G26G29G05G15G25G02G30
 -26851341.09845 -20900753.94142  24376290.2734                   24376290.0784
 -29133184.09447 -22679556.63045  21976225.0944                   21976224.7664
   2700970.66846   2137412.90744  23236841.5164                   23236841.4184
  -5081845.52347  -3916378.62645  22264372.1334                   22264370.9574
 -31128683.84448 -24234541.60546  20706793.7034                   20706791.8524
  12156026.53946   9500838.58943  24128068.2194                   24128068.3284
 -16350493.84848 -12720834.82346  21766594.6094                   21766596.3984
 -46092703.87947 -35876253.15745  21987973.9924                   21987971.0474
 -13276855.08647 -10329969.09945  21960407.4454                   21960407.0164
 11  8 23  2 19 30.0000000  0  9G10G12G26G29G05G15G25G02G30
 -26797563.52746 -20858849.34043  24386524.3594                   24386523.9804
 -29113910.05547 -22664537.92045  21979892.6094                   21979892.1764
   2556081.46146   2024512.24244  23209269.7974                   23209270.0394
  -5214836.96947  -4020008.28645  22239064.4844                   22239063.4454
 -31141319.35248 -24244387.43946  20704388.8984                   20704387.3954
  12005725.00046   9383720.56343  24099466.7664                   24099467.3554
 -16387244.09448 -12749471.37446  21759601.2814                   21759602.9494
 -46106588.09847 -35887072.01845  21985332.2034                   21985329.2734
 -13301891.05147 -10349477.64045  21955643.6414                   21955643.0904
 11  8 23  2 20  0.0000000  0  9G10G12G26G29G05G15G25G02G30
 -26743681.82046 -20816863.49243  24396778.6804                   24396777.4774
 -29094257.94547 -22649224.60045  21983632.5394                   21983632.2734
   2411401.77746   1911774.89643  23181738.1094                   23181737.4774
  -5347662.16447  -4123508.40545  22213788.3204                   22213787.7584
 -31153468.04747 -24253853.94046  20702077.1334                   20702075.8164
  11855411.36346   9266593.15543  24070862.5944                   24070863.3594
 -16423414.78148 -12777656.32346  21752718.2664                   21752719.9184
 -46120359.83647 -35897803.22145  21982711.3284                   21982708.1804
 -13326362.04347 -10368545.94545  21950986.8754                   21950986.5514
 11  8 23  2 20 30.0000000  0  9G10G12G26G29G05G15G25G02G30
 -26689700.30146 -20774799.98743  24407050.6804                   24407050.6484
 -29074232.83647 -22633620.63645  21987443.2034                   21987442.6454
   2266933.55146   1799202.33644  23154246.8204                   23154246.1094
  -5480321.16447  -4226878.99745  22188544.5474                   22188544.0824
 -31165133.89547 -24262944.20246  20699857.2194                   20699855.9774
  11705086.51246   9149457.06344  24042256.5084                   24042257.1524
 -16459008.95348 -12805392.05146  21745944.8054                   21745946.4344
 -46134020.59847 -35908447.94445  21980111.9224                   21980108.4534
 -13350271.85547 -10387176.96045  21946436.8284                   21946436.3674
 11  8 23  2 21  0.0000000  0  9G10G12G26G29G05G15G25G02G30
 -26635619.36346 -20732659.07043  24417342.2194                   24417341.7424
 -29053834.79747 -22617726.07045  21991324.8134                   21991323.5274
   2122682.38746   1686798.90844  23126796.9774                   23126796.3874
  -5612809.53947  -4330116.66345  22163332.6644                   22163332.5664
 -31176316.82847 -24271658.16846  20697729.1174                   20697727.3984
  11554755.74246   9032316.32344  24013650.3674                   24013650.4414
 -16494025.66847 -12832677.80045  21739281.1804                   21739282.8874
 -46147568.21547 -35919004.49945  21977533.5164                   21977530.5554
 -13373620.03547 -10405370.34645  21941993.6024                   21941993.6454
 11  8 23  2 21 30.0000000  0  9G10G12G26G29G05G15G25G02G30
 -26581444.05546 -20690444.50843  24427651.3674                   24427651.3594
 -29033070.12947 -22601545.80945  21995276.3134                   21995275.1684
   1978649.21946   1574565.30644  23099387.5864                   23099387.3794
  -5745127.92647  -4433221.86645  22138153.5314                   22138152.9024
 -31187021.55947 -24279999.50146  20695692.1094                   20695690.6844
  11404418.71547   8915170.68644  23985041.6024                   23985041.5824
 -16528469.10247 -12859516.83945  21732726.8834                   21732728.2424
 -46161005.64847 -35929475.20445  21974976.9384                   21974973.6484
 -13396411.53947 -10423129.95945  21937656.7194                   21937656.4304
 11  8 23  2 22  0.0000000  0  9G10G12G26G29G05G15G25G02G30
 -26527173.50446 -20648155.81243  24437977.6334                   24437977.9844
 -29011938.10247 -22585079.33445  21999297.4844                   21999297.0004
   1834841.18046   1462507.13744  23072022.2734                   23072021.9924
  -5877270.98847  -4536190.46045  22113007.0704                   22113006.6174
 -31197246.81247 -24287967.21246  20693746.0704                   20693744.7194
  11254081.75447   8798025.06644  23956433.6724                   23956432.9224
 -16562337.07048 -12885907.46445  21726281.7664                   21726283.6254
 -46174329.04347 -35939857.04445  21972441.8524                   21972438.3794
 -13418644.70747 -10440454.50545  21933425.6414                   21933424.9924
 11  8 23  2 22 30.0000000  0  9G10G12G26G29G05G15G25G02G30
 -26472813.74246 -20605797.50842  24448321.9774                   24448321.2074
 -28990445.00447 -22568331.49745  22003387.3444                   22003386.8404
   1691257.95346   1350624.14044  23044699.3204                   23044699.7974
  -6009240.34847  -4639023.70545  22087894.3594                   22087893.7624
 -31206998.93047 -24295566.24946  20691890.3284                   20691889.1954
  11103743.40246   8680878.41143  23927824.5314                   23927825.2734
 -16595634.89848 -12911853.83646  21719945.9384                   21719946.9494
 -46187542.52347 -35950153.24645  21969926.7974                   21969923.8634
 -13440325.55947 -10457348.65445  21929300.0314                   21929299.5164
 11  8 23  2 23  0.0000000  0  9G10G12G26G29G05G15G25G02G30
 -26418366.49646 -20563371.11342  24458682.3444                   24458682.0594
 -28968593.75447 -22551304.57845  22007545.6334                   22007544.4884
   1547904.15647   1238919.90344  23017420.3834                   23017419.3634
  -6141032.98447  -4741719.24445  22062815.0234                   22062814.5744
 -31216279.26247 -24302797.65846  20690124.7194                   20690123.0784
  10953407.84446   8563733.97043  23899216.3594                   23899217.4104
 -16628363.07848 -12937356.31946  21713718.0084                   21713719.9264
 -46200644.80547 -35960362.82345  21967433.5004                   21967430.7154
 -13461455.14847 -10473813.29945  21925279.1334                   21925278.9534
 11  8 23  2 23 30.0000000  0  9G10G12G26G29G05G15G25G02G30
 -26363835.23045 -20520879.27742  24469059.1094                   24469058.9844
 -28946388.00447 -22534001.42345  22011771.5474                   22011770.7664
   1404782.28946   1127396.43744  22990185.2424                   22990184.5044
  -6272647.83247  -4844276.23345  22037769.4454                   22037768.6174
 -31225091.05947 -24309663.97346  20688447.8754                   20688446.1174
  10803076.81346   8446593.04344  23870609.1644                   23870610.3954
 -16660524.03948 -12962416.81546  21707597.9534                   21707599.4104
 -46213637.52347 -35970487.01545  21964960.9844                   21964958.1094
 -13482036.61747 -10489850.81345  21921362.9924                   21921362.5434
 11  8 23  2 24  0.0000000  0  9G10G12G26G29G05G15G25G02G30
 -26309218.04745 -20478320.46942  24479452.5554                   24479451.2854
 -28923826.05147 -22516420.71045  22016064.7344                   22016064.0514
   1261900.53547   1016060.02544  22962994.7734                   22962995.1024
  -6404078.07047  -4946689.36545  22012759.1644                   22012758.3444
 -31233431.53947 -24316163.03146  20686860.3444                   20686859.1254
  10652757.41046   8329461.15844  23842004.3754                   23842005.4184
 -16692114.77048 -12987032.96646  21701586.3524                   21701587.7234
 -46226515.40247 -35980521.72945  21962510.4454                   21962507.7584
 -13502067.58247 -10505459.35745  21917551.0314                   21917550.1684
 11  8 23  2 24 30.0000000  0  9G10G12G26G29G05G15G25G02G30
 -26254519.83646 -20435698.49242  24489861.9384                   24489860.9264
 -28900913.89847 -22498567.09445  22020424.8444                   22020424.4344
   1119259.46947    904911.17844  22935851.6644                   22935851.4734
  -6535324.62547  -5048959.38945  21987784.0314                   21987782.9654
 -31241306.34848 -24322299.24046  20685361.8364                   20685360.3094
  10502449.57846   8212338.32443  23813402.2814                   23813402.3404
 -16723139.69948 -13011208.24346  21695682.4534                   21695684.0314
 -46239281.71947 -35990469.51345  21960081.1484                   21960077.8364
 -13521553.08247 -10520642.86245  21913843.1724                   21913842.9694
 11  8 23  2 25  0.0000000  0  9G10G12G26G29G05G15G25G02G30
 -26199743.77746 -20393015.83242  24500285.5164                   24500284.0124
 -28877654.30547 -22480442.75945  22024850.3914                   22024850.3754
    976862.97347    793952.89044  22908754.2664                   22908753.8674
  -6666385.44147  -5151084.63545  21962843.7814                   21962843.2194
 -31248717.41448 -24328074.07746  20683951.6174                   20683950.2154
  10352156.29346   8095226.80144  23784802.3054                   23784802.1454
 -16753600.29348 -13034943.77746  21689885.9064                   21689887.4964
 -46251936.19947 -36000330.14445  21957672.5314                   21957669.6644
 -13540495.12947 -10535402.91745  21910238.9384                   21910237.9184
 11  8 23  2 25 30.0000000  0  9G10G12G26G29G05G15G25G02G30
 -26144888.12946 -20350271.18042  24510725.1024                   24510722.7114
 -28854046.54747 -22462047.12345  22029343.3914                   22029342.6454
    834718.14847    683190.72944  22881704.9224                   22881705.0784
  -6797254.63747  -5253060.58245  21937939.5234                   21937939.3674
 -31255663.31647 -24333486.46146  20682630.0944                   20682628.1294
  10201883.63746   7978131.37644  23756206.0634                   23756205.4804
 -16783494.34448 -13058237.84446  21684197.3134                   21684198.9144
 -46264475.13347 -36010100.74645  21955287.1804                   21955283.2034
 -13558892.18047 -10549738.26345  21906738.0554                   21906737.5044
 11  8 23  2 26  0.0000000  0  9G10G12G26G29G05G15G25G02G30
 -26089959.02746 -20307469.21542  24521176.9534                   24521177.6684
 -28830097.93747 -22443385.88845  22033900.5164                   22033900.3054
    692824.42247    572624.24644  22854703.3284                   22854703.4104
  -6927934.36347  -5354888.87645  21913072.5394                   21913071.8754
 -31262150.55948 -24338541.46046  20681395.6954                   20681393.9734
  10051630.55146   7861051.16844  23727613.1724                   23727613.9454
 -16812827.65648 -13081094.98446  21678615.6564                   21678616.9264
 -46276902.71147 -36019784.57345  21952921.9064                   21952918.1914
 -13576750.64847 -10563653.96945  21903339.4844                   21903339.0904
 11  8 23  2 26 30.0000000  0 10G10G12G26G29G05G15G25G02G30G21
 -26034960.35246 -20264613.06543  24531642.2664                   24531643.7424
 -28805812.44147 -22424462.13345  22038521.7584                   22038521.3634
    551184.50047    462255.52444  22827749.7114                   22827749.9264
  -7058423.41847  -5456568.60345  21888241.3984                   21888240.1994
 -31268182.46948 -24343241.64146  20680247.7504                   20680245.7664
   9901398.72746   7743987.54244  23699025.2344                   23699025.5044
 -16841602.85948 -13103517.21246  21673139.8594                   21673141.1884
 -46289219.75447 -36029382.27545  21950577.8674                   21950574.3914
 -13594073.78947 -10577152.52745  21900043.0394                   21900042.4494
  17150912.97716                  25140620.063
 11  8 23  2 27  0.0000000  0 10G10G12G26G29G05G15G25G02G30G21
 -25979902.65245 -20221711.05942  24542118.9844                   24542120.5474
 -28781201.30947 -22405284.64245  22043205.1414                   22043204.7274
    409793.97747    352081.12944  22800844.1174                   22800844.0984
  -7188727.80947  -5558104.42545  21863445.2114                   21863444.2074
 -31273769.46148 -24347595.13446  20679184.5314                   20679183.4304
   9751182.90246   7626936.34944  23670440.3054                   23670440.0124
 -16869829.62548 -13125512.10346  21667768.6644                   21667770.0354
 -46301434.31247 -36038900.11245  21948253.5474                   21948249.9494
 -13610871.89147 -10590241.94045  21896846.3754                   21896845.9414
  17041050.238 6                  25119714.695
 11  8 23  2 27 30.0000000  0  9G12G26G29G05G15G25G02G30G21
 -28756274.98047 -22385861.55045  22047949.1564                   22047948.5044
    268648.80947    242097.93744  22773985.2344                   22773985.8444
  -7318853.13347  -5659500.71045  21838683.1414                   21838682.1414
 -31278921.33648 -24351609.58846  20678204.2344                   20678202.4844
   9600978.14147   7509893.77744  23641857.0864                   23641857.2854
 -16897517.25848 -13147086.86546  21662499.9224                   21662500.8244
 -46313553.88747 -36048343.97545  21945947.2194                   21945943.4734
 -13627154.82447 -10602929.94845  21893747.5474                   21893747.3204
  16931206.586 5                  25098811.359
 11  8 23  2 28  0.0000000  0  9G12G26G29G05G15G25G02G30G21
 -28731034.39847 -22366193.58345  22052752.1254                   22052751.7114
    127754.55947    132310.25244  22747173.5554                   22747173.2814
  -7448794.68047  -5760753.78245  21813955.9304                   21813955.3324
 -31283638.46948 -24355285.27646  20677306.4454                   20677305.1954
   9450789.56647   7392863.82944  23613277.0704                   23613277.2194
 -16924665.19948 -13168241.10846  21657333.7114                   21657334.6684
 -46325576.37147 -36057712.15945  21943659.6724                   21943656.3984
 -13642922.69147 -10615216.59845  21890746.8914                   21890746.9774
  16821383.418 5                  25077911.820
 11  8 23  2 28 30.0000000  0  9G12G26G29G05G15G25G02G30G21
 -28705470.28547 -22346273.51745  22057616.6564                   22057616.2734
    -12873.03947     22730.35644  22720413.3284                   22720413.4224
  -7578538.70747  -5861852.94145  21789266.4064                   21789265.5394
 -31287911.06647 -24358614.56246  20676493.5474                   20676492.0514
   9300631.85247   7275857.87844  23584703.2034                   23584702.6844
 -16951263.23047 -13188966.83946  21652272.2504                   21652273.4574
 -46337489.59447 -36066995.17845  21941393.1334                   21941388.7854
 -13658165.80147 -10627094.33245  21887846.4224                   21887845.8874
  16711592.008 5                  25057018.141
 11  8 23  2 29  0.0000000  0  9G12G26G29G05G15G25G02G30G21
 -28679579.81647 -22326099.13145  22062543.0784                   22062542.7544
   -153223.92247    -86633.94244  22693705.5234                   22693705.1844
  -7708076.51247  -5962791.43145  21764615.9614                   21764615.1564
 -31291734.86347 -24361594.14746  20675765.6724                   20675764.0864
   9150514.50046   7158883.38944  23556136.4144                   23556136.0704
 -16977306.61747 -13209260.36946  21647316.1414                   21647317.2974
 -46349287.07847 -36076188.03245  21939148.1724                   21939144.2074
 -13672880.03547 -10638559.96145  21885046.3284                   21885045.8134
  16601838.258 5                  25036134.195
 11  8 23  2 29 30.0000000  0  9G12G26G29G05G15G25G02G30G21
 -28653366.30147 -22305673.04245  22067531.9304                   22067531.3444
   -293294.87147   -195780.08744  22667051.2664                   22667051.1564
  -7837406.16847  -6063567.70345  21740005.2664                   21740004.7544
 -31295112.99248 -24364226.45446  20675122.8444                   20675121.4534
   9000439.77746   7041942.15043  23527577.9774                   23527577.5274
 -17002797.50448 -13229123.39446  21642465.3754                   21642466.7194
 -46360969.23447 -36085291.01345  21936925.5234                   21936921.8404
 -13687068.17247 -10649615.65045  21882346.1804                   21882346.2034
  16492121.30946  12857904.84452  25015256.1024                   25015255.3244
 11  8 23  2 30  0.0000000  0  9G12G26G29G05G15G25G02G30G21
 -28626832.93447 -22284997.69745  22072580.9304                   22072579.9144
   -433082.61347   -304705.53744  22640450.1884                   22640450.2234
  -7966525.76247  -6164180.30845  21715434.6564                   21715433.4774
 -31298047.92648 -24366513.41146  20674564.6954                   20674563.1804
   8850409.96147   6925035.87844  23499028.5004                   23499028.2704
 -17027738.09447 -13248557.59745  21637719.5784                   21637720.8134
 -46372536.34447 -36094304.34845  21934724.1954                   21934720.8324
 -13700732.94147 -10660263.51645  21879746.1724                   21879745.4224
  16382439.78946  12772438.82442  24994384.1484                   24994384.2424
 11  8 23  2 30 30.0000000  0  9G12G26G29G05G15G25G02G30G21
 -28599980.28547 -22264073.58645  22077690.7344                   22077690.6524
   -572580.96947   -413405.50944  22613904.2664                   22613904.2344
  -8095431.15648  -6264626.00445  21690905.1564                   21690903.9574
 -31300539.49247 -24368454.88746  20674090.2734                   20674088.9184
   8700431.08646   6808169.32244  23470487.7734                   23470488.5354
 -17052127.23048 -13267562.12846  21633078.2734                   21633079.6024
 -46383985.22347 -36103225.55045  21932545.3754                   21932541.8674
 -13713873.78947 -10670503.13645  21877245.7504                   21877244.8244
  16272796.18846  12687002.40642  24973518.8054                   24973519.8914
 11  8 23  2 31  0.0000000  0  9G12G26G29G05G15G25G02G30G21
 -28572817.96947 -22242908.17145  22082859.6724                   22082859.5744
   -711792.91047   -521882.28844  22587412.8524                   22587412.9884
  -8224126.33647  -6364907.88745  21666414.9694                   21666414.1054
 -31302596.57447 -24370057.79046  20673699.0944                   20673697.2304
   8550498.95347   6691339.20544  23441956.8524                   23441956.5514
 -17075973.59848 -13286143.69346  21628540.6174                   21628541.7154
 -46395322.67647 -36112059.93545  21930387.5394                   21930384.4064
 -13726500.04347 -10680341.76045  21874842.5394                   21874842.0824
  16163182.38746  12601589.16043  24952660.3984                   24952661.3634
 11  8 23  2 31 30.0000000  0  9G12G26G29G05G15G25G02G30G21
 -28545349.26647 -22221504.00545  22088086.8524                   22088086.5204
   -850714.85947   -630133.11844  22560977.0634                   22560976.9534
  -8352609.19548  -6465024.32946  21641965.5784                   21641964.4414
 -31304221.54748 -24371323.99846  20673389.9224                   20673387.8834
   8400616.69547   6574547.89944  23413435.3914                   23413435.3324
 -17099279.09848 -13304303.82946  21624105.5784                   21624107.0554
 -46406548.62547 -36120807.43245  21928250.9304                   21928248.3834
 -13738614.10247 -10689781.30545  21872537.7734                   21872537.4184
  16053598.21546  12516199.04643  24931807.0784                   24931808.0744
 11  8 23  2 32  0.0000000  0  9G12G26G29G05G15G25G02G30G21
 -28517574.28147 -22199861.19245  22093371.9924                   22093371.4304
   -989340.41847   -738152.98244  22534597.2974                   22534597.7234
  -8480874.76248  -6564971.48845  21617557.3914                   21617556.5164
 -31305414.19947 -24372253.33246  20673162.6174                   20673161.3754
   8250789.60246   6457799.62544  23384924.4694                   23384924.3524
 -17122042.74648 -13322041.72746  21619774.1804                   21619775.6214
 -46417660.03547 -36129465.65945  21926137.0234                   21926134.2424
 -13750215.67247 -10698821.47545  21870330.0944                   21870329.2584
  15944045.55946  12430833.46843  24910959.9694                   24910960.0784
 11  8 23  2 32 30.0000000  0  9G12G26G29G05G15G25G02G30G21
 -26914080.08247 -20950385.21645  22398507.2664                   22398506.0044
    447755.51647    381662.06444  22808067.6254                   22808067.1214
  -7033499.61347  -5437146.64545  21892983.4064                   21892982.6414
 -29730759.86347 -23145249.94646  20972808.8984                   20972808.0204
   9676442.68046   7568698.21444  23656217.1334                   23656216.7974
 -15568848.80148 -12111760.71546  21915337.1094                   21915337.7974
 -44853239.78547 -34910436.88245  22223836.6094                   22223833.3404
 -12185889.87547  -9479866.28645  22168011.0864                   22168010.4614
  17409944.69546  13573092.64543  25189911.0004                   25189911.2464
 11  8 23  2 33  0.0000000  0  9G12G26G29G05G15G25G02G30G21
 -26885707.59047 -20928276.79945  22403906.2894                   22403904.8014
    309727.84047    274108.08144  22781801.6644                   22781801.2664
  -7161329.71547  -5536754.45645  21868658.1564                   21868657.3794
 -29731100.37147 -23145515.26846  20972744.2734                   20972742.9304
   9526729.23046   7452038.46744  23627726.8284                   23627727.3134
 -15590539.91848 -12128662.88346  21911209.3524                   21911210.4774
 -44864127.62147 -34918920.87645  22221764.3284                   22221761.5314
 -12196479.14147  -9488117.67345  22165996.1724                   22165995.2894
  17300448.02746  13487770.77043  25169074.9924                   25169075.0634
 11  8 23  2 33 30.0000000  0  9G12G26G29G05G15G25G02G30G21
 -26857042.45347 -20905940.36245  22409360.7974                   22409360.1414
    172002.95747    166790.04044  22755594.0234                   22755593.4264
  -7288940.19947  -5636191.15045  21844374.4224                   21844373.7934
 -29731020.15648 -23145452.76446  20972759.7974                   20972758.4804
   9377075.38746   7335425.17344  23599248.0554                   23599249.0664
 -15611699.25448 -12145150.67046  21907182.4694                   21907183.8554
 -44874905.18047 -34927318.95345  22219713.2894                   22219710.1254
 -12206567.62147  -9495978.82945  22164076.7114                   22164076.3054
  17190976.54746  13402468.40543  25148242.3834                   25148243.1804
 11  8 23  2 34  0.0000000  0  9G12G26G29G05G15G25G02G30G21
 -26828087.21547 -20883377.86645  22414871.1024                   22414870.1564
     34584.99647     59711.17444  22729444.0864                   22729443.2544
  -7416328.55547  -5735454.79345  21820133.4304                   21820132.5084
 -29730520.89547 -23145063.72446  20972854.7814                   20972853.4804
   9227484.80146   7218861.17144  23570782.7114                   23570782.7304
 -15632328.12947 -12161225.13446  21903256.9694                   21903258.6134
 -44885571.53547 -34935630.38145  22217683.6094                   22217680.4454
 -12216157.32047  -9503451.32045  22162251.8364                   22162251.3674
  17081530.30546  13317185.71943  25127416.3134                   25127415.8324
 11  8 23  2 34 30.0000000  0  9G12G26G29G05G15G25G02G30G21
 -26798845.46947 -20860592.11645  22420435.9144                   22420435.4384
   -102522.77347    -47126.02244  22703353.4224                   22703353.0824
  -7543492.73447  -5834543.72645  21795934.7194                   21795933.7384
 -29729605.45747 -23144350.38646  20973029.1564                   20973027.6484
   9077959.69546   7102348.16844  23542328.8364                   23542328.0474
 -15652428.94547 -12176888.08146  21899431.7664                   21899433.3204
 -44896127.12147 -34943855.48445  22215674.7504                   22215671.6254
 -12225251.09447  -9510537.35445  22160521.0554                   22160520.8284
  16972108.09846  13231921.77743  25106593.4924                   25106594.1804
 11  8 23  2 35  0.0000000  0  9G12G26G29G05G15G25G02G30G21
 -26769320.93747 -20837586.04845  22426054.0554                   22426053.5354
   -239317.44147   -153719.22544  22677322.0944                   22677321.5514
  -7670431.28947  -5933456.86945  21771779.2894                   21771778.2584
 -29728277.00447 -23143315.22846  20973282.1564                   20973280.5554
   8928502.49646   6985888.12644  23513887.8524                   23513887.9064
 -15672004.26248 -12192141.60146  21895707.0084                   21895708.1454
 -44906572.23847 -34951994.53545  22213687.0864                   22213684.7034
 -12233852.01247  -9517239.36645  22158884.2424                   22158884.4344
  16862708.81346  13146675.71743  25085774.5004                   25085775.7234
 11  8 23  2 35 30.0000000  0  9G12G26G29G05G15G25G02G30G21
 -26739516.73447 -20814362.00945  22431724.8284                   22431724.8714
   -375795.41047   -260065.64644  22651351.1024                   22651350.2774
  -7797141.90647  -6032192.37846  21747667.3984                   21747665.9774
 -29726537.87947 -23141960.08446  20973612.9534                   20973611.4414
   8779116.10246   6869483.19444  23485460.6644                   23485460.5234
 -15691056.30548 -12206987.34946  21892081.5784                   21892082.5394
 -44916906.73447 -34960047.35845  22211720.8204                   22211717.9774
 -12241962.86347  -9523559.50245  22157341.1334                   22157340.8754
  16753331.79346  13061446.91743  25064961.4774                   25064961.8324
 11  8 23  2 36  0.0000000  0  9G12G26G29G05G15G25G02G30G21
 -26709438.08647 -20790924.13845  22437449.0554                   22437448.9574
   -511955.27747   -366164.20544  22625440.8204                   22625440.3754
  -7923624.67647  -6130750.35445  21723597.8284                   21723596.6684
 -29724393.00848 -23140288.74946  20974020.8444                   20974019.2034
   8629800.94946   6753133.81444  23457046.9384                   23457046.6334
 -15709589.00448 -12221428.41546  21888554.9224                   21888556.6484
 -44927132.55947 -34968015.52645  22209774.8834                   22209772.1604
 -12249588.17647  -9529501.30045  22155889.7974                   22155889.3834
  16643974.36746  12976233.47043  25044151.2114                   25044151.3834
 11  8 23  2 36 30.0000000  0  9G12G26G29G05G15G25G02G30G21
 -26679083.70347 -20767271.37945  22443226.1564                   22443224.8444
   -647788.94547   -472008.58744  22599592.0084                   22599591.5664
  -8049872.95747  -6229125.62646  21699574.1174                   21699572.9734
 -29721840.16448 -23138299.51746  20974507.0554                   20974505.2234
   8480564.52747   6636845.77644  23428647.8594                   23428647.8794
 -15727600.02348 -12235462.99046  21885127.1644                   21885128.9184
 -44937245.11347 -34975895.44245  22207850.7114                   22207847.3444
 -12256726.13747  -9535063.31245  22154531.4384                   22154530.8134
  16534640.10545  12891038.06642  25023345.0314                   25023345.3284
 11  8 23  2 37  0.0000000  0  9G12G26G29G05G15G25G02G30G21
 -26648459.91047 -20743408.71845  22449053.8444                   22449053.1884
   -783296.21147   -577598.59944  22573805.9064                   22573806.0354
  -8175887.79347  -6327318.98946  21675593.6564                   21675592.4264
 -29718884.97747 -23135996.79246  20975069.3984                   20975067.5904
   8331406.54746   6520618.81944  23400263.9534                   23400263.5824
 -15745094.84048 -12249095.34446  21881798.4694                   21881799.9224
 -44947247.88347 -34983689.80445  22205946.9224                   22205943.7624
 -12263382.86347  -9540250.39945  22153265.3524                   22153264.5084
  16425324.83246  12805857.45743  25002543.3284                   25002543.6334
 11  8 23  2 37 30.0000000  0  9G12G26G29G05G15G25G02G30G21
 -26617568.79747 -20719337.75245  22454931.3594                   22454931.5514
   -918472.44547   -682930.69844  22548083.0864                   22548082.3634
  -8301665.55947  -6425327.62145  21651659.1644                   21651658.7344
 -29715528.89548 -23133381.66546  20975707.8204                   20975706.5124
   8182330.98447   6404456.11344  23371896.0234                   23371895.3204
 -15762074.41848 -12262326.19546  21878567.6094                   21878568.5234
 -44957139.32447 -34991397.40445  22204064.6414                   22204060.8674
 -12269559.72747  -9545063.54745  22152089.5314                   22152089.0314
  16316029.23046  12720692.15242  24981744.6954                   24981744.6954
 11  8 23  2 38  0.0000000  0  9G12G26G29G05G15G25G02G30G21
 -26586415.25447 -20695062.27345  22460859.3594                   22460859.7424
  -1053315.87547   -788003.46144  22522423.1564                   22522422.4884
  -8427206.32447  -6523151.57446  21627769.4774                   21627769.0234
 -29711776.37148 -23130457.61146  20976422.0474                   20976420.6134
   8033338.69146   6288358.25144  23343543.5084                   23343543.9064
 -15778542.76648 -12275158.67546  21875433.6484                   21875434.9184
 -44966921.31647 -34999019.72145  22202203.3204                   22202199.5864
 -12275261.33647  -9549506.35445  22151004.4304                   22151004.0434
  16206750.95346  12635540.37142  24960950.3284                   24960948.8914
 11  8 23  2 38 30.0000000  0  9G12G26G29G05G15G25G02G30G21
 -26555000.43047 -20670583.22845  22466837.5084                   22466837.3204
  -1187820.56247   -892812.26644  22496827.4534                   22496827.1954
  -8552505.16447  -6620787.00145  21603925.8284                   21603925.2584
 -29707627.39548 -23127224.65246  20977211.6564                   20977210.1134
   7884435.21146   6172329.61844  23315207.2584                   23315207.9804
 -15794499.55948 -12287592.56046  21872396.7344                   21872398.5664
 -44976591.02047 -35006554.54745  22200363.4224                   22200359.7234
 -12280487.85247  -9553578.98345  22150010.1094                   22150009.2034
  16097491.55146  12550403.28142  24940158.1884                   24940158.0514
 11  8 23  2 39  0.0000000  0  9G12G26G29G05G15G25G02G30G21
 -26523327.46547 -20645903.02045  22472865.1174                   22472864.3834
  -1321983.03946   -997354.41844  22471297.5634                   22471296.2854
  -8677560.13347  -6718232.40546  21580128.6724                   21580127.8954
 -29703084.67247 -23123684.86346  20978075.9304                   20978074.2894
   7735623.40246   6056372.44644  23286889.9694                   23286890.2034
 -15809947.05148 -12299629.58346  21869457.4304                   21869458.9024
 -44986148.64547 -35014002.05145  22198544.7814                   22198540.8874
 -12285242.11747  -9557283.61444  22149105.1024                   22149104.2734
  15988250.16846  12465280.26242  24919370.7344                   24919369.5234
 11  8 23  2 39 30.0000000  0  9G12G26G29G05G15G25G02G30G21
 -26491398.73447 -20621023.48145  22478940.7814                   22478940.1374
  -1455798.97347  -1101626.53944  22445832.7424                   22445832.7704
  -8802368.55947  -6815485.70146  21556378.7894                   21556377.8794
 -29698150.18748 -23119839.80146  20979014.8364                   20979013.2234
   7586906.99246   5940489.55344  23258590.6564                   23258589.5784
 -15824886.71547 -12311270.90046  21866614.4064                   21866616.0864
 -44995593.00047 -35021361.27045  22196747.4224                   22196743.5944
 -12289526.09847  -9560621.78545  22148290.2034                   22148288.6684
  15879027.15246  12380171.46942  24898585.7274                   24898584.8284
 11  8 23  2 40  0.0000000  0  9G12G26G29G05G15G25G02G30G21
 -26459223.27347 -20595951.70145  22485063.3444                   22485063.3554
  -1589271.30947  -1205630.89744  22420434.3834                   22420433.4774
  -8926933.98847  -6912549.63945  21532674.3054                   21532673.3324
 -29692832.29747 -23115695.99846  20980026.6954                   20980025.1334
   7438282.46146   5824678.26044  23230308.2734                   23230307.3554
 -15839327.11747 -12322523.17046  21863866.9844                   21863868.1994
 -45004930.58247 -35028637.29445  22194970.2814                   22194966.2774
 -12293348.85247  -9563600.61045  22147562.1644                   22147561.7504
  15769815.19146  12295071.31342  24877803.0234                   24877803.4494
 11  8 23  2 40 30.0000000  0  9G12G26G29G05G15G25G02G30G21
 -26426800.00847 -20570686.83645  22491233.6334                   22491232.8054
  -1722391.62147  -1309360.95844  22395101.5474                   22395101.5554
  -9051249.36747  -7009418.73846  21509018.3444                   21509016.9654
 -29687128.89847 -23111251.79546  20981112.2734                   20981110.7704
   7289757.73046   5708944.75344  23202044.8674                   23202044.7384
 -15853265.66047 -12333384.38246  21861213.8984                   21861215.7774
 -45014156.14547 -35035826.03545  22193214.8524                   22193210.9734
 -12296708.34447  -9566218.39345  22146923.6724                   22146922.2624
  15660618.51646  12209983.08642  24857022.9694                   24857023.5984
 11  8 23  2 41  0.0000000  0  9G12G26G29G05G15G25G02G30G21
 -26394132.25047 -20545231.46145  22497449.5394                   22497449.5474
  -1855156.68047  -1412814.21944  22369837.5554                   22369837.3794
  -9175312.98047  -7106091.65746  21485409.6414                   21485408.3954
 -29681043.11747 -23106509.63546  20982270.1254                   20982268.6374
   7141335.11347   5593290.81644  23173800.7974                   23173800.5234
 -15866704.95347 -12343856.58045  21858656.4224                   21858658.3484
 -45023270.15647 -35042927.85345  22191480.6094                   22191476.8134
 -12299607.65247  -9568477.64245  22146371.7424                   22146370.9734
  15551436.05946  12124905.96542  24836247.5314                   24836247.0984
 11  8 23  2 41 30.0000000  0  9G12G26G29G05G15G25G02G30G21
 -26361224.47747 -20519589.05145  22503712.2814                   22503711.3794
  -1987564.23047  -1515988.92244  22344641.1094                   22344640.8484
  -9299124.11347  -7202567.83746  21461848.9614                   21461848.0004
 -29674578.35947 -23101472.16246  20983500.4614                   20983499.0204
   6993016.19947   5477717.69444  23145576.3754                   23145576.2974
 -15879648.45747 -12353942.43246  21856193.6884                   21856195.6954
 -45032273.15647 -35049943.17545  22189767.4534                   22189763.8324
 -12302050.75447  -9570381.40045  22145906.7894                   22145905.7304
  15442266.16046  12039838.60542  24815472.8754                   24815472.3444
 11  8 23  2 42  0.0000000  0  9G12G26G29G05G15G25G02G30G21
 -26328076.48847 -20493759.47745  22510020.3674                   22510019.4924
  -2119607.44547  -1618879.69444  22319514.6334                   22319514.4344
  -9422676.57047  -7298842.44946  21438337.9454                   21438336.8554
 -29667734.00047 -23096138.91346  20984802.7734                   20984801.3444
   6844807.44547   5362230.44244  23117374.1254                   23117372.7974
 -15892095.06248 -12363641.11346  21853825.0634                   21853827.2894
 -45041161.89547 -35056869.43745  22188076.2424                   22188072.2424
 -12304037.10247  -9571929.20745  22145528.5634                   22145528.0164
  15333111.50846  11954783.10243  24794701.3284                   24794701.3134
 11  8 23  2 42 30.0000000  0  9G12G26G29G05G15G25G02G30G21
 -26294696.41447 -20467749.05145  22516372.2664                   22516371.7194
  -2251287.77347  -1721487.70945  22294456.3524                   22294455.8364
  -9545973.52047  -7394917.96246  21414875.2664                   21414874.1054
 -29660517.32847 -23090515.52946  20986176.1254                   20986174.3444
   6696707.05947   5246827.56744  23089190.8914                   23089190.6644
 -15904052.08648 -12372958.29345  21851549.8134                   21851551.8054
 -45049940.64847 -35063710.00045  22186404.8134                   22186401.8364
 -12305574.46947  -9573127.18345  22145236.2894                   22145235.3594
  15223966.42246  11869735.15642  24773931.2974                   24773931.3674
 11  8 23  2 43  0.0000000  0  9G12G26G29G05G15G25G02G30G21
 -26261085.12947 -20441558.45845  22522768.4454                   22522767.6804
  -2382599.53147  -1823808.51344  22269468.6254                   22269468.2154
  -9669010.69948  -7490791.06646  21391462.1884                   21391460.7734
 -29652928.98047 -23084602.51246  20987620.2114                   20987618.7034
   6548719.72347   5131512.86044  23061029.6804                   23061029.9534
 -15915519.70748 -12381894.11545  21849367.7814                   21849369.5784
 -45058607.61747 -35070463.48545  22184755.9064                   22184751.9694
 -12306663.50847  -9573975.80845  22145028.7274                   22145028.5904
  15114832.40646  11784695.76743  24753163.7504                   24753163.8754
 11  8 23  2 43 30.0000000  0  9G12G26G29G05G15G25G02G30G21
 -26227246.25447 -20415190.50745  22529207.5704                   22529206.8134
  -2513539.49247  -1925839.59045  22244551.4144                   22244550.8954
  -9791785.94947  -7586460.06546  21368098.6724                   21368097.4384
 -29644971.83247 -23078402.14346  20989134.1254                   20989132.6374
   6400848.34847   5016288.49544  23032890.9534                   23032890.3874
 -15926500.71948 -12390450.75945  21847278.1644                   21847279.7664
 -45067163.10247 -35077130.05645  22183128.2194                   22183123.9064
 -12307307.55547  -9574477.72945  22144906.3914                   22144906.5124
  15005708.24646  11699664.04443  24732398.1954                   24732397.6134
 11  8 23  2 44  0.0000000  0  9G12G26G29G05G15G25G02G30G21
 -26193182.82447 -20388647.62145  22535689.9614                   22535689.2734
  -2644104.15647  -2027578.25844  22219706.0704                   22219705.3914
  -9914296.89547  -7681923.11346  21344785.6334                   21344784.3444
 -29636648.15647 -23071916.13946  20990718.2274                   20990716.6094
   6253095.80946   4901156.69344  23004774.1724                   23004773.3984
 -15936997.18448 -12398629.83345  21845280.5004                   21845281.6994
 -45075606.68047 -35083709.45945  22181520.8284                   22181517.2034
 -12307509.09447  -9574634.77445  22144869.0944                   22144867.9264
  14896593.80146  11614639.98043  24711634.4694                   24711634.1724
 11  8 23  2 44 30.0000000  0  9G12G26G29G05G15G25G02G30G21
 -26158896.59847 -20361931.09045  22542213.6724                   22542213.2424
  -2774288.16847  -2129020.31144  22194933.0164                   22194931.9694
 -10036539.84447  -7777177.33346  21321523.1564                   21321522.2934
 -29627958.92248 -23065145.31146  20992371.5634                   20992370.6994
   6105467.04347   4786121.35444  22976681.4694                   22976680.9104
 -15947009.85547 -12406431.93145  21843375.6254                   21843376.7934
 -45083936.18047 -35090199.97645  22179936.1484                   22179932.6294
 -12307269.46947  -9574448.08245  22144913.9924                   22144913.1954
  14787489.76646  11529623.93243  24690872.9614                   24690872.7774
 11  8 23  2 45  0.0000000  0  9G12G26G29G05G15G25G02G30G21
 -26124394.86347 -20335046.66545  22548779.3524                   22548779.2974
  -2904092.87947  -2230166.81344  22170231.7504                   22170231.0984
 -10158516.67647  -7872224.19146  21298311.6024                   21298310.8054
 -29618911.31648 -23058095.22746  20994093.8204                   20994091.8204
   5957960.07046   4671180.96544  22948611.5004                   22948611.5084
 -15956545.67247 -12413862.43645  21841560.8284                   21841562.0864
 -45092155.78546 -35096604.85745  22178371.8674                   22178368.6764
 -12306595.98047  -9573923.29045  22145041.7664                   22145041.8484
  14678391.01246  11444612.07443  24670111.3284                   24670110.8484
 11  8 23  2 45 30.0000000  0  9G12G26G29G05G15G25G02G30G21
 -26089681.95747 -20307997.67444  22555385.1884                   22555384.5664
  -3033515.26647  -2331015.36545  22145603.1094                   22145602.8524
 -10280226.13348  -7967062.70146  21275151.3524                   21275150.2624
 -29609508.69547 -23050768.50446  20995882.8914                   20995881.2074
   5810577.26247   4556337.26744  22920565.2974                   22920565.1994
 -15965607.82448 -12420923.87245  21839836.2814                   21839838.0744
 -45100266.38347 -35102924.77345  22176828.3674                   22176825.0434
 -12305492.34047  -9573063.32344  22145251.6334                   22145251.3524
  14569296.14846  11359603.11343  24649351.3284                   24649350.9534
 11  8 23  2 46  0.0000000  0  9G12G26G29G05G15G25G02G30G21
 -26054755.67647 -20280782.39745  22562031.4224                   22562030.6334
  -3162547.02747  -2431559.56845  22121049.5164                   22121048.2234
 -10401661.02048  -8061687.25746  21252042.7734                   21252041.8984
 -29599748.41448 -23043163.08446  20997740.1484                   20997738.7154
   5663326.85546   4441596.73344  22892544.6174                   22892543.6604
 -15974193.80148 -12427614.24445  21838202.3284                   21838203.8554
 -45108262.74247 -35109155.67645  22175306.6724                   22175303.7464
 -12303956.48047  -9571866.57145  22145544.1804                   22145543.8834
  14460209.45946  11274600.62443  24628592.5784                   24628593.0354
 11  8 23  2 46 30.0000000  0  9G12G26G29G05G15G25G02G30G21
 -26019621.53947 -20253405.19545  22568716.8594                   22568716.8134
  -3291186.69947  -2531798.24645  22096570.5164                   22096569.2934
 -10522821.07447  -8156097.66346  21228987.3594                   21228986.2584
 -29589635.14848 -23035282.61446  20999664.7584                   20999663.1254
   5516209.35247   4326959.77344  22864548.6954                   22864548.5164
 -15982308.02748 -12433937.03245  21836658.3524                   21836660.2114
 -45116146.54747 -35115298.89645  22173806.2584                   22173803.3914
 -12301993.30547  -9570336.83245  22145917.6334                   22145917.8134
  14351128.31646  11189602.46743  24607835.0554                   24607835.3754
 11  8 23  2 47  0.0000000  0  9G12G26G29G05G15G25G02G30G21
 -24408858.90247 -18998265.50145  22875235.1884                   22875234.8594
  -1844001.43047  -1404121.37945  22371959.9144                   22371959.6764
  -9068274.78947  -7022684.95246  21505777.6174                   21505777.2424
 -28003746.98448 -21799525.58346  21301449.1414                   21301447.5004
   6944658.00047   5440036.68244  23136373.6954                   23136373.7624
 -14414527.67647 -11212290.00545  22134997.0314                   22134998.6484
 -43548492.34847 -33893750.16345  22472121.4774                   22472118.4924
 -10724180.81647  -8340872.57645  22446165.3914                   22446165.1564
  15817480.99646  12332215.03943  24886872.9304                   24886872.2114
 11  8 23  2 47 30.0000000  0  9G12G26G29G05G15G25G02G30G21
 -24373315.30147 -18970569.24245  22881998.9304                   22881998.6644
  -1971843.50847  -1503738.57145  22347632.3914                   22347631.6604
  -9188875.00447  -7116659.09946  21482828.0554                   21482827.5704
 -27992932.35547 -21791098.58946  21303506.8914                   21303505.5634
   6797818.93447   5325616.67144  23108431.3524                   23108431.7504
 -14421702.68447 -11217880.91645  22133631.3054                   22133633.6454
 -43556147.31647 -33899715.07345  22470664.4774                   22470662.0354
 -10721368.77347  -8338681.39545  22446700.8444                   22446700.1954
  15708412.40646  12247226.64643  24866118.2114                   24866117.3324
 11  8 23  2 48  0.0000000  0  9G12G26G29G05G15G25G02G30G21
 -24337570.50447 -18942716.16444  22888800.8134                   22888800.2424
  -2099280.30947  -1603039.91545  22323382.1644                   22323381.5204
  -9309190.74647  -7210411.59846  21459933.4224                   21459932.3484
 -27981769.69947 -21782400.41346  21305631.0704                   21305629.8094
   6651124.43447   5211309.33544  23080516.3204                   23080515.5824
 -14428410.59447 -11223107.87646  22132355.0704                   22132356.6054
 -43563686.38747 -33905589.65545  22469229.8594                   22469227.2734
 -10718135.42247  -8336161.92945  22447316.5004                   22447315.3484
  15599350.33646  12162243.28643  24845363.4384                   24845364.0394
 11  8 23  2 48 30.0000000  0 10G18G12G26G29G05G15G25G02G30G21
  20249077.61356  15787680.48052  24773740.2814                   24773741.4844
 -24301630.10547 -18914710.68945  22895640.5554                   22895639.0084
  -2226310.69547  -1702024.58545  22299208.8284                   22299208.1524
  -9429222.11347  -7303942.48646  21437091.8284                   21437090.3674
 -27970263.87547 -21773434.82746  21307820.7194                   21307818.8874
   6504575.69547   5097115.58745  23052628.8204                   23052628.8014
 -14434656.19147 -11227974.56446  22131166.8984                   22131168.3754
 -43571111.33646 -33911375.29445  22467816.8524                   22467813.3834
 -10714485.99647  -8333318.24545  22448010.6724                   22448009.5864
  15490291.75046  12077262.76243  24824610.0554                   24824609.9804
 11  8 23  2 49  0.0000000  0 10G18G12G26G29G05G15G25G02G30G21
  20106838.21546  15676844.77342  24746672.9614                   24746674.1804
 -24265508.91847 -18886564.33344  22902513.9844                   22902513.5744
  -2352943.05947  -1800699.10145  22275111.7034                   22275110.8244
  -9548978.27047  -7397258.92346  21414303.1644                   21414301.8594
 -27958429.19547 -21764212.98746  21310072.9454                   21310070.8834
   6358163.86747   4983028.48444  23024767.5784                   23024767.5084
 -14440453.71148 -11232492.10446  22130063.9534                   22130065.2194
 -43578433.60247 -33917080.94645  22466423.6414                   22466419.8594
 -10710435.25447  -8330161.84445  22448781.2974                   22448780.4774
  15381224.52746  11992275.39543  24803856.2344                   24803855.0824
 11  8 23  2 49 30.0000000  0 10G18G12G26G29G05G15G25G02G30G21
  19964766.97745  15566140.11342  24719636.5234                   24719639.0784
 -24229215.84447 -18858284.04944  22909420.0554                   22909419.2704
  -2479179.82047  -1899065.38245  22251089.2424                   22251088.6214
  -9668463.12948  -7490363.96846  21391565.9694                   21391564.4884
 -27946274.07448 -21754741.46846  21312385.8054                   21312384.0474
   6211885.86347   4869045.68045  22996932.1254                   22996931.4344
 -14445811.64547 -11236667.11946  22129044.1334                   22129045.6134
 -43585659.03947 -33922711.11845  22465048.8524                   22465045.2034
 -10705992.02347  -8326699.59744  22449627.3204                   22449626.0354
  15272141.94146  11907276.02643  24783098.0704                   24783098.2974
 11  8 23  2 50  0.0000000  0 10G18G12G26G29G05G15G25G02G30G21
  19822870.77046  15455571.84042  24692635.2034                   24692637.2624
 -24192748.72747 -18829868.15844  22916359.7274                   22916359.1094
  -2605011.94147  -1997116.32945  22227144.4694                   22227143.8874
  -9787668.55948  -7583251.28646  21368881.4304                   21368880.4654
 -27933795.62548 -21745017.99646  21314760.2504                   21314758.5744
   6065750.21947   4755173.80944  22969123.5004                   22969122.5234
 -14450726.89548 -11240497.18145  22128108.8364                   22128110.1994
 -43592781.73447 -33928261.28145  22463692.9774                   22463690.2234
 -10701153.71947  -8322929.49345  22450547.3204                   22450546.8244
  15163049.14846  11822268.78643  24762337.8444                   24762338.0314
 11  8 23  2 50 30.0000000  0 10G18G12G26G29G05G15G25G02G30G21
  19681153.27746  15345142.85242  24665667.7734                   24665669.2734
 -24156108.76247 -18801317.58845  22923332.3594                   22923331.2424
  -2730434.15647  -2094847.86945  22203277.4774                   22203277.1294
  -9906590.55547  -7675917.73746  21346251.4924                   21346250.5004
 -27920994.35248 -21735042.98246  21317196.3834                   21317194.6724
   5919762.06347   4641416.84945  22941342.1564                   22941342.2584
 -14455200.10947 -11243982.78845  22127257.5944                   22127258.5664
 -43599799.52747 -33933729.68145  22462357.4064                   22462354.3754
 -10695921.37947  -8318852.37245  22451543.1174                   22451542.9024
  15053947.36346  11737254.52943  24741576.4224                   24741576.5234
 11  8 23  2 51  0.0000000  0 10G18G12G26G29G05G15G25G02G30G21
  19539615.84846  15234854.16643  24638733.2664                   24638734.9494
 -24119298.77047 -18772634.50344  22930337.1484                   22930336.3754
  -2855442.69947  -2192257.04845  22179488.8834                   22179488.4574
 -10025226.50448  -7768361.29246  21323676.0084                   21323675.0594
 -27907872.29747 -21724817.99546  21319693.5554                   21319691.7664
   5773924.50047   4527777.26145  22913590.2584                   22913590.5944
 -14459233.61747 -11247125.77345  22126489.8444                   22126491.4614
 -43606712.21147 -33939116.17845  22461042.7504                   22461038.9734
 -10690297.85247  -8314470.41744  22452613.4694                   22452612.5904
  14944836.18846  11652232.92443  24720812.8984                   24720813.6454
 11  8 23  2 51 30.0000000  0 10G18G12G26G29G05G15G25G02G30G21
  19398259.84846  15124706.85243  24611834.4924                   24611835.1954
 -24082321.53547 -18743821.08944  22937373.6174                   22937372.6804
  -2980034.12947  -2289341.21945  22155779.7894                   22155779.3014
 -10143573.95747  -7860580.04646  21301155.1414                   21301153.8164
 -27894431.97347 -21714345.02946  21322251.0554                   21322249.4574
   5628240.71547   4414257.50144  22885867.5864                   22885867.3244
 -14462829.76247 -11249927.94145  22125805.1884                   22125807.4924
 -43613518.53947 -33944419.82645  22459747.2504                   22459744.0664
 -10684285.78547  -8309785.70744  22453757.0164                   22453757.2704
  14835715.28146  11567203.82043  24700047.3284                   24700048.2234
 11  8 23  2 52  0.0000000  0 10G18G12G26G29G05G15G25G02G30G21
  19257085.17246  15014700.80942  24584969.9064                   24584969.9304
 -24045181.25447 -18714880.62644  22944441.1804                   22944439.8014
  -3104205.67247  -2386098.20145  22132150.6954                   22132150.2624
 -10261631.34048  -7952572.76246  21278689.2894                   21278688.2464
 -27880677.23047 -21703627.03846  21324868.0784                   21324867.2074
   5482713.37147   4300859.63845  22858174.5944                   22858174.2424
 -14465992.05947 -11252392.07145  22125203.1564                   22125205.0354
 -43620219.43047 -33949641.30645  22458471.9304                   22458468.3714
 -10677889.15247  -8304801.32644  22454974.5164                   22454974.2274
  14726583.50446  11482166.15043  24679280.6954                   24679281.2664
 11  8 23  2 52 30.0000000  0 10G18G12G26G29G05G15G25G02G30G21
  19116100.15646  14904842.57842  24558140.7194                   24558140.6454
 -24007874.05147 -18685810.11444  22951540.5784                   22951539.5084
  -3227946.78947  -2482519.78145  22108603.5634                   22108602.8094
 -10379389.41847  -8044332.25746  21256280.8914                   21256279.7194
 -27866603.15247 -21692660.22146  21327546.8204                   21327545.6134
   5337352.29747   4187591.34044  22830513.1484                   22830512.9494
 -14468715.89847 -11254514.55345  22124685.3054                   22124686.7274
 -43626807.31247 -33954774.73545  22457218.9454                   22457215.2504
 -10671103.83247  -8299514.07945  22456265.7034                   22456265.3754
  14617446.96146  11397124.85843  24658512.5084                   24658512.4494
 11  8 23  2 53  0.0000000  0 10G18G12G26G29G05G15G25G02G30G21
  18975307.89846  14795134.54742  24531349.6954                   24531349.0314
 -23970401.69147 -18656610.89845  22958670.8984                   22958670.4614
  -3351252.93047  -2578602.44645  22085139.6644                   22085138.6724
 -10496844.31647  -8135855.50546  21233929.6804                   21233928.6254
 -27852210.96547 -21681445.51646  21330285.4454                   21330283.9024
   5192161.89147   4074456.01844  22802884.3674                   22802884.2464
 -14471002.63347 -11256296.42345  22124250.2194                   22124252.2544
 -43633280.65647 -33959818.93145  22455986.9774                   22455983.3714
 -10663931.41847  -8293925.20744  22457630.9144                   22457630.4654
  14508306.64846  11312080.54943  24637743.6884                   24637743.4414
 11  8 23  2 53 30.0000000  0 10G18G12G26G29G05G15G25G02G30G21
  18834709.84046  14685577.81642  24504592.7814                   24504594.0664
 -23932766.53147 -18627284.83544  22965833.2894                   22965833.3754
  -3474119.98047  -2674342.93345  22061758.2894                   22061757.3594
 -10613993.04347  -8227140.17346  21211636.9694                   21211636.3794
 -27837502.53148 -21669984.39546  21333084.3914                   21333082.7194
   5047145.82847   3961456.53445  22775289.2814                   22775288.5434
 -14472854.12947 -11257739.14245  22123897.9614                   22123899.8364
 -43639638.53147 -33964773.12745  22454776.9924                   22454773.3324
 -10656374.28547  -8288036.54445  22459068.9384                   22459068.3324
  14399162.89846  11227033.65243  24616974.3134                   24616974.2154
 11  8 23  2 54  0.0000000  0 10G18G12G26G29G05G15G25G02G30G21
  18694303.17245  14576170.26242  24477874.5864                   24477874.5554
 -23894976.04347 -18597837.74444  22973023.9064                   22973023.6604
  -3596548.89147  -2769742.02045  22038460.7734                   22038460.1054
 -10730837.95347  -8318188.12346  21189402.0784                   21189401.0514
 -27822484.51648 -21658282.02746  21335942.3134                   21335940.4614
   4902302.94947   3848592.00945  22747725.9144                   22747725.5904
 -14474277.41847 -11258848.21045  22123627.0164                   22123628.9064
 -43645884.96547 -33969640.49945  22453587.9844                   22453584.6914
 -10648439.84447  -8281853.86445  22460578.7274                   22460578.0984
  14290010.66446  11141980.05343  24596204.1564                   24596202.6914
 11  8 23  2 54 30.0000000  0 10G18G12G26G29G05G15G25G02G30G21
  18554094.77346  14466917.20742  24451193.2424                   24451193.4494
 -23857027.54347 -18568267.51844  22980245.9384                   22980245.8984
  -3718530.60247  -2864792.64345  22015248.4614                   22015248.0124
 -10847370.75447  -8408992.85346  21167226.4774                   21167225.4344
 -27807153.76648 -21646335.97146  21338859.3364                   21338857.7384
   4757641.88747   3735869.15944  22720197.9694                   22720197.5554
 -14475269.34447 -11259621.15645  22123438.5634                   22123439.7544
 -43652013.92647 -33974416.31545  22452422.0554                   22452417.8714
 -10640125.35947  -8275375.06845  22462161.0234                   22462160.9534
  14180854.97746  11056923.76242  24575432.1884                   24575430.0314
 11  8 23  2 55  0.0000000  0 10G18G12G26G29G05G15G25G02G30G21
  18414080.49246  14357815.33242  24424549.7894                   24424549.8554
 -23818929.39546 -18538580.66944  22987495.1094                   22987494.9104
  -3840066.62547  -2959495.97145  21992120.8134                   21992119.9844
 -10963593.85947  -8499556.26346  21145110.1954                   21145108.9844
 -27791517.85248 -21634152.12346  21341835.0314                   21341833.4774
   4613160.96547   3623286.68544  22692703.9614                   22692703.4654
 -14475837.51647 -11260063.89445  22123330.8524                   22123331.6484
 -43658029.62547 -33979103.88245  22451276.9454                   22451273.4304
 -10631438.78147  -8268606.29444  22463813.8204                   22463813.2584
  14071690.35546  10971860.48843  24554658.1954                   24554656.7584
 11  8 23  2 55 30.0000000  0 10G18G12G26G29G05G15G25G02G30G21
  18274262.18046  14248866.23842  24397943.2194                   24397942.6994
 -23780684.02046 -18508779.13044  22994773.5784                   22994772.8754
  -3961153.30147  -3053849.16345  21969079.0704                   21969077.8754
 -11079504.72747  -8589876.38046  21123053.0474                   21123051.9384
 -27775579.18748 -21621732.38646  21344868.0634                   21344866.7774
   4468863.52747   3510847.18145  22665245.6094                   22665244.0864
 -14475984.28947 -11260178.26245  22123302.0474                   22123303.9264
 -43663931.54747 -33983702.80045  22450153.9774                   22450150.7464
 -10622382.87547  -8261549.74944  22465536.8984                   22465536.6094
  13962516.80946  10886790.36443  24533883.3834                   24533882.6454
 11  8 23  2 56  0.0000000  0 10G18G12G26G29G05G15G25G02G30G21
  18134643.94146  14140073.03142  24371374.6414                   24371374.5434
 -23742291.59047 -18478862.99044  23002078.9304                   23002078.3364
  -4081784.14847  -3147847.16045  21946123.3444                   21946122.7974
 -11195097.58247  -8679948.71546  21101056.5864                   21101055.0434
 -27759337.03548 -21609076.14946  21347958.7424                   21347956.9694
   4324755.69146   3398555.39344  22637822.1024                   22637821.6644
 -14475709.25047 -11259963.94945  22123354.9454                   22123356.7894
 -43669716.47347 -33988210.52845  22449053.2424                   22449049.3094
 -10612957.66847  -8254205.45844  22467330.5944                   22467330.8754
  13853336.97746  10801715.27343  24513107.1094                   24513106.3794
 11  8 23  2 56 30.0000000  0 10G18G12G26G29G05G15G25G02G30G21
  17995229.33646  14031438.48243  24344845.2894                   24344845.9264
 -23703752.85247 -18448832.80844  23009412.6724                   23009412.5274
  -4201953.44147  -3241485.52945  21923256.2584                   21923255.0084
 -11310368.60247  -8769770.25246  21079121.2734                   21079119.9344
 -27742791.49648 -21596183.50146  21351107.2974                   21351105.5594
   4180842.65247   3286415.42644  22610436.5704                   22610436.0394
 -14475012.90247 -11259421.34645  22123487.0004                   22123488.6414
 -43675381.50847 -33992624.88744  22447974.9384                   22447971.7114
 -10603164.00447  -8246574.01344  22469194.0864                   22469193.7734
  13744152.37946  10716636.47543  24492330.3134                   24492329.1884
 11  8 23  2 57  0.0000000  0 10G18G12G26G29G05G15G25G02G30G21
  17856016.61046  13922961.21943  24318353.6954                   24318353.9494
 -23665074.03147 -18418693.49544  23016773.2814                   23016772.9384
  -4321660.93747  -3334764.04345  21900476.3984                   21900475.8484
 -11425317.82847  -8859341.02646  21057246.9534                   21057245.6054
 -27725947.84448 -21583058.55246  21354312.4144                   21354310.4224
   4037124.85247   3174427.55144  22583088.4224                   22583087.9734
 -14473900.56247 -11258554.58945  22123698.3134                   22123700.1954
 -43680929.23047 -33996947.79344  22446919.3054                   22446915.9454
 -10593007.58647  -8238659.92744  22471127.4384                   22471126.5394
  13634959.75446  10631551.41043  24471551.1024                   24471550.8404
 11  8 23  2 57 30.0000000  0 10G18G12G26G29G05G15G25G02G30G21
  17717008.63746  13814643.53843  24291901.8594                   24291901.6764
 -23626255.96547 -18388445.68744  23024160.3444                   23024159.2384
  -4440901.38347  -3427678.62845  21877785.9774                   21877785.2234
 -11539941.00847  -8948657.75346  21035434.8204                   21035433.2894
 -27708806.86747 -21569701.93646  21357574.1724                   21357572.4734
   3893607.18047   3062595.66745  22555776.9614                   22555776.6294
 -14472373.18047 -11257364.43545  22123989.2424                   22123990.8404
 -43686357.57047 -34001177.65444  22445885.8984                   22445882.9414
 -10582489.62947  -8230464.11745  22473128.3444                   22473128.3164
  13525760.59046  10546461.24243  24450770.8524                   24450770.4064
 11  8 23  2 58  0.0000000  0 10G18G12G26G29G05G15G25G02G30G21
  17578209.35246  13706488.49343  24265488.8364                   24265488.6844
 -23587298.94947 -18358089.59944  23031573.1174                   23031572.4574
  -4559668.61747  -3520224.45645  21855184.8054                   21855184.3404
 -11654233.10547  -9037716.49246  21013685.7734                   21013684.1684
 -27691368.31647 -21556113.41846  21360892.2584                   21360891.3324
   3750295.84046   2950924.55145  22528506.2974                   22528505.3164
 -14470430.60547 -11255850.73745  22124358.3364                   22124360.3404
 -43691662.84047 -34005311.63944  22444877.1414                   22444873.2194
 -10571610.43447  -8221986.84944  22475198.8054                   22475198.5824
  13416557.38346  10461367.89143  24429990.5234                   24429989.8014
 11  8 23  2 58 30.0000000  0 10G18G12G26G29G05G15G25G02G30G21
  17439619.95746  13598496.92043  24239115.6174                   24239115.6254
 -23548206.55947 -18327628.02944  23039012.7114                   23039011.5004
  -4677959.59047  -3612399.18545  21832674.8754                   21832673.8284
 -11768192.06647  -9126515.67246  20992000.1804                   20991998.9144
 -27673635.35548 -21542295.52646  21364267.1094                   21364265.9064
   3607193.35947   2839416.15545  22501274.5864                   22501274.0514
 -14468075.85547 -11254015.89145  22124806.9844                   22124808.9304
 -43696845.20347 -34009349.86344  22443890.8524                   22443887.1884
 -10560373.35247  -8213230.69144  22477337.5864                   22477336.8634
  13307349.28146  10376270.83043  24409208.6564                   24409208.8054
 11  8 23  2 59  0.0000000  0 10G18G12G26G29G05G15G25G02G30G21
  17301244.81646  13490672.39043  24212783.2504                   24212783.3984
 -23508978.37547 -18297060.63644  23046477.8444                   23046476.2624
  -4795767.74647  -3704197.71045  21810256.5554                   21810255.7544
 -11881812.02047  -9215050.67546  20970378.7734                   20970377.5354
 -27655606.45748 -21528247.01446  21367697.6724                   21367696.8164
   3464306.13747   2728075.52745  22474083.7664                   22474083.6994
 -14465308.36747 -11251859.41045  22125333.7344                   22125335.1884
 -43701900.98847 -34013289.45644  22442928.3674                   22442925.2464
 -10548778.20347  -8204195.52744  22479544.5394                   22479543.4384
  13198138.85246  10291171.93743  24388426.1484                   24388425.5864
 11  8 23  2 59 30.0000000  0 10G18G12G26G29G05G15G25G02G30G21
  17163083.97746  13383014.72043  24186491.7274                   24186492.0594
 -23469618.87547 -18266390.90844  23053966.9694                   23053966.4924
  -4913090.97747  -3795618.34945  21787930.8524                   21787930.2234
 -11995092.32047  -9303321.01446  20948822.3674                   20948821.5204
 -27637285.80547 -21513971.15546  21371184.0864                   21371182.6684
   3321635.99247   2616904.02145  22446934.7504                   22446934.3054
 -14462132.21547 -11249384.50045  22125938.1954                   22125939.8324
 -43706831.21547 -34017131.18744  22441989.8914                   22441987.1214
 -10536829.41847  -8194884.80945  22481817.9534                   22481817.0004
  13088924.03146  10206069.48943  24367643.3834                   24367642.1564
 11  8 23  3  0  0.0000000  0 10G18G12G26G29G05G15G25G02G30G21
  17025133.45746  13275520.95943  24160240.2974                   24160240.0704
 -23430135.79747 -18235624.92144  23061480.8364                   23061480.3134
  -5029930.98047  -3886662.48545  21765696.8754                   21765696.2504
 -12108034.94547  -9391328.23946  20927329.9694                   20927328.7934
 -27618680.50048 -21499473.50446  21374724.4694                   21374723.4734
   3179181.19547   2505900.34445  22419826.4844                   22419826.0084
 -14458554.84447 -11246596.97045  22126619.2194                   22126620.4654
 -43711640.05547 -34020878.35645  22441075.8594                   22441071.8284
 -10524534.70347  -8185304.54445  22484157.6254                   22484156.9964
  12979700.20346  10120960.19843  24346858.5394                   24346857.6884
 11  8 23  3  0 30.0000000  0 10G18G12G26G29G05G15G25G02G30G21
  16887397.17246  13168194.08642  24134029.1644                   24134028.9924
 -23390529.60946 -18204763.02544  23069017.6884                   23069016.6764
  -5146281.50047  -3977325.21545  21743556.3134                   21743555.4734
 -12220635.02747  -9479068.55446  20905903.0554                   20905901.3054
 -27599790.00848 -21484753.62546  21378319.6334                   21378317.7734
   3036947.88347   2395069.22545  22392760.6884                   22392759.5474
 -14454576.25847 -11243496.79345  22127376.3594                   22127378.3094
 -43716324.12947 -34024528.27644  22440184.0234                   22440180.0164
 -10511894.50847  -8175455.06244  22486562.8524                   22486561.8554
  12870469.73446  10035845.66042  24326072.7894                   24326072.3874
 11  8 23  3  1  0.0000000  0 10G18G12G26G29G05G15G25G02G30G21
  16749875.77045  13061034.71542  24107859.8364                   24107859.5354
 -23350803.91446 -18173807.98844  23076576.8834                   23076576.5944
  -5262139.88347  -4067604.43745  21721508.9614                   21721508.0124
 -12332890.51647  -9566540.34846  20884541.1094                   20884540.0594
 -27580617.49647 -21469813.97746  21381967.7194                   21381966.0784
   2894938.44947   2284412.57045  22365736.5864                   22365736.5044
 -14450199.70347 -11240086.52245  22128209.4844                   22128210.9494
 -43720883.86747 -34028081.33145  22439316.7814                   22439312.7584
 -10498912.39547  -8165339.13344  22489033.3754                   22489032.7734
  12761231.22346   9950724.84943  24305285.8284                   24305284.5204
 11  8 23  3  1 30.0000000  0 10G18G12G26G29G05G15G25G02G30G21
  16612570.68446  12954043.89842  24081731.9384                   24081732.0704
 -23310961.35246 -18142761.86444  23084158.6334                   23084157.8014
  -5377502.76247  -4157497.55745  21699556.0554                   21699555.2664
 -12444798.86347  -9653741.65446  20863246.0784                   20863244.7974
 -27561165.28147 -21454656.39846  21385669.5314                   21385667.9694
   2753156.48447   2173933.15245  22338756.5394                   22338756.0744
 -14445427.73047 -11236368.12645  22129116.8284                   22129118.6644
 -43725318.64847 -34031537.03744  22438472.1954                   22438469.4494
 -10485591.17247  -8154959.01644  22491568.3364                   22491567.1644
  12651984.75446   9865597.84543  24284496.8914                   24284494.8834
 11  8 23  3  2  0.0000000  0 10G18G12G26G29G05G15G25G02G30G21
  18050907.00446  14074825.57842  24355437.9614                   24355438.4924
 -21695586.80946 -16884028.51644  23391554.8674                   23391554.1764
  -3916943.75047  -3019399.60145  21977491.3134                   21977490.0864
 -10980934.60947  -8513068.19046  21141810.0474                   21141809.1254
 -25966017.17648 -20211683.82146  21689215.9614                   21689214.4574
   4187028.82847   3291236.32445  22611613.1334                   22611612.7034
 -12864843.91047 -10004744.38845  22429892.1334                   22429893.9344
 -42154208.31247 -32807295.21644  22737444.8674                   22737441.1844
  -8896515.13347  -6916717.96044  22793959.0394                   22793958.7584
  14118152.78946  11008066.56143  24563499.0474                   24563497.6294
 11  8 23  3  2 30.0000000  0 10G18G12G26G29G05G15G25G02G30G21
  17914039.01246  13968175.30142  24329393.1254                   24329392.9384
 -21655518.19546 -16852806.23644  23399179.3134                   23399179.1994
  -4031304.18047  -3108511.58545  21955729.0554                   21955728.1214
 -11092140.35547  -8599721.99846  21120648.2424                   21120647.1804
 -25946011.51248 -20196094.97046  21693022.8524                   21693021.0124
   4045712.04347   3181119.40945  22584721.7114                   22584720.8014
 -12859288.15647 -10000415.25345  22430949.3754                   22430950.9414
 -42158389.76647 -32810553.52944  22736649.2424                   22736645.6294
  -8882523.82447  -6905815.67844  22796621.3524                   22796621.1644
  14008890.30946  10922927.07843  24542707.1954                   24542706.2774
 11  8 23  3  3  0.0000000  0 10G18G12G26G29G05G15G25G02G30G21
  17777392.30546  13861697.46843  24303390.6334                   24303390.3094
 -21615340.20346 -16821498.77644  23406825.0394                   23406824.9024
  -4145157.82047  -3197228.66545  21934063.3914                   21934062.6054
 -11202990.28147  -8686098.55946  21099554.2664                   21099553.1174
 -25925731.84848 -20180292.63346  21696882.0234                   21696879.9024
   3904633.48047   3071188.10545  22557875.0164                   22557874.1844
 -12853343.59047  -9995783.15245  22432079.9614                   22432082.6374
 -42162443.19547 -32813712.07744  22735877.6484                   22735874.0984
  -8868201.05147  -6894655.09044  22799346.8984                   22799346.3714
  13899620.18046  10837781.69043  24521913.4384                   24521912.4964
 11  8 23  3  3 30.0000000  0 10G18G12G26G29G05G15G25G02G30G21
  17640967.23846  13755392.35043  24277429.9774                   24277429.5004
 -21575056.28546 -16790108.75345  23414491.2814                   23414490.7034
  -4258502.12147  -3285548.85745  21912494.8834                   21912493.9184
 -11313482.71547  -8772196.53346  21078528.4534                   21078527.0824
 -25905181.62547 -20164279.43846  21700792.5554                   21700791.0664
   3763795.90647   2961444.61045  22531074.6564                   22531073.8364
 -12847013.85547  -9990850.92545  22433284.5864                   22433286.4224
 -42166368.84447 -32816771.04644  22735130.2344                   22735127.2704
  -8853550.72747  -6883239.30344  22802134.7274                   22802134.9614
  13790341.24246  10752629.34043  24501118.0004                   24501116.9924
 11  8 23  3  4  0.0000000  0 10G18G12G26G29G05G15G25G02G30G21
  17504765.74646  13649261.43143  24251511.4614                   24251511.0904
 -21534668.94946 -16758638.15444  23422176.6804                   23422176.3524
  -4371333.10947  -3373469.08245  21891023.5704                   21891022.8164
 -11423614.50047  -8858013.49146  21057570.9304                   21057569.7894
 -25884361.98847 -20148056.31646  21704754.3054                   21704752.8364
   3623203.00447   2851891.72745  22504321.2034                   22504320.1804
 -12840300.85247  -9985620.01445  22434562.2894                   22434563.9064
 -42170165.24247 -32819729.30644  22734408.1564                   22734404.5044
  -8838575.08647  -6871569.97844  22804984.6644                   22804984.8444
  13681053.78146  10667470.38443  24480321.1564                   24480320.3094
 11  8 23  3  4 30.0000000  0 10G18G12G26G29G05G15G25G02G30G21
  17368787.00846  13543304.09743  24225635.5474                   24225635.6994
 -21494182.99646 -16727090.70344  23429880.3914                   23429880.4774
  -4483649.46547  -3460988.27345  21869650.5164                   21869649.5864
 -11533385.03947  -8943548.93146  21036682.2194                   21036681.1454
 -25863277.42648 -20131626.76246  21708766.6024                   21708764.8404
   3482855.83647   2742530.34145  22477613.7734                   22477613.2154
 -12833209.50847  -9980094.30045  22435911.8594                   22435913.4224
 -42173834.05947 -32822588.14944  22733709.7894                   22733706.3674
  -8823279.35947  -6859651.23844  22807895.2814                   22807895.5904
  13571755.44546  10582302.99943  24459522.0944                   24459521.4144
 11  8 23  3  5  0.0000000  0 10G18G12G26G29G05G15G25G02G30G21
  17233032.38746  13437521.40943  24199801.4224                   24199802.5864
 -21453600.89146 -16695468.33044  23437602.6484                   23437603.0634
  -4595447.60547  -3548103.67045  21848375.9534                   21848375.5164
 -11642791.69947  -9028800.84946  21015862.7344                   21015861.7974
 -25841930.12147 -20114992.47746  21712829.0394                   21712827.3094
   3342758.06647   2633363.32545  22450953.5474                   22450952.5704
 -12825742.03147  -9974275.53745  22437333.0634                   22437334.8204
 -42177374.18047 -32825346.72444  22733036.4304                   22733032.3484
  -8807666.09047  -6847485.06744  22810866.4844                   22810866.5634
  13462446.87146  10497127.59543  24438722.0164                   24438720.1954
 11  8 23  3  5 30.0000000  0 10G18G12G26G29G05G15G25G02G30G21
  17097504.01246  13331915.03143  24174010.8914                   24174011.6914
 -21412924.96546 -16663772.83744  23445343.5784                   23445343.1174
  -4706723.26647  -3634811.94245  21827200.9534                   21827200.3714
 -11751831.22747  -9113766.69546  20995113.1254                   20995112.0474
 -25820321.28548 -20098154.40046  21716940.9224                   21716939.1644
   3202914.10546   2524394.04145  22424342.4454                   22424341.7034
 -12817900.44547  -9968165.21745  22438825.5084                   22438826.0864
 -42180784.57847 -32828004.19544  22732387.6024                   22732383.3674
  -8791737.40247  -6835073.11445  22813898.4774                   22813898.0004
  13353128.21546  10411944.30443  24417918.9614                   24417917.8954
 11  8 23  3  6  0.0000000  0 10G18G12G26G29G05G15G25G02G30G21
  16962201.63746  13226484.69243  24148263.0944                   24148264.0634
 -21372159.12946 -16632007.31444  23453100.9844                   23453100.8324
  -4817474.77347  -3721111.78845  21806125.4694                   21806124.1134
 -11860502.46547  -9198445.55546  20974434.1024                   20974432.7464
 -25798454.53948 -20081115.35446  21721102.2814                   21721100.4734
   3063325.44947   2415623.71645  22397779.2034                   22397778.7624
 -12809688.68747  -9961766.47145  22440387.9924                   22440389.4884
 -42184065.66447 -32830560.91244  22731763.0634                   22731759.5394
  -8775497.68447  -6822418.80544  22816988.6334                   22816987.3284
  13243797.80146  10326751.84943  24397113.7974                   24397113.3054
 11  8 23  3  6 30.0000000  0 10G18G12G26G29G05G15G25G02G30G21
  16827130.69146  13121234.68643  24122560.5474                   24122560.4774
 -21331302.30546 -16600170.85844  23460876.5634                   23460875.9024
  -4927694.74647  -3806997.44145  21785151.2814                   21785150.5124
 -11968798.76247  -9282832.25446  20953825.5704                   20953824.5274
 -25776328.17248 -20063874.00046  21725312.5474                   21725310.5744
   2923999.51647   2307058.10545  22371266.4694                   22371265.2074
 -12801105.28547  -9955078.13745  22442021.6174                   22442023.1294
 -42187212.81247 -32833013.26344  22731164.0704                   22731160.4264
  -8758945.77747  -6809521.20144  22820138.2114                   22820137.3404
  13134459.73846  10241553.54043  24376308.1564                   24376306.6914
 11  8 23  3  7  0.0000000  0 10G18G12G26G29G05G15G25G02G30G21
  16692289.73846  13016163.96043  24096900.7504                   24096900.8874
 -21290359.80946 -16568267.64344  23468667.0944                   23468667.2504
  -5037382.64147  -3892468.51145  21764278.8134                   21764277.8674
 -12076720.08647  -9366926.77346  20933289.1724                   20933287.3324
 -25753947.12948 -20046434.20246  21729571.5474                   21729569.8484
   2784937.21547   2198697.90345  22344803.4694                   22344802.9064
 -12792155.68047  -9948104.43245  22443724.8524                   22443725.9964
 -42190228.02047 -32835362.80144  22730590.6024                   22730587.1764
  -8742087.30947  -6796384.78144  22823345.9844                   22823345.6294
  13025111.11346  10156346.92943  24355499.1724                   24355497.9534
 11  8 23  3  7 30.0000000  0 10G18G12G26G29G05G15G25G02G30G21
  16557679.07046  12911272.62943  24071286.0554                   24071284.3324
 -21249335.24246 -16536300.49044  23476473.9304                   23476473.8324
  -5146535.79747  -3977522.90145  21743507.2194                   21743506.5744
 -12184264.95747  -9450727.94346  20912823.9304                   20912822.4924
 -25731314.55548 -20028798.41746  21733877.8594                   21733876.6134
   2646140.60947   2090544.76245  22318391.6094                   22318390.8984
 -12782843.50447  -9940848.24145  22445496.9614                   22445498.3834
 -42193111.49247 -32837609.68744  22730041.4534                   22730038.3874
  -8724926.27047  -6783012.56944  22826611.8204                   22826610.9884
  12915750.93446  10071131.22243  24334688.1644                   24334687.8204
 11  8 23  3  8  0.0000000  0 10G18G12G26G29G05G15G25G02G30G21
  16423298.77046  12806560.87143  24045714.2424                   24045711.8404
 -21208232.37946 -16504272.31744  23484295.6414                   23484295.2624
  -5255152.25047  -4062159.09245  21722837.6954                   21722836.8444
 -12291431.93047  -9534234.65746  20892430.4924                   20892429.1954
 -25708433.32448 -20010968.87746  21738232.6414                   21738230.5824
   2507612.19147   1982600.57645  22292030.5394                   22292029.5314
 -12773172.37547  -9933312.32645  22447337.0864                   22447338.7464
 -42195863.32047 -32839753.99444  22729517.8914                   22729514.8364
  -8707466.51647  -6769407.56244  22829934.2344                   22829933.4964
  12806378.15246   9985905.80743  24313875.8054                   24313874.6564
 11  8 23  3  8 30.0000000  0 10G18G12G26G29G05G15G25G02G30G21
  16289153.52046  12702032.22243  24020186.9224                   24020185.7114
 -21167050.87546 -16472182.90744  23492132.4384                   23492131.6484
  -5363225.19147  -4146371.76545  21702272.3754                   21702271.3634
 -12398214.96547  -9617442.19146  20872110.5084                   20872108.9384
 -25685302.27348 -19992944.67246  21742633.9924                   21742632.1054
   2369358.97747   1874870.82645  22265721.8914                   22265720.9304
 -12763141.46947  -9925496.05945  22449245.5004                   22449247.6454
 -42198479.57047 -32841792.62544  22729020.2894                   22729017.1174
  -8689707.50847  -6755569.40244  22833313.4844                   22833313.3554
  12696995.89146   9900672.96743  24293061.5004                   24293059.4694
 11  8 23  3  9  0.0000000  0 10G18G12G26G29G05G15G25G02G30G21
  16155244.03946  12597687.29043  23994704.3674                   23994702.8444
 -21125793.85246 -16440034.60644  23499983.5634                   23499982.4534
  -5470752.15247  -4230158.98645  21681810.9224                   21681810.5274
 -12504612.07447  -9700349.01046  20851863.9224                   20851862.0474
 -25661924.52747 -19974728.24846  21747082.6484                   21747080.5984
   2231383.44547   1767357.46845  22239465.8284                   22239464.8874
 -12752754.21547  -9917402.12545  22451222.3674                   22451224.4964
 -42200960.37947 -32843725.77444  22728548.3674                   22728544.4104
  -8671652.96147  -6741500.94544  22836749.6804                   22836748.6564
  12587603.38346   9815432.15443  24272244.3524                   24272242.2624
 11  8 23  3  9 30.0000000  0 10G18G12G26G29G05G15G25G02G30G21
  16021566.36746  12493522.96343  23969266.3444                   23969266.0864
 -21084469.14847 -16407833.58644  23507846.9844                   23507846.1804
  -5577734.81647  -4313522.08645  21661452.8134                   21661452.0944
 -12610625.91447  -9782957.17746  20831690.1804                   20831688.4734
 -25638307.10947 -19956325.05245  21751577.1884                   21751574.8014
   2093683.75847   1660059.06545  22213262.4844                   22213261.8444
 -12742018.41847  -9909036.59645  22453264.9384                   22453267.2814
 -42203309.95347 -32845556.60644  22728101.2504                   22728097.2544
  -8653310.82847  -6727208.36244  22840239.1484                   22840238.9884
  12478195.20746   9730179.10243  24251424.1724                   24251421.7974
 11  8 23  3 10  0.0000000  0 10G18G12G26G29G05G15G25G02G30G21
  15888125.13346  12389542.89643  23943872.9304                   23943873.6134
 -21043076.44947 -16375579.57044  23515723.8364                   23515723.1214
  -5684166.95747  -4396456.21745  21641199.3204                   21641198.5824
 -12716250.77047  -9865262.24646  20811590.4614                   20811588.7854
 -25614449.15248 -19937734.43745  21756116.7814                   21756114.8754
   1956266.38347   1552980.64745  22187112.8674                   22187112.0084
 -12730933.51647  -9900399.04745  22455374.8134                   22455376.3204
 -42205524.41447 -32847282.19344  22727680.0314                   22727676.2304
  -8634680.89147  -6712691.59344  22843784.5704                   22843783.8244
  12368774.65246   9644916.42643  24230602.1174                   24230600.2624
 11  8 23  3 10 30.0000000  0 10G18G12G26G29G05G15G25G02G30G21
  15754921.32846  12285747.86543  23918524.7584                   23918525.3754
 -21001618.31647 -16343274.60144  23523613.9304                   23523612.4224
  -5790045.32447  -4478958.82045  21621051.5164                   21621050.5044
 -12821483.84447  -9947262.02846  20791564.9384                   20791563.5164
 -25590352.65647 -19918957.95545  21760702.2664                   21760700.2344
   1819134.96547   1446125.03545  22161017.9454                   22161016.3014
 -12719502.11747  -9891491.48345  22457550.1024                   22457552.5234
 -42207603.16047 -32848901.99044  22727284.3054                   22727281.1914
  -8615765.93747  -6697952.74544  22847384.0394                   22847383.8914
  12259341.85546   9559644.21843  24209777.3914                   24209775.5824
 11  8 23  3 11  0.0000000  0 10G18G12G26G29G05G15G25G02G30G21
  15621955.02746  12182137.86243  23893222.3674                   23893222.7274
 -20960098.47747 -16310921.47544  23531514.2814                   23531513.6524
  -5895367.66447  -4561028.16245  21601009.1484                   21601008.1564
 -12926323.55547 -10028955.30146  20771614.6484                   20771613.3094
 -25566020.67647 -19899997.97045  21765332.1414                   21765330.7344
   1682291.64147   1339493.94745  22134977.0634                   22134976.2974
 -12707728.00847  -9882316.86045  22459790.6884                   22459792.3054
 -42209546.39847 -32850416.23944  22726914.1564                   22726911.3984
  -8596569.96147  -6682994.89244  22851037.4064                   22851036.7974
  12149895.54746   9474361.45643  24188950.3984                   24188948.3284
 11  8 23  3 11 30.0000000  0 10G18G12G26G29G05G15G25G02G30G21
  15489230.45346  12078716.23843  23867965.3594                   23867965.6484
 -20918516.93446 -16278520.32544  23539427.3674                   23539426.6524
  -6000128.12947  -4642659.68845  21581074.0084                   21581072.8134
 -13030765.15648 -10110338.34046  20751740.5784                   20751738.3204
 -25541453.06247 -19880854.38845  21770007.5234                   21770006.4064
   1545742.46947   1233092.02645  22108992.3054                   22108991.3444
 -12695611.14147  -9872875.19245  22462096.7424                   22462098.5984
 -42211350.60947 -32851822.15144  22726570.8984                   22726568.0394
  -8577093.31247  -6667818.33744  22854744.0554                   22854743.0044
  12040438.25846   9389070.14543  24168121.9384                   24168120.1214
 11  8 23  3 12  0.0000000  0 10G18G12G26G29G05G15G25G02G30G21
  15356744.47746  11975480.46743  23842754.6334                   23842754.3204
 -20876880.40246 -16246076.31944  23547349.3524                   23547349.0164
  -6104327.84447  -4723854.24545  21561245.3134                   21561244.6844
 -13134809.80547 -10191412.08846  20731940.9144                   20731939.7034
 -25516655.59447 -19861531.68545  21774726.2034                   21774724.9344
   1409486.71547   1126918.77145  22083064.2034                   22083063.0204
 -12683158.35247  -9863171.75545  22464466.3524                   22464467.9064
 -42213019.02747 -32853122.23344  22726253.7664                   22726250.5664
  -8557342.98047  -6652428.48244  22858501.8444                   22858501.9344
  11930965.77047   9303767.05743  24147289.9774                   24147288.2074
 11  8 23  3 12 30.0000000  0 10G18G12G26G29G05G15G25G02G30G21
  15224498.68846  11872431.94743  23817589.0784                   23817588.6994
 -20835191.39546 -16213591.42344  23555282.2274                   23555283.1254
  -6207963.42647  -4804609.20845  21541524.2504                   21541523.1994
 -13238454.89548 -10272174.48146  20712218.1804                   20712216.3714
 -25491630.32447 -19842031.48245  21779488.7034                   21779487.1454
   1273527.96947   1020976.94345  22057191.7114                   22057190.5904
 -12670372.13347  -9853208.48445  22466899.0004                   22466900.7734
 -42214550.87947 -32854315.91344  22725962.1414                   22725959.3674
  -8537321.62547  -6636827.50544  22862312.8524                   22862312.1604
  11821478.66846   9218452.52943  24126455.0784                   24126452.6454
 11  8 23  3 13  0.0000000  0 10G18G12G26G29G05G15G25G02G30G21
  15092498.70746  11769574.93143  23792470.3364                   23792469.9614
 -20793447.94946 -16181064.12944  23563226.2814                   23563227.2114
  -6311026.98447  -4884918.46945  21521911.7504                   21521910.8324
 -13341693.19148 -10352619.88146  20692572.0944                   20692570.6054
 -25466374.63347 -19822351.74246  21784294.5004                   21784293.1524
   1137874.10247    915272.67045  22031377.8914                   22031377.0824
 -12657250.44947  -9842983.84345  22469396.6174                   22469398.9264
 -42215940.69947 -32855398.92844  22725697.6254                   22725695.1294
  -8517027.50047  -6621013.91044  22866174.4224                   22866173.7504
  11711981.05147   9133129.77243  24105618.6804                   24105615.8014
 11  8 23  3 13 30.0000000  0 10G18G12G26G29G05G15G25G02G30G21
  14960740.03946  11666905.93943  23767396.8054                   23767396.7854
 -20751658.59846 -16148501.01344  23571178.6174                   23571178.5664
  -6413521.28147  -4964784.13745  21502407.8754                   21502406.7304
 -13444527.96948 -10432750.87446  20673003.6724                   20673002.1094
 -25440896.56247 -19802498.70246  21789142.8594                   21789141.2544
   1002522.73447    809804.12545  22005621.0314                   22005620.0904
 -12643801.91447  -9832504.49045  22471955.6024                   22471957.4694
 -42217193.67647 -32856375.33344  22725459.3204                   22725456.6884
  -8496469.48447  -6604994.72844  22870086.2814                   22870085.9494
  11602467.10246   9047794.28043  24084777.7274                   24084776.3914
 11  8 23  3 14  0.0000000  0 10G18G12G26G29G05G15G25G02G30G21
  14829221.26246  11564423.87843  23742370.4384                   23742368.9694
 -20709828.37546 -16115906.09444  23579138.7504                   23579139.0044
  -6515445.79347  -5044205.81045  21483012.1884                   21483011.3014
 -13546959.28147 -10512567.46046  20653511.6414                   20653510.1724
 -25415200.90647 -19782476.12146  21794032.8054                   21794030.8754
    867474.78147    704572.03745  21979921.7274                   21979921.4964
 -12630031.73047  -9821774.51245  22474576.0164                   22474578.3524
 -42218311.64547 -32857246.49544  22725246.6254                   22725243.5234
  -8475652.96947  -6588774.06944  22874046.9454                   22874046.8834
  11492934.38746   8962444.26943  24063935.0554                   24063932.9884
 11  8 23  3 14 30.0000000  0 10G18G12G26G29G05G15G25G02G30G21
  14697941.69546  11462128.22743  23717388.8674                   23717387.2704
 -20667961.80946 -16083282.82244  23587106.3204                   23587106.0474
  -6616799.32047  -5123182.57345  21463725.1254                   21463724.6054
 -13648986.35248 -10592069.05746  20634096.4534                   20634095.1524
 -25389291.38348 -19762286.90745  21798963.1414                   21798961.2544
    732731.36747    599577.22545  21954281.4844                   21954280.5864
 -12615944.51247  -9810797.50845  22477256.7504                   22477259.0124
 -42219295.48847 -32858013.16944  22725060.0944                   22725055.2074
  -8454582.70347  -6572355.70044  22878056.2114                   22878056.4924
  11383381.06646   8877078.04643  24043087.1724                   24043085.0864
